GFSCGP_850_spd_000.txt.gz
Wind_Speed
21 19 21 23 21 20 17 15 13 16 14 17 15 13 10 12 17 20 21 24 25 27 26 26 26 25 25 24 23 22 23 22 20 18 17 17 16 16 16 15 16 14 13 14
15 22 22 22 21 23 20 18 17 14 8 15 12 14 12 13 18 21 24 25 26 25 25 27 27 27 27 26 24 23 24 25 24 19 18 18 16 14 14 13 14 14 14 14
19 19 20 19 22 23 22 21 18 16 11 15 10 14 14 16 18 20 23 26 28 28 28 29 30 30 28 28 27 26 25 25 24 24 19 15 16 15 12 13 11 10 11 11
20 19 23 17 23 22 23 22 19 16 12 13 16 12 14 15 16 18 25 28 29 31 29 29 31 31 30 29 27 26 25 25 24 24 23 21 15 14 12 12 11 12 11 10
20 23 21 23 23 24 24 21 20 20 15 18 15 10 13 5 14 19 26 32 33 33 33 32 31 32 31 28 28 27 27 27 25 24 24 22 19 16 14 13 13 13 13 11
23 19 20 21 21 22 19 16 12 17 15 18 24 15 15 13 15 16 18 29 34 34 33 32 31 30 32 30 29 27 28 29 28 26 24 25 20 19 16 16 13 12 12 12
20 22 16 20 21 23 22 17 11 15 15 15 18 20 16 12 12 16 16 22 31 34 33 33 34 34 33 34 31 29 30 31 30 29 27 25 24 23 20 18 15 13 12 12
18 20 27 17 28 25 26 25 16 23 15 14 21 16 18 19 22 26 18 17 24 34 36 37 37 36 35 34 34 32 31 33 32 31 31 30 27 23 21 19 17 15 13 12
20 25 24 25 18 27 28 25 26 25 20 16 17 14 22 17 15 17 16 16 22 31 39 39 37 38 36 35 36 38 37 35 34 32 33 33 30 28 22 19 18 15 14 11
15 13 24 23 21 25 29 21 24 20 26 23 20 18 11 18 19 17 14 18 22 27 33 40 41 41 40 37 37 37 38 38 34 33 34 33 31 29 25 22 23 20 15 13
22 13 15 23 27 28 20 23 21 23 21 19 18 19 16 16 15 15 12 17 19 23 31 36 43 42 39 37 37 36 34 35 36 34 37 36 30 27 26 24 24 19 19 14
22 15 15 19 27 29 26 25 26 17 27 20 22 18 12 13 17 23 25 19 12 17 26 32 36 38 40 40 38 37 35 33 34 38 40 36 30 27 27 26 27 21 22 16
20 18 14 19 19 18 27 31 27 26 20 26 20 18 16 9 12 16 14 17 11 12 18 26 30 36 40 41 40 39 36 35 32 32 30 32 32 32 29 31 32 27 25 21
6 18 22 16 22 21 25 26 30 30 23 23 26 21 21 18 16 18 19 22 14 12 15 23 28 33 35 38 41 42 36 33 31 29 29 29 30 28 34 35 36 36 35 32
6 15 16 21 21 19 24 28 28 31 32 29 23 29 24 22 20 20 25 23 17 16 18 25 30 34 35 35 37 35 32 29 28 27 27 26 24 29 36 39 40 42 44 48
13 11 10 17 22 24 23 26 27 26 27 31 33 31 23 31 32 31 30 29 21 22 21 26 28 29 30 30 29 26 26 25 24 24 24 23 27 31 35 37 38 45 53 54
14 13 10 16 15 20 24 27 27 29 27 24 25 28 30 27 22 29 31 27 25 26 25 28 30 27 25 25 24 23 21 21 21 21 23 25 31 30 29 27 32 40 52 53
10 13 12 12 1 13 15 19 23 26 28 24 20 17 24 21 22 26 27 19 25 22 20 22 25 23 22 21 20 19 18 20 22 22 23 24 25 23 21 23 25 30 41 50
18 14 10 11 14 11 18 8 17 22 25 28 21 20 12 12 14 16 12 13 18 18 19 21 23 23 23 24 24 23 22 21 21 21 21 21 20 21 21 21 22 26 33 35
19 16 13 8 14 18 3 12 17 14 15 23 25 17 21 14 12 13 7 8 13 18 18 22 24 27 28 29 28 27 24 21 19 17 17 16 18 19 18 18 19 20 26 28
16 16 19 11 10 8 11 13 6 9 8 21 21 24 20 16 3 8 12 12 15 20 23 28 27 28 31 31 28 24 21 17 14 15 16 18 18 20 18 19 17 19 20 20
18 15 11 7 9 15 10 2 1 15 17 8 13 17 17 17 19 19 20 22 26 29 27 29 31 30 25 23 20 17 14 12 14 16 18 19 20 21 21 20 18 19 19 22
14 14 8 11 8 5 7 1 3 7 4 9 15 23 27 32 29 29 28 26 29 30 28 24 23 22 20 19 15 13 12 13 14 17 19 19 19 21 19 17 19 19 18 18
4 7 7 9 5 9 10 8 8 5 9 19 18 23 24 25 28 26 21 22 22 20 19 18 16 15 13 11 12 12 11 12 13 16 18 19 21 21 16 14 15 15 13 12
6 4 9 5 6 14 16 12 9 6 9 16 19 20 19 20 22 25 22 18 17 16 13 11 10 11 12 12 10 9 10 12 16 18 19 20 18 17 16 15 15 12 15 14
10 6 3 6 11 12 14 12 4 13 16 16 20 24 23 23 23 22 22 17 12 14 11 8 8 9 9 9 9 10 13 15 16 17 16 15 14 11 11 12 18 18 15 13

GFSCGP_850_spd_003.txt.gz
Wind_Speed
23 17 23 26 25 23 22 20 19 16 24 19 18 16 15 17 17 20 24 24 26 27 27 28 28 28 27 27 26 25 25 25 23 22 18 18 16 15 14 13 14 13 11 12
16 24 24 24 25 24 27 23 18 12 17 21 18 19 18 19 17 19 22 26 27 27 27 28 29 29 29 29 28 27 26 27 25 21 20 16 16 14 14 13 15 11 12 10
24 22 25 26 26 26 25 24 20 17 25 22 15 17 17 15 23 20 21 24 28 31 30 30 31 31 30 30 31 30 29 27 26 24 17 18 15 16 10 13 11 13 14 13
25 21 25 28 28 26 24 24 25 20 12 13 19 16 21 19 21 20 24 26 28 32 32 32 32 32 33 31 30 30 30 29 26 27 22 21 16 15 14 12 12 11 8 8
25 26 25 30 30 29 26 24 24 23 17 20 24 17 11 21 21 22 22 27 29 31 34 34 35 34 32 31 30 30 32 29 28 26 25 22 19 14 13 12 11 14 9 10
24 26 27 24 28 23 24 22 23 23 19 19 22 17 19 17 19 16 24 28 29 31 33 34 34 33 33 32 31 31 33 33 29 27 25 27 22 20 15 16 12 10 10 6
22 28 23 25 24 25 28 24 16 19 18 20 22 18 18 18 16 20 18 25 30 32 33 36 37 38 37 37 35 33 34 34 31 27 25 24 25 19 18 14 17 10 10 9
21 21 29 22 28 28 31 27 19 23 18 18 23 23 21 21 16 10 17 19 26 30 34 37 40 40 40 39 38 36 35 34 34 31 29 27 25 22 21 20 15 13 12 11
18 25 20 29 26 27 29 28 27 27 23 20 21 26 24 11 14 19 21 25 18 26 33 39 39 40 40 40 42 41 37 36 35 30 31 30 27 26 23 21 20 15 16 15
20 17 23 25 25 27 34 24 26 22 27 25 22 22 16 19 20 20 17 19 17 22 30 37 39 40 40 40 40 41 39 36 35 32 30 28 28 27 26 23 22 21 20 21
24 18 16 24 31 31 20 27 23 25 23 21 20 18 20 12 13 20 21 30 21 19 27 34 38 40 41 39 39 40 40 38 36 35 31 30 29 28 27 29 29 28 28 25
24 16 15 21 25 27 29 28 32 18 28 20 22 18 14 16 17 15 16 15 15 24 25 29 37 38 39 42 40 40 38 37 36 34 35 34 33 32 32 32 33 35 33 32
20 19 16 21 20 24 30 29 31 33 22 26 22 20 21 5 10 18 18 23 26 8 17 24 29 38 42 43 43 42 41 38 34 34 33 34 35 37 37 37 38 37 38 36
9 20 23 18 22 19 26 31 31 30 23 22 26 25 22 21 14 13 17 15 15 9 9 18 27 34 42 44 45 44 42 38 34 32 33 36 40 39 39 42 45 42 41 40
15 20 23 25 24 19 23 29 30 33 30 28 24 30 26 25 22 20 25 22 24 21 15 18 26 32 38 42 44 45 41 39 35 35 34 37 38 37 40 43 47 45 43 44
20 18 18 20 23 24 24 22 30 29 32 33 33 31 25 28 32 22 25 24 24 25 19 18 23 29 34 39 40 43 44 38 36 36 37 36 37 39 43 46 47 45 46 46
20 16 17 20 21 18 23 27 25 24 27 27 29 30 27 29 26 26 34 30 31 33 33 22 24 31 35 38 37 38 41 40 36 38 36 34 39 41 44 43 42 41 43 48
18 19 15 17 16 21 16 19 26 27 26 26 27 24 24 25 37 39 33 30 35 36 40 24 24 28 31 31 30 34 33 40 38 38 35 37 40 41 39 36 33 31 32 45
16 14 17 16 18 10 16 3 3 11 17 22 25 25 28 26 28 36 48 41 32 30 31 21 24 29 31 33 34 35 33 35 34 32 36 37 40 37 32 31 27 24 26 34
21 16 13 14 23 24 17 11 8 6 14 15 17 16 27 20 17 11 27 23 23 24 25 20 23 30 31 32 32 35 33 33 35 32 33 34 32 30 27 23 22 20 22 23
21 20 22 18 17 16 6 5 4 8 9 16 16 22 29 21 21 2 5 10 18 21 20 20 25 29 31 31 31 31 31 30 28 26 26 28 28 27 23 21 19 18 20 19
22 20 19 18 22 23 7 7 6 8 16 17 17 19 27 29 5 4 5 10 14 18 22 26 27 29 29 30 32 31 29 27 28 28 27 26 26 24 21 19 19 18 17 17
23 20 16 18 14 9 11 12 7 8 9 9 6 7 6 3 5 7 10 13 16 19 24 26 27 31 28 27 27 25 23 26 27 26 27 27 27 24 21 19 18 18 15 14
6 19 17 11 12 9 13 12 11 10 5 8 12 12 14 17 19 20 22 24 27 27 27 27 26 26 22 19 17 17 18 20 21 26 24 26 27 24 21 18 18 16 15 14
5 10 9 16 15 18 16 15 12 10 10 15 17 22 18 19 18 19 19 20 20 20 23 21 19 18 18 16 15 13 15 16 16 19 22 22 23 23 20 16 15 12 16 16
7 6 1 8 19 21 18 17 16 18 15 15 16 18 13 14 15 17 15 16 16 17 19 20 18 16 15 13 13 12 15 17 19 22 22 23 21 21 19 18 19 18 14 15

GFSCGP_850_spd_006.txt.gz
Wind_Speed
23 15 20 25 25 22 23 20 22 15 11 17 18 12 16 39 26 25 27 27 29 29 29 30 30 29 29 29 31 30 31 29 24 22 21 21 22 17 14 12 9 15 17 16
19 24 24 24 25 26 27 26 23 14 19 20 18 25 28 29 26 28 28 27 28 28 30 31 32 31 32 32 32 33 32 32 33 28 23 17 18 12 14 16 16 16 10 10
23 22 23 25 26 27 26 25 22 20 18 23 16 15 23 28 27 24 25 29 29 31 32 35 34 34 34 35 36 35 34 32 33 30 25 22 18 18 14 14 14 14 14 13
24 25 25 27 29 27 26 24 26 24 13 13 15 11 12 18 21 20 27 27 31 33 33 34 37 36 36 36 37 35 35 33 32 28 25 19 21 15 15 13 14 15 13 13
24 26 27 27 31 29 26 26 25 24 21 19 20 13 12 24 21 25 21 30 30 33 34 35 39 38 36 35 37 38 36 34 32 29 30 22 20 17 16 18 16 21 12 8
26 26 27 27 25 29 26 23 24 22 19 17 18 15 19 15 19 19 24 30 31 32 34 37 37 38 39 37 37 38 37 37 33 31 29 28 23 22 17 19 20 18 14 14
26 26 25 25 26 26 29 23 16 18 17 17 20 21 11 20 23 21 4 15 34 33 35 38 39 42 43 42 40 39 40 39 35 35 32 31 28 25 25 20 18 17 15 18
21 21 26 23 29 25 27 27 17 21 18 19 22 22 17 24 25 16 25 58 39 38 36 38 42 43 44 45 41 40 41 40 38 36 35 30 33 29 30 23 26 21 19 18
19 25 20 30 23 27 27 26 27 26 22 18 18 18 23 17 18 18 33 30 26 39 38 38 40 44 41 43 44 43 41 41 40 36 37 32 30 34 33 30 27 25 24 21
25 20 21 23 26 29 30 19 23 20 25 25 20 23 11 19 16 20 12 23 19 18 34 35 38 41 42 42 44 42 42 42 41 37 38 34 34 34 36 32 30 30 24 27
24 22 20 23 26 26 18 22 24 21 20 17 17 17 15 16 15 19 19 22 22 19 33 32 37 39 40 39 42 44 43 41 41 39 38 38 38 38 36 36 35 36 33 31
26 17 19 26 25 28 29 29 27 17 21 19 20 16 17 7 10 10 11 22 20 27 26 27 30 38 40 42 41 43 44 43 42 40 40 39 40 39 40 41 40 39 36 37
20 21 16 24 24 25 30 28 25 26 21 21 19 16 21 6 4 14 16 24 22 5 25 31 29 37 41 44 43 44 46 45 41 42 43 43 41 42 42 44 43 42 41 43
8 18 26 18 21 18 25 30 28 26 18 21 22 20 25 12 14 11 16 23 16 11 22 25 25 35 44 46 48 46 45 45 44 44 45 44 44 45 44 44 44 43 43 43
15 16 21 28 29 25 25 29 29 27 26 22 21 27 18 22 15 18 21 13 13 10 20 18 21 30 43 45 50 50 46 47 45 46 45 46 46 46 45 44 46 45 43 44
22 17 18 24 25 27 24 27 28 29 29 27 26 25 21 21 29 12 21 17 22 21 17 24 26 25 29 43 49 52 51 49 47 47 48 45 45 45 45 44 43 42 40 38
20 17 16 21 25 23 24 26 22 23 24 25 22 23 17 19 15 14 16 20 26 23 24 18 21 27 30 34 49 54 54 49 49 48 49 46 45 47 46 43 42 42 41 41
20 20 16 17 19 24 17 19 24 23 18 20 23 21 18 19 25 26 27 21 24 27 32 30 31 25 26 29 37 45 46 48 48 47 47 47 46 47 44 42 42 42 41 39
15 18 14 15 17 15 19 18 12 9 13 16 17 17 18 23 24 24 29 29 28 35 28 34 30 29 30 31 35 40 45 50 46 48 45 47 43 43 43 42 41 39 37 33
16 5 9 13 17 23 20 7 6 4 9 10 11 11 13 15 15 13 25 29 32 38 33 20 24 33 31 34 37 41 41 47 50 48 48 41 41 42 42 39 35 32 29 24
11 9 13 12 14 15 7 4 6 10 2 7 8 10 12 10 11 25 13 9 16 35 31 27 17 23 29 36 36 40 41 42 45 38 36 35 36 38 36 32 26 24 19 19
8 9 11 11 11 15 15 18 18 4 3 6 10 12 14 14 19 20 8 5 11 8 3 7 17 25 30 34 34 35 33 29 31 32 31 32 34 32 25 19 17 18 18 20
13 14 11 12 11 9 8 11 8 8 8 15 16 16 15 16 11 5 1 1 4 2 5 10 13 17 21 25 30 31 28 28 30 29 30 32 29 27 26 21 21 18 17 17
16 12 15 15 13 4 14 11 10 14 22 22 25 27 26 14 5 8 7 6 8 10 13 17 20 20 22 24 26 27 27 30 31 32 31 29 26 22 19 17 16 15 15 15
6 10 12 14 15 15 14 12 13 21 21 22 25 28 28 24 27 22 29 26 25 25 24 23 24 22 24 25 27 27 28 29 30 28 26 24 23 23 22 22 19 16 17 15
5 4 4 1 13 17 15 14 17 23 24 23 25 24 28 28 27 22 26 25 25 24 23 21 18 17 19 21 21 22 22 22 22 23 21 24 26 25 27 22 19 18 16 16

GFSCGP_850_spd_009.txt.gz
Wind_Speed
23 8 16 13 15 12 14 16 17 16 9 10 10 11 12 20 18 13 34 37 40 41 38 38 38 37 33 34 33 35 33 26 24 23 19 18 22 17 16 20 18 18 15 15
10 17 12 10 11 17 20 19 19 16 12 8 14 16 18 18 20 26 29 37 40 42 43 39 42 39 40 38 39 37 35 33 27 25 24 21 21 19 18 14 16 16 16 12
16 10 17 17 18 19 22 20 18 12 12 12 16 2 6 8 6 20 22 39 42 45 46 46 46 43 43 43 42 41 38 34 35 29 26 22 18 21 20 20 20 21 18 15
14 18 19 23 23 20 19 22 21 21 13 8 12 6 6 11 6 6 24 35 40 44 48 51 50 48 46 45 42 40 38 36 35 37 32 29 24 25 24 18 21 19 15 15
19 16 20 20 22 19 20 13 21 21 13 7 16 4 7 13 19 29 28 38 41 44 48 52 54 54 50 48 45 43 40 37 35 35 37 34 26 25 19 18 18 17 19 16
17 18 17 18 15 21 17 15 17 17 11 11 12 13 7 11 25 26 28 34 41 43 49 48 54 53 52 50 48 46 43 40 37 32 33 33 27 23 26 26 25 22 25 20
16 21 22 17 17 14 20 11 12 12 10 8 10 12 9 17 12 25 24 33 36 43 45 48 50 54 55 53 50 48 46 42 38 34 32 35 31 27 26 26 26 25 27 23
15 17 24 15 21 18 13 18 13 13 13 9 9 13 8 15 16 31 29 39 38 33 44 50 54 57 57 55 51 48 47 44 40 36 33 34 37 33 31 29 21 29 26 21
15 16 9 24 20 18 14 19 15 6 8 6 8 9 13 15 16 19 23 32 39 36 34 46 55 56 58 56 53 50 48 45 41 36 35 35 38 40 36 34 26 26 23 20
9 7 19 19 23 18 20 8 13 15 17 18 16 11 12 7 17 15 15 22 36 36 41 41 52 56 57 58 54 49 47 46 42 38 36 36 39 40 39 37 36 30 28 28
23 16 19 9 16 22 12 17 13 8 15 13 9 16 8 11 12 19 20 36 36 43 47 45 56 59 58 56 54 52 49 46 45 41 39 36 39 41 38 39 40 38 32 33
19 15 14 23 19 20 24 12 13 8 9 6 9 15 10 17 0 21 28 31 35 24 57 53 55 50 53 55 54 55 53 50 46 43 41 38 37 40 40 40 41 42 41 38
14 18 11 14 14 19 19 21 12 19 4 13 6 17 18 20 1 5 3 16 30 26 42 47 48 49 53 54 54 55 54 51 48 45 44 41 39 41 43 42 41 43 43 41
16 12 26 18 13 6 9 21 22 16 15 14 23 13 15 8 8 9 29 26 19 17 26 45 46 51 54 54 53 55 55 52 49 47 46 44 43 43 44 42 43 44 43 43
6 18 18 17 17 18 25 15 25 22 20 15 13 19 13 17 10 11 14 24 27 18 25 45 50 54 49 54 55 54 55 54 49 48 48 47 45 44 44 44 42 43 47 46
12 10 10 8 12 21 21 19 19 26 23 19 17 20 6 12 20 9 19 24 20 9 20 36 38 41 49 53 55 56 55 54 50 48 48 47 46 46 46 46 43 42 41 44
12 5 4 10 7 8 15 27 20 11 23 21 19 19 8 10 8 4 22 26 12 12 26 32 32 40 48 50 50 56 57 56 55 50 49 48 46 46 47 47 44 43 40 37
19 15 8 6 6 8 10 9 12 14 7 13 10 12 11 12 26 16 9 7 2 10 15 24 27 29 28 39 52 51 57 59 57 54 51 49 48 46 45 45 44 42 40 38
15 11 6 5 8 3 8 11 4 7 10 1 8 8 4 4 11 13 18 17 21 27 38 28 23 30 28 34 37 54 56 61 59 58 54 53 49 48 48 47 42 43 39 37
14 7 3 3 6 14 5 5 9 5 2 6 10 8 8 8 3 4 12 7 17 31 30 33 36 27 30 37 39 45 56 59 62 60 59 56 53 50 51 47 43 41 33 25
5 3 4 5 6 4 4 5 6 4 4 4 11 8 7 3 2 14 14 5 2 8 17 22 32 32 26 27 40 43 47 56 62 60 53 54 50 50 49 42 39 30 26 27
4 9 7 4 4 3 8 8 6 3 11 15 17 15 8 10 13 12 9 7 5 6 3 4 17 38 33 25 44 47 47 48 45 43 43 41 45 45 41 34 29 26 28 28
3 7 4 8 5 3 14 10 1 14 20 19 19 18 16 23 27 21 9 3 3 3 8 10 9 26 32 33 42 44 42 40 39 40 39 39 39 34 32 29 29 28 23 19
6 7 5 8 8 3 8 11 21 19 19 17 19 22 22 24 20 20 16 8 5 0 16 18 22 23 22 28 34 36 36 35 39 41 37 33 29 28 26 24 22 21 19 17
1 7 4 6 5 9 25 17 29 30 24 24 27 28 25 23 25 22 17 14 12 14 22 24 28 28 24 24 28 31 32 35 37 36 33 31 29 28 26 23 21 18 17 15
2 3 2 2 11 8 6 25 27 31 27 28 30 29 26 20 20 15 17 12 8 8 22 35 34 34 31 27 29 29 27 25 27 27 28 28 29 27 26 26 24 20 16 16

GFSCGP_850_spd_012.txt.gz
Wind_Speed
11 4 13 10 8 6 6 6 9 16 5 4 13 14 24 37 35 34 36 37 38 43 44 41 40 40 42 41 41 41 39 32 27 27 26 31 31 31 26 22 19 20 17 15
5 12 7 9 7 10 11 13 18 12 10 2 6 16 18 25 32 40 38 36 40 41 42 43 43 39 42 45 44 42 39 34 30 27 25 24 27 29 30 25 21 21 19 18
12 8 12 10 11 10 14 16 17 9 9 1 9 3 6 11 20 28 34 41 43 46 46 50 49 47 43 43 46 45 41 37 33 30 26 24 21 26 28 26 25 20 22 16
10 15 13 17 14 10 11 15 16 13 4 4 4 4 5 8 8 17 34 37 40 43 47 53 54 55 53 51 47 45 43 40 37 35 31 31 30 31 29 25 25 23 20 20
8 19 17 17 18 16 14 10 12 14 9 4 10 3 7 12 11 13 21 38 42 47 51 51 57 58 58 55 54 51 48 45 41 38 36 35 33 29 22 26 23 22 23 20
10 14 14 16 13 18 14 7 9 5 7 7 10 12 6 8 22 17 25 34 46 48 49 54 57 58 60 58 55 54 53 49 45 42 37 38 38 34 28 29 27 22 22 23
9 17 7 7 9 9 9 8 7 7 9 11 10 8 10 13 17 25 25 31 34 47 49 51 52 54 57 61 59 57 55 52 48 44 39 35 37 34 31 31 29 25 25 26
13 11 14 8 17 9 9 13 11 10 5 6 6 8 7 14 25 39 46 43 38 43 50 53 59 61 63 62 61 60 57 52 50 46 41 35 34 35 34 29 32 30 28 27
8 13 3 18 16 14 15 6 15 8 3 2 4 6 7 8 12 26 30 30 35 45 52 55 60 63 63 61 63 61 58 54 50 46 41 39 35 35 37 30 30 32 31 29
11 4 9 19 18 16 12 8 5 1 14 18 6 6 12 8 8 10 23 33 43 47 51 53 57 63 62 63 63 60 58 55 50 48 43 39 36 35 38 34 34 33 29 28
20 8 11 7 12 15 10 12 3 4 7 11 5 17 8 10 9 10 18 41 47 49 51 56 52 55 62 60 60 61 59 56 53 49 45 41 37 37 37 38 38 38 32 30
12 15 16 25 11 13 24 15 12 10 11 9 18 24 2 10 11 9 19 35 49 51 48 58 55 52 51 57 57 60 59 57 55 47 46 42 37 37 38 38 40 41 41 36
9 12 14 8 11 3 7 15 18 5 4 18 9 5 8 9 8 6 11 17 22 32 30 28 45 50 55 56 58 59 59 58 55 50 47 43 41 39 39 39 39 42 44 44
17 6 12 20 21 6 6 11 16 18 16 14 20 5 5 2 3 6 19 31 35 26 26 35 41 51 53 55 57 59 59 59 56 51 50 46 43 42 40 39 40 42 45 46
6 5 5 13 17 20 17 10 19 21 21 21 21 12 9 10 9 10 21 22 27 35 34 33 46 53 54 54 56 56 58 60 58 55 51 49 44 43 42 40 40 42 43 46
6 5 8 7 13 25 23 19 22 18 21 20 9 8 11 15 24 14 23 21 27 32 38 33 46 57 56 58 58 57 58 59 59 58 55 49 45 46 46 44 42 41 43 43
4 4 8 6 9 16 17 33 21 15 11 16 15 10 10 9 9 12 20 18 23 27 30 36 46 51 56 60 59 56 56 57 58 58 56 52 47 47 47 46 43 42 42 41
10 7 3 6 7 15 5 19 14 8 7 10 15 11 14 15 30 31 26 18 13 25 21 31 46 49 60 60 55 55 56 57 58 57 56 54 50 48 48 48 45 43 40 38
16 10 4 4 3 7 3 3 9 8 5 3 7 10 7 15 11 4 20 23 24 19 14 19 32 48 50 52 53 54 54 55 56 57 56 55 52 49 49 48 45 41 38 36
4 19 9 4 3 5 3 2 7 7 2 6 1 7 7 8 9 4 4 14 25 26 26 26 24 19 21 47 48 49 54 55 57 58 57 55 55 51 48 46 44 40 36 32
4 3 10 8 5 6 5 15 2 8 7 2 3 4 5 6 5 7 4 6 8 17 26 29 33 33 30 29 45 48 53 58 55 52 56 59 58 55 49 45 45 39 34 28
5 2 3 4 4 6 21 15 4 6 5 16 13 12 20 17 15 15 12 11 6 8 11 19 27 35 39 41 41 47 54 52 50 58 55 53 57 55 51 48 46 35 30 27
6 6 3 5 5 14 17 5 12 9 18 10 15 15 17 18 17 17 16 13 7 7 13 18 21 27 36 39 42 46 44 48 53 52 49 49 49 51 51 50 40 35 36 35
6 4 3 2 1 13 23 13 14 19 23 20 18 16 15 19 18 18 14 8 4 3 1 5 11 17 29 33 45 49 51 50 53 48 47 49 48 48 47 41 37 38 39 34
2 4 5 2 5 21 21 18 13 20 22 22 22 21 19 19 21 18 16 14 10 8 7 8 11 8 11 19 38 46 43 48 50 48 46 43 42 41 42 42 37 34 31 29
1 2 1 1 10 6 10 5 21 23 20 22 24 22 21 19 20 17 17 18 18 12 13 13 21 25 30 20 20 36 37 42 45 43 43 40 39 38 37 28 22 21 21 20

GFSCGP_850_spd_015.txt.gz
Wind_Speed
10 6 9 9 6 5 3 3 5 6 3 2 9 8 20 33 27 27 32 34 37 42 47 43 41 40 41 40 38 38 37 35 33 32 32 33 31 28 26 24 19 17 15 13
3 15 8 8 8 8 7 7 12 14 8 8 7 11 23 25 33 42 39 38 40 40 38 47 44 43 45 44 42 41 40 38 37 34 31 33 31 31 30 26 23 20 17 17
10 6 10 9 7 8 6 9 11 10 4 2 4 3 12 21 17 23 31 40 42 42 46 48 49 48 47 48 46 44 43 44 41 37 32 32 27 32 34 34 29 25 20 17
7 10 10 9 8 9 9 7 9 5 3 3 3 4 5 14 20 17 28 35 39 42 40 48 51 51 50 49 46 46 44 45 45 41 37 34 32 32 33 34 33 28 23 21
9 13 16 11 17 8 11 4 8 3 4 0 5 1 7 16 17 18 24 35 39 45 45 46 54 54 53 48 47 46 47 46 46 46 42 37 34 31 27 29 30 28 24 22
12 7 13 11 8 13 4 2 5 3 3 6 16 8 10 8 19 21 26 37 44 45 47 53 56 55 55 55 51 48 48 49 49 47 45 42 37 33 31 28 30 28 27 27
6 20 5 6 8 6 5 7 3 3 4 11 9 6 14 8 18 28 26 41 49 47 47 54 51 52 49 56 58 55 53 52 51 50 47 44 40 36 32 30 27 31 28 28
9 6 15 6 10 11 8 12 6 8 5 8 6 8 7 17 17 33 42 46 43 43 48 51 59 58 61 61 61 60 58 56 55 53 50 46 42 38 33 32 31 30 32 29
9 10 4 15 7 16 8 11 13 1 3 2 5 7 5 8 10 11 24 32 37 42 48 53 57 59 61 60 63 64 62 60 58 56 52 49 45 42 36 32 32 32 33 31
8 3 7 11 9 9 15 9 4 2 11 13 5 7 6 7 12 9 11 20 34 41 45 52 52 58 60 61 62 64 63 61 59 58 54 51 46 43 39 32 33 33 35 34
3 4 7 6 8 15 4 13 4 6 7 9 9 10 8 10 10 11 12 25 36 40 48 55 56 55 58 55 56 61 62 61 62 61 56 53 48 45 44 35 34 36 34 35
6 3 14 17 7 19 19 16 9 7 12 6 7 11 4 16 14 10 15 23 28 36 52 50 55 52 47 54 54 58 60 61 59 61 58 53 48 46 46 39 36 39 38 35
7 4 2 6 4 3 10 12 13 10 4 21 9 7 6 8 8 15 16 16 22 25 33 39 39 35 47 51 55 57 58 59 58 58 58 55 51 48 48 42 40 39 41 40
3 3 4 5 5 4 7 11 20 17 11 17 20 8 5 8 11 10 15 17 24 28 31 40 42 42 45 49 53 56 57 56 57 57 56 57 53 47 47 44 41 41 42 43
4 3 3 5 13 14 15 12 25 20 23 16 18 12 14 10 11 12 24 17 14 22 31 40 38 42 47 49 50 53 54 54 55 55 57 56 53 47 46 46 42 42 42 42
3 4 6 5 9 10 15 20 25 24 23 18 17 8 9 15 24 11 23 25 19 17 28 39 47 49 53 52 53 54 56 54 53 54 56 55 53 51 49 48 45 43 44 42
2 1 5 5 8 11 11 25 20 23 13 17 19 9 8 11 11 14 29 35 34 30 31 34 40 49 49 50 53 55 54 53 52 52 53 55 54 52 52 51 48 46 46 44
3 4 1 5 6 8 10 9 17 18 8 9 5 10 12 15 33 39 38 31 27 22 16 24 35 41 47 47 44 50 54 54 53 51 52 53 55 53 53 54 52 49 48 46
16 5 2 3 3 9 12 4 9 13 14 7 12 10 8 22 11 11 31 31 27 27 26 22 24 41 45 43 42 46 53 52 52 52 52 52 54 54 55 54 54 52 49 47
17 17 5 3 4 6 0 18 25 14 17 9 10 11 10 11 7 12 22 20 21 25 25 19 16 23 39 44 43 44 52 54 54 52 51 51 53 55 56 53 53 51 50 48
6 7 14 11 5 8 9 25 16 5 8 7 10 8 9 7 10 18 14 8 8 9 15 17 15 16 19 31 41 43 48 53 51 50 51 52 54 54 55 55 52 51 49 46
9 10 6 8 8 8 16 12 9 10 24 5 16 13 17 15 13 12 10 8 9 10 7 5 3 5 17 21 28 40 46 45 51 53 50 52 53 54 53 54 53 49 45 41
6 7 8 6 6 2 8 12 24 20 14 18 11 19 20 21 18 17 17 13 13 12 11 11 9 8 6 1 14 24 36 44 47 49 53 53 50 51 49 51 51 46 42 37
6 5 8 3 6 3 15 22 24 23 16 10 10 17 22 25 20 19 15 13 11 9 6 8 12 15 13 15 14 9 21 33 39 47 53 55 57 54 48 49 47 46 43 41
6 6 13 5 5 2 14 14 23 15 11 15 17 22 26 25 23 21 20 17 14 11 7 4 4 10 17 20 20 20 21 20 29 41 48 47 50 51 47 43 43 44 45 41
8 7 7 7 6 3 8 8 10 14 17 17 24 26 25 23 22 19 21 18 14 11 11 11 11 12 16 22 28 31 30 25 21 30 42 47 48 47 47 49 47 41 38 26

GFSCGP_850_spd_018.txt.gz
Wind_Speed
10 5 13 7 7 6 5 4 4 1 4 3 8 4 11 24 23 25 32 33 35 41 42 41 40 37 37 35 34 32 32 31 29 30 29 30 29 28 25 21 19 18 15 15
4 19 9 10 9 8 5 5 8 3 6 2 6 7 11 16 28 36 35 34 39 37 34 43 42 41 40 39 39 37 34 33 34 32 29 29 29 29 27 22 21 21 17 15
15 7 12 12 7 9 7 11 5 4 3 2 3 5 4 15 10 23 28 30 35 35 41 44 45 45 43 43 44 43 39 37 37 35 32 32 31 32 29 29 26 24 20 17
6 5 13 8 12 10 8 8 6 7 4 4 4 5 5 7 18 18 24 31 35 38 37 42 47 46 48 46 44 44 43 41 39 37 36 35 33 32 32 33 30 28 24 20
10 13 14 14 8 8 8 9 9 5 5 4 5 2 6 9 11 16 20 31 37 45 43 45 48 51 52 50 47 47 46 43 41 41 40 38 37 32 28 27 30 32 31 27
9 7 13 12 7 10 7 4 5 5 4 5 10 8 5 7 14 19 19 30 37 38 47 50 49 46 50 51 51 51 51 48 46 45 45 43 40 37 32 29 27 29 29 28
5 15 3 6 7 4 6 8 2 2 3 10 8 8 14 8 16 17 23 38 42 42 42 48 47 50 50 53 52 53 53 53 50 48 46 47 45 41 35 30 28 27 28 29
12 6 20 6 9 9 8 9 6 8 5 6 6 9 6 13 17 28 34 42 42 41 45 48 56 52 53 54 55 55 53 51 52 49 47 47 47 45 41 35 29 29 29 29
9 10 3 7 5 16 6 10 9 4 1 2 5 7 5 6 10 10 25 24 29 39 43 50 52 56 57 56 58 58 57 54 53 51 47 47 48 48 45 40 34 30 31 28
3 1 6 15 6 6 10 8 4 1 7 6 4 5 6 7 13 12 9 21 32 40 41 47 47 51 58 60 59 57 57 56 55 53 52 50 49 47 44 41 37 32 32 32
5 3 2 7 9 19 3 6 3 5 6 6 1 7 8 10 12 13 15 28 34 38 42 49 48 53 56 57 57 59 58 58 57 56 55 53 51 50 48 44 39 35 32 33
1 3 6 6 3 8 22 15 9 6 10 3 4 9 4 8 11 12 17 27 34 34 35 42 46 50 52 55 56 58 58 58 58 57 56 55 52 51 51 46 41 38 35 34
5 2 2 4 4 2 5 13 9 6 2 15 7 8 15 6 8 16 18 23 21 23 29 35 37 42 49 53 55 55 56 56 56 56 57 56 54 53 52 47 43 41 38 36
2 2 3 3 1 2 6 5 9 14 13 17 21 16 5 5 9 8 20 29 28 26 25 27 29 35 46 50 54 54 53 54 52 53 54 55 55 53 52 47 44 43 40 38
3 1 2 1 10 6 10 12 10 10 22 15 16 24 11 9 11 17 31 31 27 26 22 18 21 27 39 46 50 51 49 50 49 49 51 52 54 53 50 48 46 43 42 40
4 2 2 4 9 11 9 12 12 12 11 10 21 11 9 18 30 18 27 26 29 29 28 21 19 25 35 41 46 48 47 46 47 48 49 48 50 52 50 48 47 44 44 43
2 1 2 4 4 8 11 9 16 12 8 12 17 12 7 9 10 17 32 37 36 35 30 27 21 22 32 40 43 46 48 46 48 48 48 47 48 50 50 49 48 47 45 44
3 3 2 4 3 8 5 6 5 11 19 16 15 7 13 17 33 38 42 41 39 40 42 36 31 32 34 33 38 41 44 48 48 48 47 46 46 46 48 49 50 49 47 46
15 4 3 4 5 9 16 4 4 1 7 9 15 12 9 29 24 19 23 28 33 34 33 25 24 18 24 35 39 42 44 46 47 48 48 47 45 45 47 50 50 52 51 49
8 11 3 3 5 6 0 3 11 4 5 10 9 14 14 10 5 7 28 25 25 26 25 23 21 22 24 25 34 40 45 47 45 48 49 46 45 45 45 45 46 50 53 52
4 5 13 11 5 6 4 10 6 6 6 19 18 20 17 9 15 20 10 11 15 18 19 18 15 13 13 14 20 27 33 37 38 40 45 46 45 44 42 37 42 48 51 50
7 8 5 6 5 12 4 7 2 6 18 18 21 18 16 12 17 14 13 14 13 15 14 10 11 8 6 7 8 17 23 26 28 33 37 41 42 40 39 43 44 45 49 45
8 7 4 9 7 6 6 7 9 6 13 14 18 12 3 17 24 24 26 26 22 22 22 19 18 16 15 10 4 10 17 21 23 25 30 35 39 41 42 45 47 44 46 43
5 2 3 6 6 8 9 6 5 6 10 10 7 4 11 19 28 29 25 25 22 21 20 17 15 15 14 13 11 7 5 5 10 19 25 28 34 38 42 42 45 43 47 49
9 8 3 5 14 11 7 4 1 3 3 7 11 17 18 18 24 28 26 25 24 21 19 17 15 13 12 11 11 11 12 16 19 20 19 24 30 36 42 44 47 47 47 47
6 5 4 8 7 11 7 4 4 9 5 13 19 21 20 20 22 25 26 23 20 18 16 12 11 11 12 13 14 16 19 21 25 29 32 30 28 32 41 47 45 44 41 43

GFSCGP_850_spd_024.txt.gz
Wind_Speed
27 19 25 27 24 20 18 19 20 16 13 11 13 13 7 12 20 20 23 26 28 29 28 31 31 30 28 27 26 26 26 27 26 25 23 22 21 18 17 17 17 18 15 13
18 27 23 22 21 20 21 18 22 15 9 9 15 14 12 12 17 19 23 27 29 26 27 30 31 31 31 30 28 27 28 29 30 27 25 22 20 18 17 16 18 20 17 15
25 15 23 23 22 23 23 24 21 15 12 15 16 17 14 12 15 18 22 24 26 30 31 31 33 34 32 33 32 30 31 29 31 25 24 23 20 19 19 19 19 20 19 17
28 22 22 25 26 23 25 25 21 20 17 15 15 15 18 21 16 16 22 26 28 30 32 31 33 34 36 36 32 31 31 32 29 32 25 28 25 22 20 19 18 17 20 18
22 27 23 29 26 26 22 18 20 21 19 18 23 13 16 12 16 18 20 25 28 31 33 34 35 37 36 32 32 31 32 34 31 33 31 29 27 21 17 18 19 22 19 21
27 19 24 22 20 23 15 16 14 15 17 20 24 21 19 19 18 18 19 22 26 31 35 36 34 31 34 32 31 31 34 39 39 38 38 35 29 27 22 21 20 19 19 18
26 27 18 17 21 21 22 17 9 12 17 20 21 20 19 11 20 20 18 23 24 30 32 36 35 34 34 36 35 33 34 39 41 41 40 40 38 33 29 23 20 18 18 19
22 21 30 24 28 18 27 23 12 16 14 17 19 22 21 25 25 11 27 23 22 26 31 34 37 38 37 38 41 39 38 40 42 42 44 42 40 35 31 29 24 21 20 19
22 26 30 20 21 26 25 25 27 6 5 9 17 19 18 10 18 25 26 20 21 25 31 34 37 38 38 38 41 46 46 44 44 44 44 45 44 43 34 33 30 27 23 19
16 19 19 24 27 25 20 25 22 15 17 18 13 19 12 22 21 19 22 27 24 27 29 30 32 37 39 40 40 42 44 46 46 46 47 47 46 45 43 42 38 34 29 29
14 14 23 22 25 26 22 19 23 18 17 13 12 11 15 17 16 21 20 26 27 26 27 28 30 32 35 36 37 39 40 44 45 47 49 49 48 47 45 46 45 42 39 36
17 10 11 26 25 26 29 23 27 14 23 19 14 5 4 7 15 17 21 24 25 25 22 22 23 24 28 33 36 40 42 41 47 48 47 48 48 49 48 48 46 44 41 39
7 14 15 16 21 23 30 28 25 25 16 21 16 4 10 7 3 6 9 7 11 12 14 18 20 23 26 28 33 35 37 41 40 42 46 45 47 48 49 48 46 45 42 40
5 14 23 19 20 19 26 29 27 27 19 17 17 15 11 6 5 7 3 3 4 10 13 13 16 23 24 26 32 38 35 36 37 38 40 45 52 53 51 49 47 45 45 43
5 14 9 15 2 6 18 28 30 30 26 23 18 20 17 7 8 7 10 13 11 6 4 8 13 17 20 22 27 33 33 35 36 42 40 47 48 49 51 52 51 49 48 47
5 4 6 14 10 7 10 12 13 22 27 26 25 22 11 11 7 17 18 18 20 22 22 21 16 17 16 19 23 25 32 35 37 41 47 45 44 44 44 47 50 50 50 49
7 3 8 15 10 10 15 20 19 18 17 17 21 16 17 17 16 20 22 22 22 21 22 20 18 19 19 20 21 23 25 27 36 42 42 44 45 44 44 42 44 46 48 47
8 8 6 6 6 15 11 10 20 23 18 19 18 17 15 15 20 23 24 24 26 25 24 23 23 21 21 20 19 18 20 24 31 40 40 43 44 44 36 40 42 43 44 46
13 9 7 10 12 9 5 3 8 11 17 17 15 9 12 18 24 28 26 26 26 28 27 26 26 25 25 23 21 19 21 23 28 36 34 38 40 38 38 41 42 42 41 43
14 12 9 7 15 14 4 16 2 2 9 6 6 8 9 9 10 12 24 26 25 25 26 25 22 20 20 22 22 21 22 24 30 33 32 33 35 38 40 39 40 41 41 41
14 11 14 13 11 9 8 8 2 11 4 6 4 7 10 9 13 22 25 23 20 18 20 20 21 21 22 19 17 20 22 26 26 25 26 30 32 34 35 35 37 39 40 36
10 12 12 13 16 21 7 9 12 11 12 13 13 13 15 16 18 25 25 28 26 23 19 18 16 16 16 20 18 20 23 20 21 22 24 27 29 29 28 34 35 34 34 37
13 12 11 9 11 13 7 12 14 19 19 18 22 22 22 23 21 23 23 20 20 18 15 11 11 11 9 13 13 15 15 17 18 20 22 22 23 25 28 30 27 29 33 34
14 15 13 17 21 22 19 24 22 17 23 22 23 24 23 27 25 20 17 13 10 6 3 2 4 6 7 8 10 10 12 13 13 14 15 16 18 20 21 22 24 26 28 31
10 7 12 19 21 24 25 25 25 24 20 20 22 23 22 24 20 15 9 7 6 4 3 6 6 6 8 9 11 11 13 13 9 10 11 12 13 17 18 21 22 25 28 30
21 21 15 15 16 20 24 22 14 18 19 20 21 21 20 17 10 8 6 8 7 7 8 9 9 7 9 9 8 8 9 9 9 7 6 8 10 12 15 17 20 26 31 30

GFSCGP_850_spd_027.txt.gz
Wind_Speed
30 20 27 29 27 22 22 21 24 18 23 22 18 18 15 20 20 21 25 27 28 29 29 32 32 30 30 28 28 28 28 28 26 24 22 21 20 17 16 15 15 16 14 12
19 28 26 24 26 27 26 26 24 22 13 11 15 20 17 14 16 19 24 26 28 27 29 32 33 33 32 31 30 30 31 30 30 26 24 21 19 17 16 15 17 16 15 13
28 19 27 26 25 27 28 28 24 20 18 19 14 19 17 16 19 20 21 25 27 31 33 34 35 35 34 34 33 33 34 34 32 26 24 23 20 19 18 17 17 17 17 14
30 26 26 27 27 26 27 26 23 18 19 17 21 16 20 17 18 19 23 27 28 30 32 33 35 36 37 36 34 34 35 35 33 33 25 26 24 22 19 18 17 16 17 16
32 28 23 27 26 26 24 20 24 23 20 19 22 19 18 24 25 21 20 27 29 29 32 34 37 37 36 35 34 34 36 35 32 33 30 27 26 21 19 18 19 21 18 17
30 25 24 22 24 22 21 16 19 22 19 20 25 21 19 17 20 24 26 28 29 29 32 34 34 32 33 34 34 33 35 36 36 34 36 32 29 25 20 20 19 18 19 16
28 32 24 21 22 24 18 19 13 16 18 17 25 24 20 20 19 19 20 29 27 25 29 34 35 35 35 37 37 37 39 40 39 38 35 39 34 31 26 22 21 19 19 20
22 25 34 22 27 25 27 25 16 21 18 17 24 27 24 25 16 22 26 26 29 27 28 34 37 37 38 40 42 40 40 41 40 40 39 38 41 30 31 28 23 23 20 20
25 31 30 25 24 27 23 26 28 22 22 14 20 28 24 21 26 20 17 29 28 30 28 33 37 39 39 40 44 45 44 44 44 44 44 43 41 42 34 32 31 25 23 20
28 20 28 32 24 28 25 25 22 16 20 19 14 15 18 20 16 26 25 20 31 27 29 32 35 39 40 40 44 46 46 47 43 44 44 45 45 44 43 37 36 31 28 26
33 22 16 25 28 27 26 22 25 20 18 13 11 11 17 19 19 18 20 33 28 27 29 31 34 37 38 38 38 42 45 44 44 44 45 44 46 47 45 46 43 39 34 33
35 13 21 31 28 27 26 29 27 17 24 17 12 1 9 9 10 19 22 24 32 30 29 30 31 30 34 38 38 40 41 43 48 46 47 48 46 45 47 47 48 46 42 39
9 17 16 22 25 28 31 30 24 26 18 21 15 7 9 5 2 15 18 20 23 25 25 27 31 31 31 35 38 39 41 42 41 43 43 46 50 51 51 49 46 46 44 42
10 17 23 19 25 24 29 29 30 24 19 17 19 15 13 8 8 7 8 9 15 14 8 15 20 25 29 29 34 38 38 38 38 39 41 44 49 53 52 50 50 47 46 44
7 15 20 26 18 20 28 29 30 30 24 24 15 19 15 13 11 13 14 11 6 7 10 13 15 18 19 23 27 34 36 36 37 41 43 48 46 45 43 45 49 47 45 44
10 12 19 23 24 5 14 26 32 30 27 24 23 14 18 18 13 11 9 7 6 7 8 11 13 13 17 24 25 27 34 35 36 39 46 44 45 44 45 45 46 47 47 47
11 9 12 17 22 11 16 20 20 24 27 22 22 19 9 6 4 4 7 10 11 12 12 14 16 15 17 19 19 25 29 32 37 42 40 44 43 45 44 42 43 49 51 48
12 12 9 12 18 20 14 19 14 14 14 16 12 10 9 6 10 14 14 15 14 14 15 14 16 18 18 20 19 22 22 29 34 38 43 42 45 43 45 46 48 46 46 50
13 11 7 10 16 7 17 14 21 22 20 14 14 13 10 12 12 18 21 23 23 21 20 18 18 19 19 19 15 17 19 24 28 33 41 44 42 43 45 48 47 45 45 45
15 12 11 8 13 18 4 10 2 3 12 20 18 15 11 10 10 7 10 11 13 18 15 15 18 18 18 20 22 23 24 25 30 32 34 39 41 44 46 46 44 42 41 43
12 13 14 13 8 10 5 12 13 12 6 17 5 4 7 6 9 20 19 18 16 17 17 14 13 13 16 15 17 21 25 27 32 24 26 35 38 42 42 41 39 39 38 35
12 15 13 14 16 17 5 7 5 8 11 16 13 11 11 11 14 18 20 20 19 19 18 17 17 15 13 13 14 18 23 26 23 26 26 31 33 32 31 37 35 35 34 35
9 9 10 13 15 4 11 14 5 4 9 9 12 12 11 14 15 17 19 18 16 15 13 12 13 13 8 8 11 15 18 18 20 22 24 26 27 28 30 29 31 28 30 30
12 16 12 14 17 14 18 14 12 13 15 14 16 18 16 17 17 19 19 17 12 8 7 7 7 7 4 2 3 6 7 9 14 16 20 21 21 22 22 24 22 24 25 26
13 13 15 19 19 23 25 22 20 24 20 22 20 18 20 20 20 19 17 15 10 8 6 3 2 4 3 3 3 2 3 5 9 11 13 14 15 18 18 20 21 21 23 23
20 18 14 14 17 17 22 26 27 26 23 22 21 24 23 23 23 21 19 15 10 6 3 5 7 5 6 6 6 5 2 5 6 8 9 10 11 12 13 14 15 21 23 19

GFSCGP_850_spd_030.txt.gz
Wind_Speed
30 19 25 30 26 22 23 21 24 20 22 24 22 19 18 15 24 24 32 35 35 34 34 36 33 33 33 34 35 35 32 29 29 24 24 22 19 19 17 14 13 16 15 14
22 28 27 26 25 26 28 25 24 23 23 19 22 20 18 23 37 46 30 31 36 33 36 38 37 37 35 38 36 35 36 33 32 30 25 23 20 20 18 17 17 19 18 15
28 19 27 26 26 28 28 27 24 22 22 19 19 21 19 21 28 16 37 41 36 38 38 39 42 40 39 39 40 38 37 37 36 31 26 23 22 20 20 19 19 21 20 15
27 32 29 27 29 26 26 27 25 25 21 18 20 14 17 19 19 19 20 29 25 38 36 38 40 40 42 40 42 40 38 39 38 35 31 30 30 29 23 22 21 21 18 19
30 26 30 28 28 26 24 24 25 25 23 19 20 16 14 22 22 21 24 31 50 34 39 41 42 43 41 41 41 41 39 39 39 37 32 31 31 27 25 22 21 21 19 16
31 32 25 25 25 26 24 22 23 23 18 17 23 19 19 18 22 20 22 29 33 34 40 42 41 39 40 39 40 39 40 39 40 37 39 32 35 30 27 25 23 24 22 19
29 34 29 27 22 25 22 21 14 14 16 16 21 21 15 20 25 21 22 29 30 36 36 41 44 43 43 42 43 43 43 42 39 42 40 39 35 33 30 26 26 25 24 25
23 26 36 23 31 25 28 25 15 22 17 17 23 25 21 23 20 36 38 35 35 34 37 42 45 44 46 44 46 46 47 43 41 42 43 43 39 35 35 31 28 29 26 22
23 30 31 33 26 26 23 25 24 21 20 16 18 25 22 25 24 21 18 30 34 37 37 43 43 44 46 45 47 48 48 46 42 41 44 41 45 41 37 37 32 26 27 23
28 18 30 33 26 28 27 22 21 17 20 19 19 22 19 22 25 22 16 18 29 35 34 39 44 45 46 49 47 48 47 48 41 42 44 45 44 45 42 39 36 34 27 29
30 24 22 29 31 27 22 21 25 19 16 15 13 14 17 25 22 21 22 25 26 32 37 38 42 44 46 45 44 47 47 47 46 41 44 47 46 44 43 44 39 38 35 28
34 23 21 27 27 30 28 28 25 13 22 15 14 4 12 15 21 17 12 31 23 28 35 36 40 41 42 44 44 47 47 46 49 46 43 45 46 45 44 46 46 42 41 38
12 19 20 26 23 29 32 29 26 22 18 19 14 7 8 11 12 19 18 26 33 23 27 34 38 38 43 45 45 45 48 49 43 44 44 44 46 47 47 46 45 46 44 42
9 10 21 19 21 19 27 29 28 25 17 16 18 7 8 8 4 10 17 14 17 24 23 33 33 39 39 43 46 45 44 44 43 41 42 44 47 48 46 46 46 45 47 46
8 13 19 29 24 22 26 27 29 30 21 22 18 18 15 11 9 9 11 7 15 21 16 21 28 40 43 41 44 44 43 43 42 43 43 44 44 45 46 45 46 46 46 48
19 8 13 17 22 19 18 31 29 29 29 23 24 18 19 16 15 13 17 11 10 11 7 6 7 7 12 28 36 42 43 40 43 44 46 46 44 43 45 45 45 47 49 48
14 12 9 16 17 21 19 16 28 26 24 24 20 17 17 20 17 16 16 11 7 3 0 2 5 9 11 14 23 33 40 39 37 42 45 47 46 47 47 47 48 49 49 48
12 12 9 11 13 18 12 13 13 21 23 23 18 16 13 14 20 17 12 9 6 6 8 8 11 15 15 18 22 25 26 32 37 40 42 39 45 47 48 48 49 49 49 51
10 10 7 6 8 9 13 14 16 9 15 20 21 16 12 14 12 11 7 2 4 8 12 12 14 17 20 22 24 32 32 35 35 36 44 46 42 45 47 50 50 48 48 48
11 10 7 9 6 12 6 14 4 16 9 21 11 0 5 7 4 9 15 13 10 9 6 6 6 7 15 13 21 13 28 32 31 30 34 41 43 48 49 49 49 48 47 46
11 9 11 8 6 3 13 19 10 13 6 19 26 10 4 8 13 12 12 13 11 11 11 10 11 6 12 7 11 13 19 24 28 30 31 32 36 41 45 45 42 44 43 41
11 11 10 11 9 2 25 12 8 9 17 21 22 25 20 18 14 13 15 18 16 14 12 11 11 12 9 15 18 20 20 26 22 25 30 31 28 34 38 39 38 37 38 38
6 4 7 12 11 5 13 8 8 12 13 15 17 16 15 13 15 15 17 20 21 16 10 7 9 8 8 8 11 17 19 19 23 17 26 27 25 29 31 30 36 35 35 36
10 18 8 9 16 11 11 13 11 11 10 13 11 14 14 15 16 20 21 19 25 18 10 10 9 8 6 4 5 8 10 12 17 18 19 21 22 24 26 28 23 28 31 31
12 14 12 15 15 19 18 17 16 16 16 17 13 15 12 14 17 18 17 17 21 19 11 7 7 4 2 3 9 11 12 11 9 14 15 16 16 18 19 21 25 21 20 23
16 14 11 13 21 19 20 21 19 22 20 19 19 17 15 15 19 23 19 16 17 18 14 10 6 3 4 7 7 1 8 11 9 10 10 11 12 14 14 15 14 22 17 17

GFSCGP_850_spd_033.txt.gz
Wind_Speed
27 11 21 22 18 11 10 17 15 13 11 8 16 8 27 26 30 25 18 23 34 36 36 40 38 41 41 42 39 35 32 28 26 22 29 29 29 25 22 16 14 15 13 10
13 24 19 15 16 18 18 21 21 12 17 15 16 12 23 26 32 44 47 45 34 39 37 42 41 40 40 44 42 41 37 33 30 27 23 26 25 23 19 21 16 18 16 14
25 14 20 19 20 23 23 20 19 13 15 16 11 21 20 22 33 21 36 48 29 44 45 45 47 44 44 46 46 44 42 39 35 31 26 22 22 21 22 18 22 19 19 17
25 22 26 25 24 21 21 18 20 21 14 8 13 10 11 21 15 18 35 40 50 48 45 47 50 46 47 50 47 44 42 40 37 34 31 27 30 29 27 24 20 21 20 18
26 25 28 28 26 21 16 16 21 22 15 7 18 3 16 22 13 20 26 45 41 42 38 45 52 52 47 47 48 45 41 39 39 37 34 32 31 30 28 25 23 23 22 18
25 20 22 26 19 18 17 12 9 15 12 13 16 6 6 16 16 26 34 44 49 51 52 48 53 52 50 46 48 46 43 41 40 40 37 35 34 33 29 27 24 23 23 20
19 30 23 16 19 21 17 12 8 9 13 12 8 8 8 7 16 15 25 49 55 58 48 50 49 52 49 49 48 49 47 45 43 40 38 39 36 34 35 30 28 25 25 25
17 19 31 20 21 16 22 20 5 9 10 11 8 11 9 9 9 17 33 57 55 48 59 56 59 56 53 53 51 51 50 48 46 42 39 41 40 35 34 32 29 30 28 25
17 25 14 28 15 18 20 19 12 3 6 4 5 10 11 18 15 7 17 29 41 53 53 53 58 59 59 55 54 54 52 49 47 44 41 40 44 40 36 36 32 29 27 25
23 10 21 21 23 22 18 12 12 9 10 10 9 16 17 14 21 13 10 14 37 54 58 53 57 56 60 58 56 53 53 50 47 44 42 41 42 44 41 35 37 32 29 29
18 18 28 17 26 28 12 13 15 6 5 6 5 9 18 21 21 15 16 23 47 44 52 57 56 57 57 57 56 53 53 51 47 43 41 43 44 45 46 41 38 39 33 30
16 8 17 27 16 25 16 16 18 11 14 6 5 10 9 12 26 19 19 26 35 43 49 56 58 57 53 55 54 53 53 52 49 44 42 42 43 44 46 46 41 41 40 37
15 5 9 18 13 16 30 23 16 9 5 13 5 6 6 10 21 20 19 26 25 40 48 52 53 51 52 54 54 52 51 51 48 46 43 41 43 44 44 45 43 42 43 42
27 10 11 11 16 8 25 22 21 13 13 16 8 7 8 9 10 9 19 19 36 25 41 49 49 50 52 52 53 51 50 49 47 46 44 44 43 43 44 43 43 44 45 44
11 7 12 14 14 13 17 25 22 23 13 17 12 7 5 2 7 7 16 16 24 28 44 46 48 48 51 51 51 50 48 46 46 44 44 45 43 41 41 42 42 41 43 46
17 7 16 5 11 14 18 26 23 21 19 10 14 8 8 7 23 21 24 25 26 22 25 33 41 50 55 54 50 50 50 47 45 45 41 39 40 40 42 43 43 44 43 42
15 10 10 5 5 6 3 14 24 18 18 16 13 8 6 7 12 15 25 23 21 23 22 20 18 33 37 46 51 50 49 47 47 47 45 43 41 39 40 39 41 44 44 44
20 18 4 5 5 2 7 4 11 18 9 19 14 11 12 9 21 23 27 26 18 17 16 15 12 10 13 10 34 47 48 48 46 47 47 46 46 44 41 41 41 41 42 44
16 11 4 4 2 3 4 12 11 4 11 23 11 4 14 28 36 26 29 28 25 20 15 10 8 6 3 12 13 28 42 48 48 45 46 47 47 46 45 46 45 43 43 42
15 10 2 4 4 2 12 26 32 8 11 20 20 19 14 22 11 5 25 24 22 19 14 7 3 5 6 7 20 28 32 35 45 46 44 42 40 44 45 45 46 45 45 45
6 3 4 4 3 6 18 24 19 7 3 17 25 24 31 17 14 23 23 26 21 17 14 5 1 4 6 3 0 11 26 36 35 35 35 37 40 43 44 41 42 45 46 45
0 3 2 1 4 4 34 22 14 6 19 22 27 31 27 31 30 24 22 25 29 21 15 10 5 6 8 10 9 6 8 10 21 32 35 32 31 32 37 40 40 40 41 42
5 3 2 6 2 14 13 19 22 23 20 25 24 27 25 30 30 28 23 23 25 26 21 11 8 10 8 3 9 13 11 12 13 20 20 22 29 30 28 28 34 37 37 36
8 9 3 7 12 15 11 8 22 22 19 20 22 21 23 23 24 25 25 23 22 22 20 14 11 17 7 4 7 11 16 19 22 21 20 25 23 25 23 22 26 28 32 33
7 12 10 9 9 17 16 24 28 30 22 13 15 16 14 15 18 20 21 22 23 17 16 13 11 16 11 11 9 10 13 15 15 14 17 19 22 22 20 19 22 23 23 23
10 10 7 7 23 9 21 29 29 28 26 21 25 15 15 10 13 17 19 19 20 23 18 15 13 12 14 14 16 13 14 13 12 14 16 18 18 18 17 15 19 23 16 21

GFSCGP_850_spd_036.txt.gz
Wind_Speed
21 11 17 25 15 6 5 9 8 10 13 7 16 17 30 40 38 34 38 41 46 49 46 41 43 46 46 44 42 43 45 41 36 35 34 30 28 29 25 16 16 15 10 7
4 20 21 7 12 14 14 9 11 16 16 5 7 20 30 28 33 43 41 40 39 39 44 47 45 43 49 49 46 45 45 45 39 32 28 35 33 29 28 21 15 16 14 12
20 6 16 16 15 17 15 14 13 9 8 5 5 10 21 16 24 30 35 40 42 43 43 50 51 50 51 51 49 48 48 45 39 33 27 25 33 32 31 29 23 19 16 15
17 23 22 20 21 18 17 18 18 13 8 9 7 7 14 20 19 18 30 34 49 45 42 45 49 54 54 54 50 50 47 44 40 35 31 28 32 34 36 31 30 25 19 17
23 24 26 24 25 19 19 12 16 16 6 3 13 2 7 24 22 21 27 37 33 50 46 47 52 53 56 53 55 52 48 44 42 38 34 32 31 33 31 28 24 22 23 19
22 14 22 30 21 20 10 11 9 11 4 9 21 7 4 21 27 28 30 37 38 43 47 50 56 56 54 54 54 54 51 47 44 41 38 35 34 31 32 29 26 25 24 21
20 22 23 11 21 16 14 8 8 7 8 10 15 6 11 27 30 33 32 40 43 47 46 49 47 51 50 57 57 57 54 51 48 44 41 38 36 33 32 32 28 27 27 25
17 21 24 19 9 20 17 12 6 13 6 12 4 7 6 14 37 39 46 55 50 48 49 48 53 61 57 59 59 59 58 55 51 46 42 39 37 34 33 34 31 29 27 25
6 20 14 26 20 20 10 19 11 6 2 3 5 5 4 11 8 16 36 35 44 51 51 50 52 56 54 61 61 60 58 55 53 48 43 42 39 37 36 34 34 32 31 27
7 8 28 22 20 18 21 8 10 4 7 5 5 6 10 10 13 10 24 37 48 49 48 47 50 55 58 62 63 60 58 55 53 49 45 43 41 39 37 36 34 34 31 29
16 5 7 1 19 29 7 15 6 6 6 7 3 11 7 12 10 13 20 44 49 48 53 56 48 54 62 61 61 61 58 54 54 50 47 45 42 41 42 40 36 34 33 31
14 6 6 14 8 2 20 9 11 9 11 3 5 10 4 14 15 16 17 42 53 56 62 56 53 54 53 52 55 61 57 55 52 46 46 44 43 42 43 44 41 37 36 34
9 4 7 6 5 6 5 15 13 6 5 11 11 11 1 7 9 24 34 40 50 54 54 54 49 50 52 53 54 58 58 56 52 48 46 45 43 42 42 44 42 40 38 37
12 5 7 6 4 8 4 9 13 17 9 10 14 10 9 13 17 8 24 34 42 54 54 52 49 51 53 55 58 58 57 54 50 47 46 45 43 41 39 40 42 42 40 39
4 6 7 18 24 21 20 6 19 14 14 15 12 7 10 11 12 6 20 29 34 45 51 52 51 51 54 53 57 55 54 53 50 46 44 43 40 38 37 38 39 40 41 40
5 5 9 11 12 15 11 7 7 18 15 7 8 9 6 6 19 10 15 28 32 43 50 54 55 54 58 55 56 55 54 51 49 44 42 39 39 38 38 37 36 36 38 39
4 3 5 6 9 7 2 10 7 14 8 13 6 9 5 9 9 15 12 28 29 34 48 51 52 58 61 58 56 55 50 49 47 43 40 39 37 38 37 36 37 37 36 36
6 3 3 5 9 7 7 20 14 20 19 21 14 10 13 17 23 35 30 28 38 27 30 35 41 41 43 42 46 47 45 46 45 44 40 39 39 37 35 35 37 37 35 36
10 4 4 2 4 1 13 16 14 4 13 20 17 10 16 26 39 27 28 26 28 33 34 29 30 36 36 36 38 40 41 42 44 45 43 42 40 38 36 36 34 32 32 32
8 10 3 4 2 5 11 24 27 8 14 21 21 18 10 2 13 4 24 26 27 26 27 28 28 27 23 24 26 29 39 43 44 45 43 42 42 40 40 37 36 34 35 35
4 7 3 1 4 5 20 30 19 9 3 17 22 24 26 15 11 18 28 32 32 32 28 23 23 22 20 16 13 24 29 37 37 40 39 40 41 39 38 39 38 39 39 39
4 4 4 5 5 4 25 15 13 12 14 22 24 25 24 24 32 33 31 31 30 30 28 23 20 18 14 12 10 12 13 27 36 35 35 39 40 38 37 37 38 38 39 40
4 1 2 4 3 5 8 11 22 29 24 18 21 22 23 30 33 31 31 29 27 28 27 25 24 20 17 11 7 6 6 8 10 15 26 33 36 35 34 33 33 33 33 35
5 4 2 3 6 10 9 12 19 27 30 26 19 17 17 22 24 28 28 27 27 24 21 17 15 16 15 11 7 4 0 4 9 13 16 19 20 21 28 32 31 28 28 30
7 7 8 4 6 9 9 13 19 26 26 28 25 23 21 21 22 23 25 23 25 23 21 17 11 8 6 5 5 7 8 7 6 10 15 19 24 24 24 27 27 26 25 24
10 7 3 4 15 13 28 21 20 24 26 25 23 20 20 21 21 22 21 20 21 22 18 13 9 6 7 6 6 10 12 12 12 12 12 11 13 17 19 24 24 24 22 21

GFSCGP_850_spd_039.txt.gz
Wind_Speed
14 6 19 29 20 4 4 4 5 5 8 8 12 10 20 30 27 26 33 35 36 40 40 46 45 43 43 38 36 36 35 33 32 31 30 28 24 20 17 13 11 14 9 5
5 18 21 7 7 12 8 6 6 10 5 5 6 15 20 22 31 39 39 37 37 36 38 44 47 48 47 45 41 39 39 38 36 33 32 29 27 26 22 18 13 14 12 10
13 5 15 12 14 13 16 15 8 9 5 4 5 7 17 21 15 23 27 39 37 41 43 48 50 50 49 48 49 45 43 40 39 37 35 33 30 29 28 26 21 16 15 14
15 20 13 20 17 15 18 13 14 13 1 4 5 4 8 15 18 19 31 35 38 41 42 45 48 50 52 51 50 48 47 45 41 41 38 34 31 33 33 31 26 20 16 15
17 13 17 20 22 18 13 8 9 10 3 3 6 2 6 19 17 23 27 40 39 44 44 48 49 50 49 51 54 52 49 47 45 44 41 36 32 29 34 34 31 26 21 18
16 16 16 25 15 16 5 6 6 1 2 11 14 8 6 14 21 23 30 42 41 42 44 46 55 51 50 51 51 54 53 49 48 46 46 40 35 30 28 31 33 29 27 24
10 24 15 9 19 13 10 9 2 5 6 15 8 8 13 17 26 27 29 45 45 44 42 42 44 51 51 54 54 55 54 52 48 48 48 43 36 31 29 29 30 30 26 24
5 13 21 14 13 17 15 12 6 9 7 12 6 8 6 15 24 42 44 50 38 35 39 47 45 52 53 54 57 57 57 55 52 51 49 44 38 34 31 30 30 30 29 25
6 8 13 22 15 18 9 21 9 5 2 3 7 5 7 7 15 21 35 35 36 37 38 44 48 49 50 54 57 57 57 54 55 51 48 45 41 37 33 32 30 32 29 24
3 9 9 12 26 17 15 10 11 4 9 10 3 6 8 11 11 11 20 26 37 42 43 45 45 46 49 52 56 57 57 55 53 53 49 47 42 38 34 33 33 32 30 28
6 5 11 8 11 29 11 11 8 7 4 11 1 12 8 12 14 15 16 33 38 41 48 50 46 48 52 47 53 57 58 58 56 53 51 49 45 40 35 35 34 33 32 30
3 5 7 10 12 17 24 8 7 13 13 1 3 12 4 11 13 19 24 33 39 45 51 52 56 51 48 49 50 56 56 57 57 54 50 51 45 42 40 36 34 33 33 31
2 3 5 7 3 5 3 17 9 6 6 10 14 11 6 4 5 20 21 31 32 44 48 52 48 40 47 48 50 53 55 56 55 54 52 51 49 47 44 38 35 34 34 34
7 3 7 5 1 6 8 9 9 10 7 8 15 20 16 15 7 7 15 26 32 43 47 48 45 47 50 50 53 52 53 53 53 52 51 50 49 47 42 38 37 36 34 35
3 6 7 16 20 18 18 19 17 7 11 14 8 11 16 12 7 8 18 29 36 43 49 45 48 50 51 50 49 51 51 51 50 49 48 47 43 42 40 38 36 34 35 35
4 4 4 7 13 18 9 11 14 15 8 6 6 14 3 2 5 12 19 22 24 38 46 49 51 49 51 55 54 54 52 50 47 47 46 42 42 41 39 37 35 34 34 34
5 3 3 6 4 1 4 9 9 4 13 3 9 2 10 3 9 13 22 14 28 35 42 47 47 50 54 57 57 56 51 49 47 46 45 45 43 41 36 35 36 35 34 33
4 2 3 4 5 6 8 10 9 21 19 18 14 12 4 8 11 27 28 11 12 32 47 48 50 51 55 52 57 47 46 45 43 44 44 44 45 42 38 39 38 36 36 36
9 2 4 2 3 6 5 11 10 6 16 20 17 17 5 14 21 21 31 24 14 21 32 39 43 43 42 48 51 47 43 40 42 42 42 42 40 37 37 36 35 32 33 33
4 8 3 4 0 3 5 20 31 11 13 19 20 17 12 11 8 6 27 24 25 19 22 27 30 32 34 37 42 43 40 39 40 40 39 38 34 34 34 31 29 26 27 27
2 2 8 9 1 2 12 22 15 7 3 24 21 22 23 12 7 11 19 22 26 32 31 24 28 27 29 34 33 33 33 35 34 36 38 36 32 33 33 31 29 28 29 29
4 3 1 1 4 2 20 9 7 2 10 21 23 18 20 22 25 28 28 29 29 32 33 34 34 29 23 33 33 32 31 33 33 33 35 35 36 36 35 34 32 32 33 34
5 3 4 6 2 7 4 10 12 16 16 26 25 19 19 21 26 27 31 30 28 29 31 31 32 31 28 24 19 24 21 24 25 27 28 26 25 29 32 33 32 32 31 31
4 9 2 5 5 10 10 8 17 21 22 28 31 27 21 22 23 25 28 30 28 25 23 22 23 24 22 18 15 14 13 12 11 11 13 17 20 23 25 26 28 28 30 29
7 5 8 5 6 11 3 11 25 20 23 24 27 27 22 21 23 22 23 26 27 25 22 18 16 16 15 10 7 6 6 7 8 9 10 12 13 14 16 19 22 26 26 25
14 6 3 3 18 16 22 23 15 20 25 23 24 24 18 19 19 19 19 21 23 24 22 19 15 11 10 6 3 2 3 7 11 14 14 13 13 15 18 20 21 24 24 22

GFSCGP_850_spd_042.txt.gz
Wind_Speed
8 4 17 27 9 3 3 4 6 4 5 5 9 9 14 20 18 22 28 32 36 40 41 38 42 40 37 37 36 34 32 30 30 33 28 26 23 18 14 12 11 11 9 5
3 12 12 5 6 6 5 3 4 4 3 6 5 13 12 18 27 36 37 34 35 34 36 39 44 42 41 40 38 37 34 33 33 33 30 29 25 20 15 13 10 11 10 6
6 6 11 9 6 10 12 10 6 2 3 5 5 5 7 12 13 23 25 28 32 36 38 40 42 47 43 43 41 40 36 36 33 32 32 30 27 24 21 19 16 11 11 9
7 15 6 10 15 11 10 11 15 8 2 3 4 5 6 10 17 19 24 31 32 35 37 39 42 45 49 48 43 41 39 38 36 33 33 32 30 27 25 22 20 16 13 11
6 4 11 11 17 12 12 7 12 12 4 2 5 0 7 12 12 16 24 32 34 38 40 43 47 50 51 48 47 44 42 40 39 37 36 34 32 29 26 25 24 22 20 15
7 8 4 11 14 17 5 2 5 3 3 11 11 10 6 7 12 17 23 32 35 39 42 45 48 45 46 48 49 46 45 44 41 40 38 36 36 33 28 26 29 28 25 22
8 5 5 13 4 14 10 11 1 3 5 14 8 12 10 7 14 16 21 35 38 40 42 44 46 46 48 49 49 48 47 45 45 42 40 39 37 36 30 25 23 29 31 29
4 6 5 7 14 8 15 12 6 8 5 13 5 8 6 19 15 30 34 40 32 33 40 47 44 48 51 53 52 50 49 48 46 44 42 37 38 38 35 29 24 24 27 26
5 6 11 9 5 13 6 18 10 4 1 2 10 4 7 8 17 18 28 25 29 36 40 43 47 48 51 54 55 55 51 49 46 46 45 41 39 39 38 31 26 24 24 25
3 8 7 11 8 12 16 9 11 4 9 5 4 6 9 8 11 12 13 23 30 36 41 42 43 47 49 51 54 55 54 51 48 44 46 44 41 38 36 33 30 27 25 24
4 5 9 11 7 14 10 14 10 7 6 9 1 5 8 12 15 13 17 27 35 37 41 48 49 49 49 47 50 54 54 52 53 49 47 45 44 42 38 34 32 28 25 24
2 4 7 9 18 9 7 6 10 12 17 3 4 9 4 11 12 12 20 31 36 41 45 49 50 49 48 49 49 52 52 52 52 49 47 46 42 42 41 38 33 30 27 26
7 4 6 7 10 4 5 8 9 3 6 19 15 6 2 6 7 20 21 27 35 38 43 45 39 38 47 50 50 51 50 50 48 48 48 48 46 44 42 40 36 32 28 28
7 6 9 7 4 6 7 12 7 3 8 11 17 10 9 8 5 5 14 25 21 28 36 41 39 44 48 51 52 50 48 46 46 47 47 48 48 46 44 39 38 35 31 29
3 7 12 21 21 17 17 16 14 5 7 11 8 17 13 14 10 13 16 18 22 25 30 36 42 45 46 47 50 49 47 45 44 44 44 45 43 45 42 40 38 36 34 32
5 5 6 11 17 18 19 17 17 14 8 8 6 6 3 5 6 2 6 10 21 29 38 41 42 47 48 51 55 52 50 46 43 42 41 39 39 41 41 39 37 36 35 33
6 3 3 6 5 10 8 11 5 7 10 2 8 2 9 2 4 6 10 13 21 23 30 39 47 49 52 54 55 53 50 46 43 40 38 39 38 38 37 37 37 36 36 33
7 5 3 6 4 10 6 4 14 17 15 14 9 13 11 5 10 14 19 16 20 18 21 33 46 50 51 51 51 49 47 46 41 37 36 37 38 36 36 38 37 37 36 35
10 4 4 3 4 9 3 6 5 5 10 18 15 14 12 13 8 3 26 22 17 16 18 34 40 46 45 46 46 47 44 43 41 36 37 37 36 35 36 37 37 36 36 35
6 7 3 2 6 5 4 11 12 6 5 19 20 15 15 11 3 6 28 22 19 8 9 21 31 32 35 39 42 44 43 43 40 36 36 36 34 32 32 32 33 32 32 32
4 4 13 11 5 3 12 14 9 4 2 19 22 17 18 12 6 15 23 27 25 21 10 18 23 28 31 34 36 39 40 41 38 32 31 29 29 29 29 29 29 29 28 26
1 3 1 3 4 4 24 5 7 2 9 14 23 25 15 24 28 29 31 31 35 31 21 19 25 26 27 28 28 30 30 30 29 27 27 25 26 27 27 26 24 24 24 25
3 3 2 4 4 11 13 17 13 11 7 19 23 26 20 25 27 36 35 35 35 35 33 30 22 21 26 26 25 24 26 28 29 27 25 23 23 24 24 23 23 24 24 25
5 12 3 4 7 11 8 7 19 13 14 19 24 26 27 27 29 32 37 37 37 34 29 26 29 31 27 20 20 19 17 17 19 20 21 19 19 19 19 20 22 25 26 25
5 9 7 3 4 13 5 27 25 23 17 16 18 23 26 26 29 30 33 36 36 34 30 23 21 21 21 18 19 17 16 15 12 11 13 17 20 21 22 24 24 25 24 23
11 3 2 1 13 7 14 25 24 26 21 17 16 16 22 23 22 25 28 30 32 33 31 27 20 16 15 12 10 9 9 11 12 11 11 11 12 13 15 18 20 22 21 22

GFSCGP_850_spd_045.txt.gz
Wind_Speed
7 10 20 20 12 13 2 6 12 7 6 10 16 13 11 16 16 19 25 28 32 36 34 31 30 32 33 36 36 34 33 30 29 29 28 25 23 18 14 12 11 10 7 5
6 17 15 10 13 12 18 12 8 7 5 9 10 16 11 18 24 28 30 31 34 31 33 33 32 31 33 38 39 35 34 33 31 31 30 29 24 19 15 13 11 10 9 6
13 2 16 13 13 16 17 19 15 7 7 11 6 14 12 13 17 19 22 25 28 33 36 36 35 34 34 35 41 38 35 35 33 32 32 29 25 22 19 16 13 9 11 9
11 17 8 14 18 17 18 15 17 15 8 8 10 13 16 14 17 19 25 28 31 33 33 35 37 38 37 37 40 40 38 36 34 33 33 34 29 28 24 19 15 12 9 10
8 9 15 18 16 15 16 8 16 18 17 13 14 8 17 8 16 19 26 30 32 33 35 38 40 40 38 35 42 40 39 39 35 36 35 34 32 28 24 22 18 17 15 12
6 6 5 10 16 16 4 10 10 13 14 18 23 15 15 17 17 19 22 29 33 34 36 36 35 35 36 35 37 41 41 40 39 38 37 35 33 29 26 24 22 21 19 18
4 5 4 13 9 11 15 10 6 8 9 17 19 17 19 13 16 17 20 32 36 36 36 36 36 37 37 40 38 42 42 42 41 41 40 37 34 32 29 25 24 24 25 24
2 7 1 8 15 12 16 18 8 13 10 13 16 14 15 23 25 20 22 27 27 32 35 37 38 39 41 44 46 45 45 44 45 44 43 41 37 35 32 30 28 23 23 25
2 6 6 9 9 8 16 19 20 15 4 10 14 18 12 13 18 28 22 18 27 33 37 39 39 40 43 44 46 46 44 43 46 47 46 43 41 39 36 31 29 27 22 20
3 7 2 8 9 14 13 13 17 13 18 19 7 19 12 22 17 19 22 21 25 29 32 34 38 42 45 48 48 46 44 44 45 45 45 44 42 39 36 33 30 29 25 19
4 4 2 8 4 10 14 14 16 18 19 11 16 9 11 19 21 19 19 30 28 29 32 34 40 46 49 45 48 50 48 46 45 45 45 45 42 39 37 35 31 30 27 22
4 3 5 13 17 22 17 11 22 14 23 19 16 13 4 14 21 25 27 26 31 31 33 36 37 37 40 47 49 51 52 51 48 45 45 45 43 38 38 37 34 31 29 26
7 3 5 11 11 18 11 17 17 24 21 23 17 14 14 8 9 15 21 26 21 28 30 31 29 35 42 46 50 50 48 51 50 48 47 46 45 43 39 36 35 33 30 29
7 4 7 12 17 11 10 12 16 20 21 21 21 21 22 14 8 10 11 15 15 19 24 25 27 35 42 44 49 51 50 44 46 47 46 47 47 44 40 36 34 32 31 31
7 7 8 14 20 24 26 26 26 20 23 22 22 22 24 22 23 21 18 13 7 11 16 25 33 38 41 42 45 48 47 47 44 45 45 45 44 44 42 41 37 32 31 32
8 6 9 18 23 23 28 29 26 23 24 19 17 15 2 11 19 17 14 12 15 16 16 18 28 36 40 44 48 46 50 47 45 44 42 41 41 42 41 41 39 37 33 33
9 5 7 21 17 17 22 30 25 21 17 21 22 15 7 4 3 1 5 10 15 17 18 20 25 34 40 43 48 48 47 46 44 42 39 38 37 38 38 37 38 37 35 34
9 11 7 14 15 11 9 8 26 12 7 2 8 3 7 9 6 7 7 11 17 20 22 24 27 33 42 42 41 41 42 47 44 42 39 35 34 34 34 36 37 36 35 36
18 8 6 5 7 12 11 5 23 16 8 10 6 5 2 6 8 6 13 12 17 21 26 28 30 35 38 41 43 44 43 44 43 43 40 37 36 34 35 36 35 35 35 36
18 13 7 4 7 5 5 4 6 8 6 12 10 11 6 5 8 2 16 17 15 15 16 20 24 26 35 40 43 44 45 43 42 43 39 35 33 32 31 30 32 32 32 33
9 5 13 13 8 9 11 11 8 6 4 9 10 13 19 8 4 9 14 17 13 13 15 6 19 27 35 41 43 43 42 40 39 39 38 35 32 33 30 29 30 31 32 32
6 6 7 8 6 9 23 5 4 6 8 6 12 18 16 18 15 20 28 30 27 24 19 11 16 25 29 31 33 36 38 36 36 35 32 30 29 30 30 31 31 31 31 32
2 3 2 2 1 16 8 19 14 10 9 13 16 19 15 17 26 35 37 35 35 35 30 22 17 20 23 28 29 30 30 32 29 27 28 27 26 28 29 28 29 29 29 29
2 6 2 3 4 13 10 16 16 14 12 12 15 19 21 19 23 27 39 43 40 37 36 28 26 24 19 16 19 19 22 25 26 28 28 26 25 25 25 26 26 28 29 29
5 8 6 4 8 17 17 20 20 18 14 14 13 16 23 26 23 22 30 39 38 39 38 34 31 29 25 21 17 13 13 17 17 23 25 26 26 26 27 26 26 26 27 25
13 6 5 3 17 9 13 24 18 19 18 15 16 14 16 20 20 22 26 29 33 35 37 36 32 28 23 19 16 13 12 12 14 14 17 20 23 26 28 28 26 26 26 23

GFSCGP_850_spd_048.txt.gz
Wind_Speed
17 15 19 19 18 16 8 12 16 14 13 14 18 14 14 16 17 19 21 26 29 33 34 34 32 32 29 28 26 26 25 23 23 22 20 18 16 14 11 9 11 8 6 6
11 19 18 15 14 15 16 11 13 9 8 11 18 19 15 16 18 21 22 24 27 29 33 35 34 34 33 31 29 28 28 25 27 23 21 18 16 14 11 9 12 11 8 5
17 5 19 14 15 17 18 18 14 11 4 14 14 16 17 17 17 19 20 22 26 30 34 36 36 36 35 33 32 30 32 31 31 24 23 21 17 14 14 12 11 11 10 8
17 15 6 17 18 17 18 17 14 15 12 12 20 14 21 18 18 18 22 25 28 31 33 35 37 37 37 35 32 31 31 34 34 33 25 26 21 18 16 14 12 10 11 10
11 13 19 18 13 20 16 12 13 14 17 16 15 12 17 24 19 19 22 26 28 31 34 36 39 38 36 35 34 33 31 35 35 36 29 28 26 19 16 15 14 13 12 10
16 1 7 20 19 11 4 15 13 14 14 18 23 18 18 20 22 21 24 26 28 31 34 35 35 35 36 35 35 33 35 38 39 38 38 33 28 25 20 19 17 14 13 13
13 15 13 12 13 21 17 13 9 12 14 20 20 20 19 13 19 19 19 26 28 30 32 34 36 38 37 38 38 37 37 42 42 40 38 37 33 30 24 20 19 16 16 14
10 13 15 1 17 13 23 21 12 20 14 20 20 21 22 26 21 15 22 20 26 28 31 34 37 38 39 40 39 38 38 40 43 44 42 38 37 29 27 25 19 18 17 16
7 10 3 3 4 9 18 22 25 23 16 13 17 18 18 22 24 29 17 25 22 27 31 35 36 38 38 39 43 44 43 44 41 40 44 41 39 37 28 27 24 22 19 16
3 7 4 2 9 17 18 16 18 17 23 23 17 19 16 21 21 23 24 27 23 24 28 31 35 38 38 39 40 40 38 40 43 39 41 40 41 41 38 29 30 24 21 21
2 3 8 3 11 17 16 19 15 16 19 18 19 16 13 16 22 22 24 30 31 24 28 32 35 38 40 38 38 41 40 37 38 43 41 42 39 40 41 35 35 32 28 25
1 4 8 12 10 11 11 15 18 17 24 20 19 10 15 5 14 24 30 25 31 29 28 30 33 34 36 39 39 40 41 39 38 43 47 46 45 42 35 39 36 34 31 28
4 4 6 8 17 16 12 20 15 16 21 23 20 19 17 12 5 13 22 31 26 28 29 30 28 31 36 40 42 42 41 41 39 38 41 41 40 40 41 40 37 35 32 29
3 11 12 12 14 11 10 12 14 17 17 20 23 21 17 22 16 9 13 16 23 30 22 26 28 30 33 37 42 45 43 41 39 38 39 41 45 43 42 42 39 36 33 30
8 10 14 17 16 16 18 19 19 20 18 22 21 24 25 19 21 17 10 7 4 10 19 22 25 29 32 36 39 43 41 40 40 43 41 43 47 47 45 42 40 37 34 32
15 13 13 17 16 18 23 23 26 25 25 25 24 29 29 32 27 31 29 22 13 12 8 12 21 25 28 33 40 41 46 44 44 46 49 46 48 47 46 45 43 40 36 35
15 10 12 18 18 20 23 21 27 30 27 27 25 25 27 14 14 22 21 19 14 13 12 13 16 20 26 31 36 42 46 45 45 47 47 47 49 49 47 45 43 42 40 37
14 14 11 14 16 19 22 25 27 31 30 28 26 27 32 10 10 5 5 8 10 10 12 14 16 19 25 27 30 33 33 42 45 45 48 47 49 48 47 47 46 44 41 41
20 12 7 10 12 17 27 24 22 30 30 24 30 30 42 22 16 13 4 5 9 13 17 19 19 23 22 25 30 32 33 36 42 47 48 47 46 45 45 46 45 43 41 40
23 19 11 10 10 15 8 18 40 36 18 18 14 17 23 22 16 9 7 9 12 14 17 21 20 23 26 28 30 34 36 38 45 48 45 45 44 43 43 43 43 42 41 41
14 15 15 15 13 13 14 20 33 9 10 14 6 6 12 17 1 6 8 8 9 14 18 19 20 25 30 29 33 40 39 43 44 36 34 38 41 41 40 39 37 37 39 36
7 6 7 9 9 15 8 17 6 4 13 9 4 10 15 13 12 13 13 13 10 10 11 10 10 14 19 27 37 39 44 37 34 35 36 38 39 36 33 36 35 35 36 37
2 4 2 5 4 4 17 25 16 10 6 4 10 14 16 16 18 18 22 24 19 18 17 8 2 10 14 21 30 31 30 28 28 29 34 34 34 35 33 35 34 32 33 29
2 8 4 3 6 11 12 15 17 5 5 8 11 15 15 18 17 18 23 27 27 25 24 19 13 15 14 16 19 21 23 27 26 26 27 25 26 28 29 27 28 28 28 29
3 8 6 5 6 16 8 17 15 12 10 11 11 15 16 15 18 19 24 26 29 29 30 28 25 22 21 20 18 19 16 23 23 24 22 21 21 22 21 21 23 24 23 25
12 5 4 2 16 6 13 18 16 10 14 13 14 16 17 19 21 21 23 24 26 28 30 30 30 29 22 21 20 15 18 15 19 21 21 20 19 17 18 20 22 24 26 28

GFSCGP_850_spd_054.txt.gz
Wind_Speed
22 13 16 20 21 20 21 19 19 17 17 20 14 12 5 15 13 20 32 33 36 40 34 33 32 30 29 30 28 25 25 26 24 20 20 16 15 13 14 10 8 7 5 6
13 20 20 19 19 20 21 20 19 14 17 19 20 17 18 10 20 31 32 34 36 38 41 36 34 34 32 32 32 31 28 27 26 20 20 17 14 12 12 14 12 6 6 7
21 14 22 21 19 19 19 19 17 19 14 12 13 19 17 16 22 24 34 34 35 39 42 41 38 36 34 35 34 34 32 27 27 23 23 19 18 16 11 15 14 9 8 5
21 22 19 20 22 19 19 16 18 19 17 12 16 15 26 21 21 5 36 34 35 37 39 41 40 39 38 38 36 34 36 29 30 26 24 25 20 16 17 18 15 10 10 8
18 22 21 21 18 21 18 17 14 17 18 18 18 15 17 29 18 17 36 33 35 38 42 43 44 42 40 39 40 36 35 35 31 33 26 26 23 20 15 15 18 15 12 12
16 22 17 20 18 17 18 14 19 16 15 16 21 19 16 15 20 14 17 32 23 39 41 45 45 43 40 38 41 38 37 39 37 35 32 30 29 22 17 16 19 15 10 12
15 19 17 14 17 21 17 15 12 13 13 17 20 18 16 20 26 34 19 23 60 42 41 44 45 45 43 43 43 43 41 39 41 38 37 34 31 27 23 19 18 14 16 13
12 14 20 15 17 14 19 18 14 18 14 18 20 20 18 24 19 46 52 46 21 42 43 43 48 48 50 49 47 46 46 42 41 43 41 38 35 32 29 19 23 17 17 20
11 17 5 23 17 18 21 20 22 23 20 17 17 18 24 21 21 14 21 30 38 19 25 42 43 46 48 47 49 48 48 45 43 43 44 44 40 36 34 30 23 22 21 15
10 15 16 9 5 9 14 14 14 15 22 23 18 20 14 20 18 14 14 19 25 27 27 26 40 42 44 48 46 46 44 47 45 43 46 45 46 43 36 35 27 25 21 19
13 12 19 9 9 14 13 16 14 14 13 19 16 16 17 13 22 19 20 27 34 50 42 13 17 38 43 44 44 47 45 44 46 44 44 47 46 45 42 35 33 30 28 23
9 9 13 19 13 14 16 20 18 13 17 15 14 17 22 17 14 17 19 19 38 37 38 41 37 34 46 46 46 46 47 45 47 47 43 46 46 44 44 44 38 36 32 31
9 7 9 16 15 18 13 17 18 19 18 22 15 14 22 15 15 10 15 18 11 43 48 46 32 59 51 49 46 45 46 48 43 43 44 42 44 45 45 44 46 38 38 35
7 10 14 13 10 14 11 16 18 19 15 15 20 23 20 13 19 24 25 23 12 14 49 45 45 34 44 47 46 44 44 44 44 41 42 44 46 46 47 44 43 45 40 39
6 14 17 20 22 18 18 18 21 24 23 21 18 23 22 18 17 21 28 30 31 19 19 22 24 32 59 48 46 45 41 44 42 43 43 46 46 47 45 45 43 42 47 43
12 15 17 21 21 21 23 20 20 20 17 22 20 25 24 17 13 23 24 28 35 39 30 10 12 27 41 46 48 48 46 43 44 44 47 43 45 45 45 45 43 43 42 44
14 11 12 20 19 20 23 20 20 19 19 15 17 23 21 18 15 23 28 29 33 41 49 15 11 11 18 30 47 49 50 46 45 44 43 44 43 46 46 44 45 43 44 43
15 13 7 12 15 13 16 19 23 23 23 20 21 23 24 22 26 31 32 30 35 39 44 17 12 13 6 24 23 37 42 44 44 46 43 44 44 46 47 46 45 46 45 45
18 13 7 9 12 17 22 16 18 13 19 19 12 16 29 28 28 35 34 28 33 36 39 18 11 13 15 15 6 27 34 41 44 44 49 46 49 48 48 48 47 48 46 46
15 16 12 12 13 17 22 21 9 10 14 15 19 19 25 31 15 17 33 31 31 24 18 15 13 13 17 22 20 18 28 35 45 49 48 48 48 49 50 49 47 47 47 47
8 8 13 12 15 13 18 20 4 10 15 17 19 22 25 18 28 47 47 43 20 13 30 18 17 15 18 23 26 27 24 34 42 45 44 43 45 50 47 46 45 45 46 44
5 6 3 8 10 14 20 15 9 11 17 16 23 28 30 37 45 54 49 30 16 11 16 15 16 16 17 25 28 34 37 28 38 39 43 41 46 44 44 44 44 43 43 42
2 4 4 4 5 17 22 16 23 22 24 34 27 34 33 37 46 55 22 12 10 11 15 16 13 11 14 18 22 32 41 42 26 40 41 43 43 45 41 43 42 42 42 41
6 8 3 6 4 19 27 31 26 27 30 34 33 33 34 33 47 11 7 4 6 8 11 11 10 14 21 23 14 27 30 40 38 37 43 42 42 42 43 40 42 43 42 42
2 6 5 7 16 18 12 17 24 25 24 30 33 28 26 30 9 10 9 3 1 5 2 4 5 9 14 16 17 19 27 30 34 36 43 43 41 41 41 42 38 40 39 40
4 3 2 4 17 15 18 22 18 35 22 23 17 19 20 18 9 14 13 13 12 10 7 4 5 4 4 10 12 14 20 23 33 38 38 40 39 38 39 41 37 36 36 36

GFSCGP_850_spd_057.txt.gz
Wind_Speed
15 4 9 10 10 12 16 15 13 11 16 17 18 20 21 30 36 30 27 30 39 39 38 32 37 39 38 35 32 28 26 23 29 24 27 23 16 14 15 14 8 6 6 5
6 13 11 10 15 16 19 16 16 15 13 8 20 18 16 23 28 31 26 39 45 36 36 35 38 39 40 37 35 30 31 28 27 24 27 21 18 15 12 13 11 12 6 6
11 11 19 16 16 17 16 11 12 11 16 8 12 5 6 12 21 27 4 13 31 46 38 32 38 41 41 39 36 33 33 31 27 25 28 22 17 17 18 15 13 14 9 4
10 18 17 17 17 13 10 10 12 13 8 2 5 3 7 7 6 12 19 6 13 32 47 37 40 39 45 42 38 35 35 33 29 27 31 26 24 21 18 17 14 11 12 7
10 14 16 18 15 17 13 10 10 10 7 7 13 1 7 15 7 9 16 21 37 23 47 47 47 44 42 43 41 37 39 37 33 29 33 30 27 21 21 16 13 14 12 13
11 22 11 14 16 11 12 10 11 6 4 7 11 4 1 13 18 16 29 44 53 38 42 52 48 43 40 44 43 41 38 42 38 33 33 34 31 27 21 19 18 19 15 10
9 12 10 13 9 11 7 2 3 3 5 8 7 5 8 16 19 24 30 37 36 38 37 47 46 45 42 45 47 45 42 41 42 37 36 36 34 31 24 22 19 20 17 13
5 7 11 7 6 4 7 9 5 8 6 7 8 6 7 11 34 40 43 35 48 43 28 42 49 47 46 46 49 49 47 43 43 42 40 36 38 34 30 23 20 19 13 12
6 6 16 12 14 8 6 5 9 5 12 4 6 8 10 12 11 32 31 29 27 28 21 14 37 50 50 47 50 52 50 46 43 44 42 42 37 38 36 30 26 24 18 14
7 6 7 13 5 8 8 4 5 4 6 6 6 9 5 6 18 24 22 34 31 37 30 21 20 27 45 49 46 49 49 48 43 43 45 46 43 38 38 35 30 30 27 24
5 2 11 9 4 3 1 2 1 0 1 4 6 8 8 3 18 23 30 42 41 42 42 33 13 28 31 46 45 48 51 49 47 44 43 46 48 44 39 39 36 31 29 28
8 2 6 10 18 15 11 3 0 3 7 3 3 8 11 12 18 6 17 36 46 47 46 42 27 38 38 40 49 51 51 52 50 47 45 44 47 49 45 42 41 37 32 29
7 4 5 10 6 5 6 6 6 4 4 10 5 8 4 15 17 23 21 26 27 34 45 48 29 43 54 43 46 49 52 52 50 49 47 46 45 48 51 47 44 42 39 34
8 3 3 6 7 9 12 19 17 5 2 5 6 8 9 11 12 19 24 35 29 18 30 37 38 48 56 50 42 47 49 49 48 49 50 49 47 47 48 49 47 45 41 38
4 4 7 12 13 14 16 18 19 13 9 4 11 14 4 10 11 20 23 24 23 23 15 12 17 31 32 53 46 39 49 52 49 48 51 52 47 45 44 46 46 46 46 43
3 4 7 13 12 17 17 17 20 19 16 15 13 16 6 20 25 23 27 27 21 22 16 18 27 32 47 47 52 38 40 51 54 51 52 49 46 43 44 44 44 43 46 47
1 3 5 7 8 13 12 12 16 18 18 11 12 10 10 9 14 18 25 28 32 33 32 32 34 20 43 41 24 40 47 47 53 54 52 50 46 44 43 44 43 44 43 44
7 5 5 4 5 3 9 8 14 18 17 18 19 13 11 10 22 27 23 26 30 34 40 26 23 5 27 33 24 28 30 38 52 57 56 53 50 46 43 42 44 43 43 42
8 4 4 3 4 9 14 12 10 7 10 10 8 12 27 23 21 17 18 21 28 30 38 36 23 14 19 4 18 26 27 20 34 44 56 55 52 48 46 43 41 42 42 43
10 4 2 2 4 6 6 6 19 5 9 12 17 14 21 25 7 5 30 36 37 39 40 39 37 37 29 18 7 11 43 55 41 40 54 53 52 49 48 44 42 40 40 41
5 4 3 7 6 6 12 25 15 3 5 29 26 17 23 9 11 26 29 42 42 44 42 35 33 35 40 28 17 10 12 34 39 48 44 55 53 51 48 45 43 41 40 40
4 5 3 5 3 5 30 17 6 14 33 24 32 29 29 31 38 34 27 40 45 45 40 35 31 36 27 22 22 15 23 26 24 24 42 52 53 50 48 47 46 44 42 42
1 2 3 3 5 21 16 15 24 21 27 33 30 33 31 34 46 47 42 43 41 43 35 35 32 41 26 26 25 27 27 19 12 23 23 49 44 45 46 47 48 46 45 44
2 2 2 5 3 15 24 20 20 25 29 36 40 36 30 30 38 48 45 35 31 29 25 26 36 34 30 26 25 26 27 28 25 23 30 29 47 42 43 45 46 47 47 46
3 5 3 5 13 22 9 28 25 27 25 29 37 34 37 31 33 34 34 32 25 25 19 19 22 25 23 25 23 25 28 28 30 31 28 32 40 47 44 46 46 47 48 48
5 4 2 3 15 14 19 26 25 25 29 28 37 19 22 18 18 25 35 23 21 16 17 19 17 15 19 20 21 22 23 26 30 33 31 35 36 47 47 47 47 45 46 45

GFSCGP_850_spd_060.txt.gz
Wind_Speed
7 3 6 9 6 6 3 4 9 16 13 6 10 15 20 23 21 27 29 31 36 30 37 40 23 27 41 38 34 30 27 31 28 26 22 23 20 19 15 12 10 8 11 9
3 5 8 5 6 7 5 7 14 15 8 6 14 18 18 24 22 26 28 28 33 33 36 39 27 30 43 40 35 31 25 26 31 27 24 27 23 17 15 14 12 9 9 8
6 7 9 9 8 8 8 7 12 12 3 8 8 6 13 10 15 20 22 26 25 31 37 36 30 42 48 42 38 33 27 26 29 29 28 25 23 19 19 18 15 13 10 11
6 16 11 9 11 6 7 7 14 11 2 3 5 3 6 11 10 11 22 34 35 33 34 40 33 44 48 43 38 34 31 29 27 32 28 30 26 26 23 18 17 13 13 10
6 5 8 11 13 7 13 13 11 2 1 4 2 4 5 15 15 16 29 34 43 39 40 45 39 48 49 45 42 38 34 31 28 28 31 32 27 25 21 20 15 14 14 11
7 11 3 7 12 10 12 6 5 5 3 2 5 6 5 15 23 23 27 35 34 46 48 41 41 46 48 47 44 41 37 34 30 31 31 35 30 26 23 22 20 17 16 17
5 5 4 4 3 5 5 6 3 4 2 5 3 3 7 24 19 26 33 44 44 35 43 41 37 45 49 51 48 44 40 36 32 35 33 37 34 29 23 25 21 20 21 18
3 6 4 7 2 5 3 9 6 6 2 4 3 4 5 14 28 40 52 43 36 37 40 43 43 46 51 50 50 47 44 40 35 36 36 37 37 33 29 23 25 23 22 17
2 4 6 3 4 3 3 2 7 6 1 4 4 7 5 12 5 19 30 33 40 44 42 44 47 48 50 51 50 50 47 44 39 36 39 38 39 38 35 28 26 25 23 14
2 3 3 6 10 9 1 3 3 4 4 4 5 5 4 12 15 6 14 31 35 36 44 39 50 51 52 54 51 50 48 46 42 39 37 41 40 41 40 34 29 27 25 21
6 4 7 5 5 3 7 6 5 5 5 5 3 4 2 9 14 15 18 35 31 36 47 39 47 48 48 47 49 50 50 49 46 44 40 39 43 42 43 41 37 30 29 25
4 3 3 6 5 4 5 8 7 4 1 3 4 4 2 11 17 26 24 13 18 22 24 33 39 48 45 45 43 45 50 50 47 44 44 42 41 45 44 44 43 38 32 30
5 4 5 13 6 8 6 8 7 4 3 3 5 4 8 17 19 25 30 10 24 25 32 34 35 21 18 30 49 47 46 49 49 47 45 45 43 44 48 46 45 43 38 34
7 3 4 4 4 4 7 14 9 5 3 3 2 4 9 11 12 20 32 35 7 11 13 20 24 17 11 14 25 34 44 47 49 49 48 46 45 44 44 48 48 46 44 40
4 2 4 2 4 5 8 14 11 5 4 3 6 6 3 3 7 16 26 25 23 16 3 1 14 24 28 25 23 27 31 41 48 48 50 49 47 44 43 43 47 50 48 47
5 3 5 7 8 9 8 10 12 9 5 5 7 5 5 8 20 18 16 24 25 22 11 19 26 20 32 31 35 32 30 28 42 46 49 49 48 47 46 43 43 46 50 52
0 2 3 3 7 8 7 4 5 8 3 0 4 6 5 8 13 14 18 21 18 20 23 28 29 26 34 17 8 29 34 31 36 43 47 47 47 46 46 44 42 44 45 48
4 5 3 3 4 3 6 7 9 11 3 6 2 7 11 11 11 17 17 17 19 22 25 28 31 27 28 22 12 12 9 28 36 36 39 44 47 45 44 42 41 43 44 46
6 4 2 3 4 7 13 7 7 7 6 12 10 14 13 19 15 9 14 21 23 25 28 29 29 28 28 27 27 19 16 21 25 43 42 34 42 45 48 44 40 40 42 43
7 5 4 2 3 5 1 14 23 17 4 17 17 19 20 18 4 3 24 26 23 25 29 33 30 27 17 20 24 20 15 19 30 36 43 39 32 40 52 49 45 41 41 41
4 4 3 3 4 4 8 21 21 4 4 24 20 23 28 8 11 27 32 38 28 26 28 33 33 25 22 17 17 18 20 22 21 27 36 38 36 32 49 53 52 45 43 42
1 2 1 3 3 5 17 7 2 13 22 20 27 24 31 33 31 30 28 30 39 39 33 32 34 24 22 22 20 21 21 23 22 18 23 25 31 35 41 52 56 53 48 45
3 4 3 6 5 10 12 13 20 15 23 24 27 28 27 33 38 43 47 42 39 42 38 37 36 30 23 23 22 23 25 20 18 19 24 37 40 42 50 49 56 57 52 50
3 5 3 1 5 6 20 11 17 22 26 26 26 30 30 37 35 38 39 43 40 38 35 37 34 33 31 26 24 22 23 23 17 33 26 31 35 37 50 53 57 56 54 54
4 3 5 6 13 12 9 15 19 22 26 27 29 25 26 30 24 28 33 38 38 33 28 31 32 31 35 30 30 24 24 24 24 29 33 28 29 35 39 47 54 54 55 52
11 6 5 5 9 7 16 16 19 20 27 22 24 23 21 21 19 19 26 30 36 34 24 28 27 27 31 32 31 30 28 23 25 26 30 28 26 31 32 36 49 50 52 51

GFSCGP_850_spd_063.txt.gz
Wind_Speed
8 4 6 7 8 7 3 3 4 2 6 6 12 8 17 22 20 23 28 31 33 35 37 32 33 29 31 32 34 32 28 26 25 22 23 21 15 15 14 11 9 6 6 8
5 4 8 5 4 5 5 4 4 7 5 4 4 6 8 14 15 19 21 24 28 29 34 34 32 26 29 34 38 35 30 29 28 24 24 20 17 16 11 11 9 6 7 6
5 4 6 5 3 3 3 6 3 6 5 2 5 2 5 3 4 14 20 25 25 31 33 33 33 31 29 38 42 36 32 28 29 29 26 21 19 18 15 15 11 10 9 7
4 7 6 5 5 6 6 5 5 5 1 3 3 3 7 6 6 9 20 28 33 37 36 34 37 36 32 37 45 38 34 28 25 30 29 25 26 23 18 14 12 10 10 10
5 2 5 6 8 6 10 6 7 4 4 2 2 3 5 8 11 20 22 31 32 36 40 41 38 39 35 32 46 42 37 30 26 26 29 27 26 26 20 16 15 12 12 11
5 3 5 7 6 10 3 1 4 4 4 1 6 5 3 8 17 14 18 28 32 30 32 31 32 35 35 38 48 45 40 33 27 24 28 28 29 26 24 19 19 17 13 13
2 3 2 2 2 3 5 6 2 2 2 5 2 4 8 13 13 19 24 33 34 37 33 35 32 40 41 44 51 49 44 37 32 28 27 30 29 30 26 22 20 21 18 15
3 1 2 4 1 5 5 9 6 5 5 4 1 5 2 8 18 19 25 34 33 33 39 36 40 43 47 46 53 52 47 41 37 32 28 29 30 31 28 25 21 22 20 17
2 3 5 1 2 2 3 3 5 8 2 3 2 5 3 13 12 14 23 24 30 34 39 44 42 44 48 47 54 53 48 45 40 34 28 30 31 35 32 28 21 22 22 19
1 2 2 4 6 8 5 3 2 3 6 4 2 4 3 13 15 15 7 25 32 31 34 41 42 45 47 49 51 53 50 47 42 37 33 27 32 35 36 31 28 22 22 22
3 3 6 2 6 5 7 6 4 3 3 6 4 1 5 6 8 10 11 20 26 26 31 33 44 36 45 47 50 53 52 50 47 42 36 32 29 33 36 35 33 29 23 22
3 4 3 4 6 11 16 4 4 4 5 3 3 2 7 7 10 17 19 7 22 23 28 27 32 29 28 38 45 50 52 51 50 45 41 37 31 29 34 37 38 35 30 26
4 4 3 4 6 8 7 7 5 2 2 2 2 3 7 11 14 23 24 30 18 11 12 11 19 20 17 20 33 41 46 49 50 49 46 42 39 34 32 35 39 40 37 33
5 4 5 4 3 3 3 5 5 5 4 5 2 6 8 11 9 19 24 30 28 26 19 14 16 11 4 8 10 22 34 43 47 49 48 47 44 40 34 32 36 40 42 40
5 4 2 3 2 2 1 4 5 4 2 1 3 4 7 8 8 16 22 25 32 29 31 23 8 19 17 19 12 18 24 33 37 43 46 48 47 43 38 36 33 35 42 42
6 1 3 5 5 4 3 4 5 7 5 6 6 1 6 12 17 22 21 23 26 26 28 28 25 12 23 25 17 14 27 31 30 34 39 42 42 46 43 38 38 36 35 41
3 3 3 4 6 7 5 6 5 2 1 3 4 4 12 10 18 16 19 21 23 25 26 26 25 22 19 23 20 13 8 24 36 27 30 34 38 44 43 40 40 39 38 37
3 3 2 1 5 2 4 7 8 1 7 8 6 9 12 13 20 7 11 20 25 26 27 27 26 22 15 14 19 16 6 4 24 28 27 30 34 40 40 40 40 39 37 38
3 4 2 3 2 5 2 5 5 4 2 7 6 10 13 26 24 14 14 21 27 27 27 28 26 24 23 16 20 20 11 3 4 16 24 27 34 38 39 40 41 38 35 35
4 5 4 2 3 4 0 5 13 3 5 7 14 9 9 8 5 7 21 31 34 31 29 29 29 28 25 23 18 19 19 10 9 10 18 20 33 39 39 38 37 38 34 34
4 3 3 3 3 3 3 14 11 5 2 14 12 19 17 10 11 32 38 38 35 36 35 32 30 31 27 26 25 20 18 20 15 10 11 20 20 30 36 36 37 34 31 32
3 3 2 2 1 6 7 5 1 8 17 16 23 23 22 22 19 24 35 39 38 37 36 34 34 32 32 28 29 27 23 19 21 16 8 7 14 25 27 29 30 31 29 35
3 5 4 7 5 3 1 4 7 8 14 20 24 24 24 29 24 23 34 33 32 33 35 33 35 35 36 32 28 33 29 26 23 19 17 17 14 16 26 28 30 31 33 35
3 4 2 3 4 6 9 11 7 11 17 22 27 26 24 30 27 27 27 24 24 25 32 32 30 35 36 37 31 31 36 31 27 25 24 20 22 17 16 22 23 25 34 38
5 7 5 4 15 20 17 11 11 15 17 22 27 24 24 23 28 26 24 21 22 26 31 33 31 33 36 34 35 31 36 36 34 28 27 24 25 21 17 18 20 25 29 35
12 6 5 6 11 8 10 8 11 17 15 20 25 29 23 23 26 27 24 24 25 26 26 33 34 32 35 33 32 32 34 37 38 34 31 27 26 24 19 17 24 24 27 32

GFSCGP_850_spd_066.txt.gz
Wind_Speed
5 4 7 6 7 4 2 3 1 3 3 2 5 7 10 16 15 17 24 25 29 35 36 33 34 31 30 29 28 26 26 23 23 24 22 19 15 13 12 9 6 5 4 7
4 5 6 7 5 4 4 2 2 4 3 4 1 5 5 13 15 20 25 29 26 28 34 36 34 35 33 31 29 28 26 25 26 26 20 18 16 14 12 10 8 6 6 6
6 5 9 6 5 5 2 3 2 3 5 2 2 1 3 4 4 14 20 27 27 31 34 41 37 37 33 32 32 31 29 28 27 24 20 21 19 14 14 11 10 7 6 4
4 3 8 5 4 5 1 6 4 2 2 2 1 3 3 4 6 5 18 25 31 33 34 39 40 40 37 31 32 34 33 30 28 26 24 24 21 19 16 10 8 8 7 5
6 6 5 3 5 6 6 7 6 4 3 2 3 3 4 3 7 14 17 26 35 36 36 35 41 39 37 33 26 33 36 32 31 30 29 26 23 18 15 11 11 9 8 6
5 2 5 9 6 8 5 5 7 5 3 2 5 5 5 2 6 4 22 25 31 35 36 32 36 38 38 35 32 32 39 35 34 31 31 30 26 21 20 17 14 12 10 9
1 2 2 3 3 2 5 6 1 2 2 5 1 4 4 8 8 12 13 28 28 34 37 37 36 39 40 39 36 31 40 39 36 33 31 28 29 24 22 20 18 15 13 11
5 1 3 4 2 6 6 8 5 5 5 4 1 4 4 4 14 20 6 23 28 31 32 37 38 36 43 42 40 36 39 43 39 36 31 27 28 26 24 23 21 19 16 12
4 0 4 5 4 2 4 3 3 7 2 3 2 5 4 18 16 26 23 11 26 34 41 38 37 40 39 43 43 41 37 43 44 37 32 28 26 29 26 26 24 20 17 15
1 4 4 5 4 9 5 1 2 3 4 3 3 3 4 14 17 20 23 20 16 29 35 39 37 36 39 40 42 41 38 39 47 40 35 30 26 27 27 27 26 23 18 17
2 3 4 5 7 5 6 5 5 4 3 6 4 3 5 7 10 15 21 24 9 19 26 29 35 31 36 39 41 41 42 39 48 46 38 35 31 27 28 30 29 26 22 19
5 4 5 2 4 5 5 3 3 4 3 2 4 2 5 8 14 19 25 26 25 12 9 13 22 25 22 32 35 37 41 41 45 47 43 39 33 31 30 30 31 30 28 23
2 4 4 3 5 5 6 4 3 4 2 2 4 4 6 16 20 24 27 30 31 29 25 16 11 14 17 17 26 30 35 39 42 47 47 44 40 36 33 31 31 32 32 30
6 3 3 6 4 3 4 4 3 5 4 1 2 2 6 10 11 20 25 26 29 31 26 26 22 19 14 9 14 20 26 33 36 39 44 46 45 42 38 34 31 32 33 35
4 4 3 5 4 3 2 1 3 1 4 4 6 1 3 6 6 16 18 24 30 30 30 24 23 19 17 11 6 6 17 21 25 32 39 43 44 45 44 42 37 33 33 36
4 3 3 2 4 0 3 5 6 5 1 2 4 3 5 9 10 17 20 23 25 26 26 26 22 16 17 18 13 6 3 21 23 26 34 38 39 41 42 43 42 39 37 35
3 4 2 3 1 2 3 4 2 2 5 2 4 2 10 7 12 15 12 15 20 25 25 24 23 22 16 14 16 16 11 7 24 30 31 34 35 37 37 36 39 41 40 38
3 3 2 2 1 3 4 3 5 1 4 6 6 9 12 13 21 20 10 9 20 27 28 25 24 21 18 15 14 13 15 7 7 25 29 30 34 33 33 34 35 35 37 39
3 4 3 3 1 2 3 4 3 3 2 7 3 9 16 27 26 9 11 8 24 31 29 28 26 25 21 17 16 17 12 11 9 3 17 26 28 30 29 30 31 32 34 34
5 6 4 2 3 3 2 3 4 4 4 10 7 8 13 18 6 4 17 31 34 32 30 31 29 27 26 21 18 17 16 12 14 6 7 17 24 31 32 32 31 31 32 32
3 3 4 2 1 2 3 5 1 3 2 12 8 12 14 10 15 33 39 42 36 35 36 33 31 31 28 27 25 20 19 14 17 12 8 9 18 20 29 33 31 31 32 33
3 3 1 3 2 5 3 2 2 2 8 9 13 13 18 21 25 29 36 39 37 37 38 33 34 34 32 28 28 27 23 17 17 14 13 10 8 11 22 28 32 32 29 30
1 5 4 6 5 4 6 3 5 7 9 13 14 16 21 22 24 29 34 37 36 34 35 33 33 36 36 32 30 33 29 25 22 17 14 15 15 14 13 27 27 28 30 31
4 7 3 3 3 8 11 5 8 5 8 8 13 19 22 25 24 29 31 33 35 33 33 34 33 35 37 34 32 35 33 28 26 24 18 19 18 19 15 16 28 36 35 35
5 8 4 4 13 18 16 11 6 9 11 13 14 18 20 25 25 28 31 32 35 36 33 32 32 35 39 36 35 34 36 32 27 28 25 21 21 21 21 18 17 23 34 37
13 7 6 6 11 5 5 4 7 11 15 17 20 24 24 27 28 27 30 30 32 34 36 38 41 42 42 38 38 36 34 34 31 30 29 26 24 23 25 25 24 19 23 27

GFSCGP_850_spd_069.txt.gz
Wind_Speed
9 9 15 16 8 4 3 3 3 2 2 2 3 6 6 16 17 20 25 27 28 29 27 25 30 26 23 23 25 24 24 24 24 25 23 19 14 11 10 8 7 5 5 5
7 16 9 10 8 4 4 4 2 1 4 3 3 6 3 13 18 22 25 27 28 27 27 26 28 28 27 27 26 25 24 24 25 23 21 20 15 12 10 8 7 5 4 5
9 4 13 13 9 8 6 6 4 0 3 2 1 2 1 4 10 16 20 25 25 29 31 29 27 28 31 31 29 26 24 23 23 23 21 19 14 13 13 11 8 6 5 4
5 6 15 14 12 8 8 7 5 3 2 3 2 1 2 5 10 13 19 25 28 29 29 30 29 29 32 33 31 29 25 23 22 23 24 20 18 18 15 10 8 7 6 5
6 10 17 15 12 10 4 7 4 3 2 2 4 4 4 3 2 10 15 21 29 29 31 32 32 32 33 34 32 31 30 28 25 24 24 21 20 19 15 11 10 8 8 7
5 4 11 12 8 10 10 7 4 3 2 5 5 4 4 5 7 7 12 23 26 29 30 31 32 31 35 33 32 31 31 31 29 26 24 23 22 20 16 15 12 12 9 8
4 5 2 5 9 6 9 10 5 6 5 6 2 6 7 7 8 11 15 20 28 29 30 30 34 34 34 36 35 32 27 30 32 30 27 24 25 22 19 17 15 12 12 9
9 7 1 5 3 6 12 13 5 7 8 9 3 7 7 10 11 15 16 6 16 27 30 32 32 34 37 38 37 34 30 26 32 33 29 26 26 26 23 19 19 16 14 11
6 3 4 10 3 2 6 8 1 4 2 8 4 3 5 15 18 25 24 16 6 18 27 29 29 32 34 39 41 39 34 31 27 34 32 29 28 28 27 23 20 18 17 15
2 6 6 5 2 11 1 4 7 3 7 9 3 4 5 16 18 19 22 25 12 11 19 22 27 27 30 34 36 37 36 33 30 31 34 32 30 27 27 25 23 23 20 18
2 1 4 1 7 6 1 3 2 1 2 6 7 5 6 10 12 14 21 24 24 12 6 14 17 20 23 27 28 33 35 36 35 33 35 36 34 31 27 26 25 24 23 20
4 4 5 5 2 4 8 4 1 7 6 2 1 5 7 10 14 18 21 24 24 24 20 14 4 10 15 23 26 31 32 34 36 35 32 37 36 35 32 26 26 27 26 25
4 3 5 3 4 2 4 6 3 2 1 2 6 6 9 13 17 20 21 23 26 27 28 23 15 13 8 4 12 20 26 28 31 35 36 34 42 39 36 30 26 28 31 29
2 3 3 1 4 2 3 5 7 3 2 7 3 11 8 11 12 16 18 20 26 29 28 28 27 21 12 4 4 9 18 18 20 25 29 32 35 42 40 36 31 28 28 32
3 4 4 7 5 2 3 1 4 5 4 2 10 8 6 8 9 11 13 16 21 27 28 26 25 24 22 15 9 2 10 20 22 22 25 28 30 33 40 41 38 34 32 30
3 4 4 3 4 3 3 4 2 1 1 3 5 6 3 5 5 8 12 14 17 19 21 23 21 22 22 21 15 10 7 7 18 26 27 26 31 32 34 36 38 39 38 35
2 4 3 4 3 2 5 1 2 4 5 2 5 5 6 5 11 11 12 9 14 17 20 21 21 20 21 21 18 14 10 9 7 18 27 29 29 30 31 32 34 36 37 38
4 4 2 4 4 5 5 3 2 4 7 5 4 6 7 10 15 17 7 5 12 19 22 23 23 23 19 19 17 15 13 10 10 13 16 28 30 28 28 29 31 31 32 34
3 3 3 4 5 2 3 1 1 1 4 5 4 8 10 14 14 1 4 10 19 22 23 23 23 25 25 22 20 16 15 14 8 8 9 14 21 25 25 27 29 28 30 32
4 3 1 3 3 6 5 5 1 3 4 3 4 7 12 14 5 3 10 24 29 26 26 27 27 27 27 25 24 21 17 14 14 12 8 8 14 21 24 27 29 30 30 30
2 2 3 3 3 1 6 5 5 3 4 1 2 5 7 7 10 22 26 26 24 25 27 28 28 26 25 27 28 26 22 19 16 16 14 10 12 16 26 28 27 28 29 28
4 5 3 2 2 5 12 6 5 5 4 3 1 4 7 11 17 22 25 25 24 26 25 23 25 30 26 26 27 29 29 23 21 19 19 16 12 11 15 21 24 25 26 27
3 3 3 6 3 2 11 3 3 3 3 2 2 5 9 12 17 22 24 26 26 26 25 24 24 26 28 25 25 29 30 30 25 24 22 21 20 18 14 16 18 25 26 29
5 5 3 1 7 13 12 10 6 6 4 5 4 6 9 12 18 23 24 25 27 27 27 25 26 27 29 29 27 29 30 30 31 28 28 25 26 24 19 17 16 20 23 28
3 11 6 5 8 4 12 15 10 10 9 8 8 10 12 14 17 19 23 25 27 32 30 29 26 28 30 30 33 32 35 33 32 33 31 31 28 28 25 22 20 20 21 23
12 7 6 5 9 4 5 10 12 11 11 9 9 9 11 12 15 17 20 23 29 31 30 31 31 30 30 33 34 36 35 33 32 34 34 34 31 29 28 28 27 25 22 22

GFSCGP_850_spd_072.txt.gz
Wind_Speed
17 11 16 17 16 7 11 15 14 6 8 6 4 5 10 18 19 21 21 22 25 26 26 25 23 20 17 17 18 19 18 18 19 17 15 13 9 8 7 6 5 5 6 5
11 17 15 13 11 9 10 13 10 6 6 6 7 6 7 16 17 19 22 24 25 26 27 27 24 21 19 18 19 19 19 19 21 17 15 12 11 8 7 6 6 5 6 7
16 10 11 12 16 14 13 14 12 6 7 4 5 8 8 8 14 14 19 21 23 27 28 28 26 24 21 20 20 20 20 20 22 17 17 13 11 9 9 7 6 6 7 6
11 7 15 17 18 16 14 9 5 9 8 10 8 7 8 10 11 11 17 19 21 26 27 29 28 27 25 22 20 19 20 19 20 21 16 14 11 8 8 7 8 6 7 5
11 17 18 19 17 15 5 9 12 9 10 2 10 9 9 7 11 10 14 20 22 23 26 29 30 28 26 24 21 20 20 20 19 19 17 15 14 10 9 8 10 8 7 7
3 14 14 13 12 13 9 10 8 7 10 11 11 13 8 5 3 1 13 21 22 24 25 27 28 28 29 26 24 21 22 24 22 20 20 19 14 13 11 11 9 8 5 8
7 12 11 15 16 15 14 14 9 9 9 9 15 9 11 7 6 6 5 12 24 24 25 27 28 30 30 29 26 23 22 25 25 24 21 20 18 16 14 12 10 9 8 7
12 13 15 7 15 13 18 18 8 11 12 13 8 10 7 9 10 11 10 4 19 26 26 26 28 29 30 29 26 25 22 22 23 27 26 23 21 16 16 13 12 11 9 8
14 8 6 1 2 8 19 18 13 7 4 12 12 12 13 7 11 16 19 12 5 20 23 24 25 26 28 29 28 26 23 24 22 21 26 26 24 20 17 16 14 13 12 11
1 6 3 2 5 2 6 13 10 9 12 14 12 17 9 7 11 14 19 23 14 6 14 19 22 22 24 26 27 25 24 24 25 23 20 25 26 24 21 19 17 15 14 14
6 6 9 8 3 5 9 10 10 12 8 13 9 7 6 7 10 12 16 20 22 24 15 3 4 18 18 20 23 24 25 24 23 24 23 22 24 26 23 22 20 19 17 16
6 4 10 7 5 2 3 4 9 11 13 8 7 7 7 9 14 13 16 18 20 21 23 20 12 10 11 15 18 20 21 23 23 22 23 25 25 24 22 24 23 20 20 18
4 1 8 10 8 5 3 2 4 8 8 17 11 8 10 11 14 16 18 19 20 21 23 23 18 15 14 10 6 11 16 18 19 19 21 26 26 26 26 25 25 24 22 22
4 3 5 2 7 7 8 4 1 8 11 8 6 19 13 11 12 14 17 18 19 21 22 23 26 23 17 9 10 11 3 6 14 19 18 20 26 28 24 26 28 27 26 24
4 4 5 6 6 4 3 3 2 1 5 7 17 16 13 11 11 13 13 15 18 21 21 21 22 23 22 18 11 8 7 2 5 11 16 18 19 20 23 24 27 30 29 28
3 3 5 3 1 1 5 3 2 2 3 6 12 14 11 9 9 9 10 11 14 17 20 19 18 20 21 21 17 9 7 3 3 8 14 16 19 18 20 22 26 29 31 33
2 5 6 9 3 3 8 10 5 6 2 1 10 13 5 7 5 6 6 6 11 14 16 17 20 20 19 19 18 17 12 7 3 4 7 15 20 19 19 20 21 26 32 33
4 4 3 3 6 8 7 4 2 4 6 6 10 8 5 2 3 4 6 8 11 14 16 16 16 17 19 16 14 14 14 12 6 4 1 6 11 16 17 20 22 23 25 27
3 4 3 4 10 4 7 6 6 11 9 3 4 4 3 5 5 9 6 9 13 15 15 15 16 17 18 17 19 16 12 13 13 11 6 6 3 9 12 19 24 25 25 26
3 2 4 4 4 5 10 6 4 3 6 7 4 3 4 7 6 12 9 15 16 15 17 18 18 17 16 17 18 18 18 18 14 13 12 10 9 9 11 19 26 28 28 29
5 4 7 7 5 1 7 7 5 7 5 9 4 2 2 4 6 13 15 15 15 16 16 18 19 18 16 17 18 18 18 18 20 18 16 15 14 9 9 13 20 25 27 28
5 4 4 5 4 6 12 6 4 8 8 5 3 1 1 3 5 8 12 14 15 16 17 16 17 17 19 18 18 19 19 19 22 22 23 20 18 16 15 18 18 17 23 28
4 3 2 4 1 2 15 2 6 4 5 4 3 2 1 4 6 10 12 14 15 16 18 18 18 19 18 19 19 22 22 23 24 25 25 27 24 23 21 20 20 19 16 22
7 7 3 2 6 10 14 9 6 7 6 6 5 3 2 5 7 10 11 13 14 15 18 18 20 20 20 18 20 23 24 24 25 27 27 27 30 30 28 23 20 21 18 18
5 10 8 7 10 5 14 15 11 11 9 7 6 4 5 6 7 9 12 14 15 16 17 18 19 21 24 23 22 21 24 25 27 27 27 26 26 32 31 27 23 22 25 20
13 9 7 6 8 13 4 17 17 13 13 10 8 6 6 6 7 9 12 14 17 19 20 19 20 23 25 25 25 24 25 25 27 28 27 25 25 26 26 27 27 26 31 31

GFSCGP_850_spd_075.txt.gz
Wind_Speed
19 13 17 20 20 22 16 18 15 11 16 15 14 13 16 22 22 19 18 21 23 24 25 24 23 21 20 18 18 18 17 17 15 12 12 10 9 8 6 6 4 5 2 3
12 18 17 17 17 17 18 19 15 13 6 11 7 8 16 17 23 23 25 24 24 25 28 25 24 21 20 19 19 19 19 18 17 13 13 10 10 6 10 6 4 4 4 5
15 14 19 15 14 13 16 15 15 15 10 15 12 11 14 15 18 28 23 23 22 26 28 29 27 24 21 19 20 20 20 18 18 14 13 10 10 5 4 5 4 5 7 6
16 16 18 12 16 16 18 16 12 10 16 12 15 7 19 20 16 19 20 24 26 26 26 29 29 26 24 19 20 20 20 19 19 17 15 13 11 11 7 6 9 4 6 6
16 16 14 16 18 16 12 13 8 11 15 13 15 9 4 21 20 16 19 19 26 31 29 29 31 28 25 22 21 20 19 19 18 19 16 13 14 11 9 9 12 10 8 7
17 14 13 17 19 17 7 9 11 12 14 15 10 17 11 8 8 15 19 19 18 21 32 33 28 30 28 25 23 21 20 19 18 17 21 16 12 10 7 12 8 7 6 6
16 9 17 18 20 16 13 14 10 11 12 11 18 16 12 11 8 6 16 19 23 24 21 30 30 32 31 29 25 23 21 20 19 17 15 16 14 12 8 8 8 10 12 8
16 14 19 14 20 13 17 20 12 12 13 14 16 11 10 11 13 9 2 16 24 27 28 27 29 33 32 31 27 25 23 20 20 19 18 16 15 12 14 12 12 7 6 7
13 12 14 8 16 17 18 19 24 14 14 14 13 15 12 13 12 13 12 9 19 27 32 31 28 32 35 31 30 27 24 21 20 19 19 18 17 16 14 14 11 9 9 17
11 9 12 11 8 12 12 14 20 11 17 15 16 19 11 12 10 11 13 17 22 19 15 10 16 27 31 32 30 27 25 22 20 18 18 18 19 17 18 15 15 13 12 11
11 10 12 8 14 15 12 12 16 13 16 13 10 9 12 12 9 11 13 14 19 20 19 11 5 17 15 21 31 30 27 23 20 19 18 17 17 18 17 17 16 16 15 11
2 8 10 17 4 4 14 15 17 12 19 15 7 8 12 13 15 17 13 14 17 20 20 19 15 18 19 12 16 17 28 26 23 21 19 18 17 17 18 18 18 16 17 16
3 9 5 6 6 10 12 10 11 15 18 14 16 10 13 18 16 19 16 15 17 19 21 23 22 16 12 11 10 9 11 13 23 23 21 19 18 18 19 20 18 19 17 17
5 7 7 6 3 16 19 9 11 14 11 12 8 23 16 17 16 17 17 16 17 19 23 22 24 20 15 11 10 11 9 7 8 10 19 20 18 18 18 19 20 19 20 18
6 10 12 3 8 9 12 14 9 16 17 13 20 19 17 15 16 21 18 17 18 19 20 21 21 22 17 14 8 5 2 4 7 12 9 12 15 17 20 19 20 21 21 21
6 3 10 10 5 5 5 6 6 8 5 8 20 19 16 16 18 15 14 15 16 16 15 16 16 17 19 19 17 10 4 8 6 8 11 3 9 16 15 17 20 22 23 24
6 9 7 14 13 4 10 12 10 8 6 11 14 18 14 13 12 9 11 11 11 11 11 12 12 13 13 13 14 13 10 8 2 4 8 11 16 16 17 17 20 20 24 24
6 9 8 12 9 13 4 1 4 6 5 8 13 13 15 13 9 8 11 9 8 8 9 9 9 11 13 12 13 12 11 10 9 5 3 5 9 12 16 21 20 23 22 23
6 7 7 11 9 5 8 7 7 12 10 2 12 10 12 11 12 12 7 6 6 7 7 7 9 10 10 9 12 15 11 13 12 11 9 10 4 7 11 17 18 20 23 26
4 6 6 7 9 14 13 11 4 2 10 12 8 8 7 8 10 13 3 4 5 6 7 8 9 9 8 9 10 11 11 13 11 15 12 10 10 16 15 15 14 13 21 22
7 7 8 8 7 1 10 8 6 9 6 12 9 7 4 2 12 5 3 4 5 6 8 10 9 9 9 10 11 12 12 11 13 14 15 15 14 13 12 17 19 20 16 21
4 4 4 8 10 10 13 6 6 11 14 13 8 7 5 5 3 3 4 5 6 6 7 8 10 11 12 13 13 13 14 15 16 18 19 18 18 18 18 19 19 20 19 21
4 3 2 4 3 6 6 2 8 7 9 7 7 7 6 5 3 2 3 5 6 7 8 9 9 11 12 13 14 16 16 17 19 20 22 23 22 22 23 23 23 20 19 21
7 6 3 2 7 7 11 8 7 6 6 7 7 7 6 4 2 1 2 4 5 7 9 11 12 13 13 13 15 17 19 20 21 23 25 25 25 25 24 25 25 23 19 19
9 7 8 10 10 5 12 13 10 8 8 8 8 6 4 3 2 1 1 3 5 8 11 13 14 14 16 17 18 17 19 20 22 24 25 26 25 26 26 25 25 23 25 20
12 11 8 7 7 12 12 18 16 13 13 11 10 8 6 5 4 3 3 3 6 9 11 14 15 16 17 18 19 19 19 20 23 25 25 24 24 25 25 25 26 27 29 33

GFSCGP_850_spd_078.txt.gz
Wind_Speed
17 11 16 20 20 19 20 18 18 16 11 15 16 18 21 19 20 22 25 18 23 23 27 22 22 21 21 21 20 20 16 18 17 14 14 11 11 7 7 4 4 6 5 8
13 17 17 18 18 18 22 21 16 12 15 22 19 14 13 17 25 28 29 18 23 20 24 27 26 23 22 24 23 22 17 19 18 14 16 12 10 8 7 8 8 5 4 9
19 14 19 17 17 18 20 18 11 17 7 19 16 17 22 25 26 29 26 27 30 24 26 32 26 28 23 23 25 25 22 21 22 14 14 8 17 9 16 11 9 8 6 12
19 18 19 19 17 16 17 19 20 22 21 11 17 9 21 22 21 22 28 33 31 27 33 30 32 25 31 27 24 24 25 21 25 20 16 14 10 10 4 4 14 11 9 9
17 18 13 18 16 16 16 18 15 9 16 12 18 8 12 9 23 22 28 33 30 27 31 32 34 31 26 27 25 26 26 23 22 25 18 18 12 13 11 11 14 8 10 8
17 16 18 15 11 15 18 16 14 5 11 12 16 15 11 9 10 12 24 23 19 28 34 33 31 32 30 29 27 26 25 26 23 26 22 19 14 10 14 11 12 8 5 9
16 18 17 11 13 19 18 15 8 9 10 9 17 14 11 14 10 9 22 32 36 38 29 35 34 33 33 32 31 27 25 26 24 21 24 20 19 11 7 12 11 11 12 6
12 15 14 16 19 18 19 18 10 16 13 13 18 14 12 22 39 49 19 19 25 35 32 29 30 33 31 33 32 30 25 25 24 20 21 21 20 15 7 9 9 13 10 14
10 20 20 18 19 21 19 18 20 18 19 15 10 13 17 16 11 14 16 26 22 18 11 19 37 33 36 33 34 34 26 25 23 22 20 18 16 15 14 14 12 12 2 14
4 11 15 17 19 14 3 14 17 14 10 18 12 19 14 17 13 12 14 19 20 22 17 11 10 20 31 34 37 34 31 25 24 23 21 21 19 15 18 15 11 9 7 10
13 4 1 12 11 15 8 13 11 16 15 15 6 6 13 13 12 9 15 20 19 17 18 16 2 6 13 26 36 17 33 26 24 23 23 21 18 18 19 21 20 18 15 17
7 6 7 15 10 15 14 14 16 13 20 14 8 4 11 13 15 11 11 17 22 22 20 16 22 12 14 21 16 17 16 17 21 21 25 22 21 16 16 18 20 16 18 21
12 8 8 6 10 6 10 15 15 16 18 18 6 10 12 15 15 11 12 14 22 23 22 19 17 13 15 18 12 14 16 15 7 19 26 25 23 22 21 18 15 17 16 14
3 12 5 3 15 12 18 18 15 13 11 13 8 22 14 12 13 13 14 14 20 22 20 23 21 18 17 12 12 16 19 23 5 7 11 28 28 24 22 20 19 16 18 18
5 10 9 7 9 16 11 20 17 10 14 9 18 19 17 14 14 16 15 15 18 22 20 19 19 19 16 11 8 5 9 13 15 9 16 20 10 23 18 19 20 19 19 19
8 9 8 11 11 10 16 4 2 11 12 10 20 18 18 28 22 18 15 15 17 20 18 17 17 17 19 17 13 9 1 8 8 3 3 8 17 21 9 15 22 23 23 23
8 5 1 10 12 8 10 8 1 5 10 20 10 15 19 15 17 17 15 14 15 16 15 15 15 15 15 15 14 16 12 8 11 8 5 8 11 12 19 16 17 21 24 23
5 7 8 11 5 12 11 6 5 11 3 14 21 13 16 19 14 17 15 12 11 12 12 11 11 12 11 11 14 12 11 11 8 4 5 3 2 10 22 20 19 20 22 22
12 9 8 11 9 4 7 4 9 13 7 10 14 15 18 16 18 13 10 10 9 8 9 8 8 8 8 9 11 13 10 10 10 10 7 6 7 7 9 12 19 21 20 22
7 7 8 9 14 14 10 8 3 5 8 10 14 12 14 13 10 11 10 8 8 6 6 6 6 6 5 7 7 7 7 7 9 10 9 8 8 8 10 13 13 12 16 19
5 5 8 9 8 6 13 5 3 8 2 15 9 10 6 5 11 15 9 7 6 6 5 6 6 5 5 6 7 8 7 8 11 13 14 13 13 12 11 12 14 20 20 19
3 3 4 9 11 4 10 5 4 9 14 12 11 8 7 10 10 9 7 6 4 4 4 5 5 6 7 7 7 7 8 11 14 16 17 18 18 17 16 16 15 16 17 19
4 2 3 3 3 6 3 7 9 10 13 10 10 11 10 10 8 7 6 5 4 3 3 4 5 6 7 8 9 9 11 13 16 18 20 22 23 23 21 20 20 20 19 19
7 8 2 5 4 6 7 4 5 5 9 8 8 11 10 10 8 6 5 4 4 3 3 4 6 7 7 10 12 13 14 14 16 18 19 20 23 25 24 23 22 20 23 22
7 4 7 8 12 8 6 10 9 8 8 11 10 10 10 8 7 6 5 3 2 2 3 4 6 7 9 10 11 13 14 18 18 19 20 21 19 19 21 20 22 23 23 26
11 5 5 6 9 8 15 13 15 13 13 14 14 12 10 9 8 7 5 4 1 2 3 5 7 8 8 10 12 13 14 18 19 20 20 20 23 22 24 25 30 28 28 28

GFSCGP_850_spd_081.txt.gz
Wind_Speed
15 4 7 11 11 13 10 8 13 6 8 13 18 3 20 20 8 31 29 29 31 32 26 27 23 26 23 23 22 16 20 17 14 19 17 14 12 7 11 8 5 7 8 15
5 8 12 16 15 16 15 12 5 7 13 12 10 11 13 13 14 30 28 28 31 31 33 27 26 27 24 26 20 25 21 20 15 17 15 11 10 9 9 7 6 7 8 15
8 12 19 17 15 15 13 8 6 9 8 17 2 5 9 10 19 23 25 25 28 31 37 31 32 32 29 27 22 31 24 22 17 21 16 12 13 12 11 10 7 8 5 15
12 22 17 15 12 11 8 10 13 18 12 9 16 5 6 11 16 19 25 28 28 26 35 32 32 34 31 28 23 25 29 23 18 24 15 11 15 9 6 8 10 9 5 12
10 14 13 13 13 10 9 10 2 8 5 4 17 1 7 17 13 15 18 26 32 30 26 33 32 36 31 30 25 21 27 25 22 24 18 14 11 11 9 10 12 10 10 8
13 18 12 8 9 12 10 9 8 8 7 5 9 15 4 16 17 15 7 7 26 32 32 28 32 34 34 31 26 26 27 27 24 27 23 19 19 18 13 12 12 7 7 9
10 14 9 13 6 7 5 4 3 1 2 3 13 1 1 13 14 16 19 35 30 32 33 36 30 36 34 30 31 28 28 25 25 31 27 22 20 22 15 15 11 11 9 10
6 6 8 8 6 8 7 6 4 4 3 6 6 6 4 9 26 33 17 31 31 31 25 32 34 37 35 33 35 29 26 27 27 30 28 24 21 18 12 17 15 13 10 12
2 7 6 8 4 5 8 10 10 3 6 2 6 7 10 9 9 19 18 13 13 5 12 24 32 28 33 33 35 30 24 24 25 26 29 25 20 18 12 11 11 12 10 19
4 5 7 9 11 12 9 3 6 1 2 3 7 7 9 10 14 13 14 16 14 16 17 19 23 25 26 29 29 33 26 23 23 22 23 22 23 20 17 14 14 12 16 10
6 1 8 5 7 11 1 2 1 2 1 5 4 3 7 13 14 14 14 12 11 13 14 21 20 29 22 15 21 25 28 24 22 22 21 22 20 20 21 21 17 15 13 12
7 2 3 5 8 3 4 6 8 4 6 4 3 2 7 10 17 22 18 13 10 12 11 12 19 28 26 20 13 17 17 22 25 27 25 24 21 21 19 22 19 20 20 14
6 5 3 8 7 4 4 6 6 2 1 6 8 4 11 15 16 18 19 15 13 14 18 16 16 19 18 23 25 21 20 11 14 19 20 23 20 19 19 20 25 22 20 20
2 4 2 4 5 5 7 16 9 4 1 3 6 11 13 13 11 15 17 17 14 20 21 20 17 14 17 17 17 13 15 23 18 7 11 19 24 22 20 20 18 18 19 19
2 1 3 7 5 8 9 16 12 8 4 5 16 14 13 13 13 17 18 16 15 15 20 21 20 17 16 14 12 10 14 15 19 21 18 18 17 18 18 20 18 20 20 19
3 5 2 5 10 11 8 16 9 8 10 12 17 15 16 25 25 19 19 18 19 19 19 19 18 19 17 15 13 8 6 7 14 18 6 10 9 19 24 15 15 19 21 22
3 3 3 3 8 11 5 6 10 11 12 10 11 14 24 17 21 21 22 19 20 20 18 17 16 17 16 16 15 15 14 9 4 6 16 17 10 19 18 27 30 23 23 23
4 3 2 2 7 2 5 10 9 9 7 11 19 19 21 20 26 28 24 22 19 18 18 17 14 12 15 16 16 15 14 14 14 11 9 5 15 19 14 20 21 22 22 24
5 2 2 4 4 6 10 3 5 4 8 7 12 19 29 33 31 21 19 19 16 15 13 13 12 9 10 13 9 12 12 8 5 7 7 5 3 4 5 10 18 22 20 21
7 2 4 3 1 5 1 8 10 7 3 12 14 20 27 24 6 7 17 17 14 11 11 10 8 7 5 5 4 5 7 2 1 3 2 2 1 2 3 6 10 13 15 18
2 3 1 3 3 2 4 7 6 4 3 6 19 20 21 7 12 26 20 16 12 7 7 5 5 2 1 2 1 2 3 5 6 8 8 9 9 8 8 8 9 10 13 15
3 2 1 1 2 2 16 7 3 4 11 17 24 27 30 26 23 19 16 14 12 10 9 6 7 6 5 5 3 1 4 8 11 13 15 14 14 14 14 14 14 14 13 14
1 3 3 2 3 5 13 11 6 7 11 11 17 18 22 20 18 16 15 12 10 8 8 6 4 6 5 7 8 7 8 11 12 12 12 13 15 15 15 15 16 16 16 16
5 5 3 4 2 8 10 7 7 8 9 6 9 12 13 16 16 14 15 12 13 9 5 1 1 3 3 4 6 8 8 13 13 14 14 14 14 13 14 15 15 14 13 15
3 1 4 4 7 7 5 15 11 9 6 11 10 14 12 17 16 17 14 11 10 6 2 2 2 2 2 7 7 9 11 14 15 15 15 15 16 18 18 18 18 20 21 18
3 2 3 4 8 6 9 12 18 18 16 12 13 13 13 13 15 13 15 15 9 7 6 3 4 4 4 7 8 11 13 14 16 16 17 18 19 19 20 22 25 23 23 25

GFSCGP_850_spd_084.txt.gz
Wind_Speed
5 3 6 7 6 6 3 4 4 8 16 8 7 15 19 21 10 24 24 26 27 28 39 36 34 31 28 24 19 17 18 19 18 20 16 12 12 11 10 9 8 9 15 13
5 5 7 6 7 7 6 3 1 6 10 7 10 9 6 11 17 25 28 27 32 33 37 40 37 35 28 25 21 21 18 16 15 19 14 12 10 6 9 8 9 9 11 16
6 6 8 6 8 8 7 4 4 6 9 7 13 6 9 9 7 18 27 29 34 39 36 41 40 35 30 27 23 23 21 17 13 17 17 14 11 10 10 10 10 10 8 15
6 8 6 9 10 7 8 8 8 14 5 6 2 4 7 7 10 16 22 29 33 38 36 36 39 35 28 26 23 24 21 20 16 15 19 11 12 10 11 7 7 9 8 15
8 5 7 9 16 8 11 6 8 10 7 7 2 4 6 9 12 9 14 25 27 35 37 34 35 32 28 26 24 24 25 23 19 17 22 13 14 11 8 10 13 9 9 14
8 18 8 10 11 12 10 2 3 4 4 3 7 5 3 13 16 15 12 21 29 25 35 34 33 33 32 29 27 23 22 21 20 21 23 16 15 13 11 9 13 10 10 11
5 5 8 7 7 5 4 6 1 1 1 5 9 8 7 11 17 20 21 33 31 32 31 38 34 37 35 33 31 25 22 20 21 24 23 19 17 15 13 9 10 10 12 13
2 6 6 3 9 7 5 8 5 5 4 5 8 4 4 6 13 17 12 8 10 26 30 30 32 35 38 37 33 27 24 22 19 24 28 23 20 19 16 15 16 14 12 12
1 4 4 4 5 8 3 3 7 2 1 2 5 4 7 11 12 19 16 13 9 11 14 24 30 32 36 35 32 30 25 21 19 24 30 27 23 20 16 15 18 15 13 13
3 3 1 7 2 2 7 4 2 3 2 3 3 3 2 2 5 8 12 11 8 9 13 19 23 28 30 32 34 32 26 20 20 23 26 30 25 20 20 16 15 13 13 10
4 4 8 3 1 8 4 2 5 4 4 5 5 1 4 6 5 6 7 8 8 8 9 17 22 21 25 22 33 31 27 26 22 21 22 26 27 24 19 20 18 17 15 14
1 3 2 4 6 4 5 2 5 5 4 2 4 2 4 10 9 8 8 8 7 7 7 10 17 22 28 13 27 29 32 25 23 22 21 20 20 21 21 22 21 18 16 15
4 3 3 9 6 9 6 5 4 2 2 5 6 4 6 15 12 11 11 6 6 7 8 8 8 18 22 18 20 24 23 25 21 20 23 24 23 23 22 22 24 23 20 20
3 4 5 4 3 1 5 11 6 5 3 3 4 10 8 11 11 12 15 12 10 9 10 10 10 10 12 14 17 18 17 11 17 22 13 18 23 25 23 23 23 23 23 20
4 2 2 6 7 5 3 8 14 2 5 4 11 14 16 13 14 17 19 16 15 14 14 12 12 10 10 11 14 18 17 9 7 21 19 22 11 18 26 26 25 23 23 24
6 2 3 6 6 9 7 14 12 6 9 11 14 9 15 22 23 20 18 17 16 18 21 20 19 18 15 12 9 6 8 11 13 16 19 18 21 16 23 24 26 22 22 23
4 3 3 1 4 3 5 7 8 5 6 16 8 9 22 17 20 22 21 20 21 19 18 17 19 19 18 17 15 13 9 8 8 15 16 12 16 16 13 23 21 25 21 19
3 3 2 1 5 4 4 6 7 8 5 9 17 20 22 24 25 24 24 28 25 22 20 17 17 19 19 15 16 16 15 13 11 10 10 13 15 8 11 20 20 23 24 19
5 4 3 3 1 5 2 5 2 5 5 11 15 18 21 25 27 23 26 26 27 23 21 18 16 15 16 15 13 13 11 8 8 8 7 7 7 13 16 18 19 22 24 26
6 6 5 2 2 3 3 2 5 15 1 3 24 26 33 33 9 8 28 26 24 20 17 17 15 12 9 10 10 10 8 5 4 4 3 3 4 5 9 12 10 12 15 18
4 3 3 1 2 4 4 10 3 6 6 11 25 35 34 7 17 33 30 25 20 16 14 11 9 8 7 5 7 9 8 8 6 6 7 7 7 8 9 9 11 11 10 11
2 3 1 2 2 4 7 6 4 3 6 21 25 27 23 24 40 34 28 23 18 15 12 9 8 5 3 3 5 7 8 7 7 9 10 10 10 11 12 12 12 12 11 10
1 5 4 5 5 7 8 12 12 15 18 21 26 28 36 39 34 29 25 20 17 15 12 8 4 3 2 4 4 4 5 7 7 6 7 7 6 8 10 11 11 11 12 13
2 3 3 4 2 4 8 9 8 8 15 19 21 25 26 28 26 25 22 20 18 15 13 9 6 8 7 7 7 7 7 8 9 8 7 8 8 7 7 8 10 11 12 14
5 4 4 2 5 1 8 10 10 8 10 14 19 20 22 27 27 27 25 23 21 18 13 8 7 7 7 7 7 7 8 8 8 9 8 8 9 9 10 10 11 11 11 14
5 5 4 5 6 5 4 9 18 19 17 16 14 16 16 23 26 27 27 22 20 16 10 8 5 3 5 7 8 8 8 8 9 10 10 10 10 11 12 13 13 13 15 16

GFSCGP_850_spd_087.txt.gz
Wind_Speed
6 4 5 9 5 4 3 2 5 6 11 8 7 5 14 11 6 20 20 23 29 37 41 37 34 31 29 27 24 23 23 20 16 16 16 14 9 10 7 7 8 7 8 9
5 4 7 5 6 3 2 2 1 7 8 4 8 6 10 14 11 18 21 20 30 31 36 40 37 37 33 28 24 23 20 18 15 14 17 13 9 10 10 8 8 9 10 12
5 3 6 3 1 1 1 3 3 4 5 4 9 1 9 9 7 15 20 15 28 37 40 41 41 40 34 30 27 24 21 17 10 16 15 13 12 9 12 8 8 8 9 12
4 5 3 2 3 5 2 6 3 10 5 4 4 4 5 9 8 7 17 20 28 39 41 44 42 41 37 30 25 24 22 19 13 15 16 13 12 10 8 8 8 8 8 11
6 5 4 5 7 6 8 5 7 9 5 6 3 2 3 13 10 14 22 32 32 39 42 46 46 40 36 30 27 23 24 21 16 14 16 15 12 10 7 10 9 10 9 11
6 4 6 8 6 9 5 2 6 5 4 1 7 6 4 7 17 15 20 28 37 39 42 45 45 38 33 33 29 24 24 23 20 18 19 20 12 13 9 7 10 10 10 12
5 4 5 6 2 2 4 6 1 3 1 5 6 4 2 8 6 16 19 21 30 35 42 42 41 40 34 36 33 27 24 24 23 21 20 23 17 14 10 10 8 12 10 14
3 2 7 4 9 7 7 9 5 6 5 4 5 5 3 8 10 16 16 15 18 19 33 40 42 45 41 34 37 30 25 24 24 23 22 24 21 18 15 12 10 9 9 12
5 5 3 2 4 9 4 3 7 6 3 4 1 2 1 8 12 16 14 14 11 13 17 32 33 37 38 36 37 33 27 24 23 21 23 25 23 20 16 13 13 15 13 12
3 1 2 4 1 4 7 6 4 3 4 3 3 1 4 2 4 5 9 10 8 8 11 18 27 31 33 37 37 34 31 28 23 20 22 25 25 22 16 15 14 16 15 15
2 2 6 1 5 1 3 2 6 5 4 5 4 5 1 5 5 5 6 7 5 6 10 16 22 24 27 32 37 29 31 28 27 22 20 22 26 24 20 18 16 16 13 14
2 4 1 1 6 2 6 3 3 5 3 3 3 4 2 5 10 12 9 8 7 5 7 12 16 22 23 24 26 28 30 28 20 20 19 21 22 26 25 20 18 19 17 16
1 3 3 5 6 8 8 5 2 3 3 6 6 4 6 8 8 9 10 10 11 8 6 10 13 14 18 22 20 22 31 35 29 20 19 22 20 19 18 19 18 19 20 17
4 3 5 5 4 3 3 5 3 3 4 5 5 6 9 8 8 10 9 7 10 11 8 8 11 13 13 13 15 19 21 21 22 24 18 21 19 19 20 21 21 19 21 21
4 3 1 1 6 6 5 6 10 4 4 4 6 9 11 8 8 14 12 12 11 14 11 11 13 13 17 16 14 10 14 14 15 12 19 23 12 8 9 20 23 22 23 23
4 2 1 5 3 8 8 13 13 7 5 8 10 0 7 16 16 15 13 14 15 15 14 14 13 14 15 14 16 16 14 14 16 11 7 15 23 23 16 11 12 21 23 19
3 3 3 1 5 6 6 5 6 2 5 6 5 6 19 11 15 17 16 15 18 19 18 17 18 17 15 14 13 12 12 10 9 8 8 10 14 16 19 20 15 17 20 17
3 3 3 2 3 2 5 5 4 9 5 3 7 16 16 18 17 18 17 18 20 20 19 19 18 18 18 18 18 17 15 13 13 15 14 12 11 14 20 20 19 21 22 21
4 5 3 3 1 3 3 2 4 3 4 8 13 13 16 21 19 13 17 20 22 23 20 19 16 16 16 16 15 15 14 12 10 8 7 7 9 13 14 11 17 15 20 18
5 7 4 2 3 4 4 6 16 5 3 14 24 23 22 25 5 5 25 23 21 19 18 18 15 13 11 12 10 7 8 6 5 5 4 4 4 6 10 14 11 12 12 18
4 4 3 1 2 4 5 8 11 6 4 14 25 33 31 16 8 32 31 26 20 18 18 16 13 10 8 7 7 6 4 3 3 3 5 6 6 7 8 9 10 10 13 13
3 4 2 2 3 3 4 6 1 3 2 9 23 30 33 16 21 38 34 30 25 21 18 14 12 9 7 6 7 7 7 8 8 9 10 10 10 11 11 11 11 12 12 13
1 5 4 5 5 6 1 5 6 2 3 11 25 27 32 24 39 39 35 30 25 20 18 14 10 9 7 5 5 6 7 7 7 8 8 7 8 9 9 10 11 12 13 13
2 3 3 4 3 5 6 7 6 6 5 9 21 22 22 27 36 37 32 28 24 19 16 12 8 6 6 8 8 7 7 6 6 7 8 8 7 7 8 8 8 8 10 12
5 6 4 2 4 2 9 8 9 8 9 11 14 17 22 28 36 33 30 26 22 19 15 11 6 6 6 5 5 5 6 6 5 5 5 6 6 6 6 7 7 7 9 11
6 6 4 5 9 8 7 14 12 13 15 15 18 22 25 29 32 31 28 24 21 19 15 10 7 5 3 3 4 5 4 4 4 4 4 5 5 5 6 7 6 7 9 10

GFSCGP_850_spd_090.txt.gz
Wind_Speed
5 4 6 8 5 5 5 6 4 1 11 11 14 3 8 10 13 25 26 27 32 36 30 28 28 25 24 23 21 21 19 19 18 16 14 14 10 8 6 5 5 4 6 6
5 5 7 7 5 5 3 2 2 4 10 5 2 4 8 14 6 21 24 28 34 34 32 31 31 29 28 25 23 21 20 19 15 12 11 11 9 9 8 6 6 7 7 8
6 3 8 5 4 5 1 3 3 5 4 4 8 4 5 4 6 12 16 30 34 33 34 34 34 33 31 28 25 22 20 18 16 13 15 14 11 10 9 9 7 8 8 9
3 3 6 3 4 5 4 6 3 11 5 4 2 4 5 8 9 7 19 20 34 34 36 36 37 36 34 31 26 23 22 19 17 15 16 13 11 9 7 7 6 7 7 9
6 5 5 3 5 6 7 5 5 4 4 4 4 2 2 11 12 16 20 24 26 36 37 37 38 37 37 33 30 25 23 21 18 15 17 13 10 9 7 7 7 7 8 8
6 2 5 8 5 9 5 4 6 5 3 1 6 5 3 6 12 15 19 24 26 34 36 37 40 34 37 36 29 28 26 23 20 17 15 16 13 10 9 4 8 8 8 7
2 3 3 4 4 1 4 6 2 3 2 5 4 5 3 4 8 12 19 18 23 30 37 39 40 39 33 37 31 30 28 26 24 20 18 17 17 11 11 7 5 9 8 7
5 3 7 4 7 7 6 8 5 5 5 4 3 5 3 3 10 5 19 23 22 27 34 36 41 43 33 29 36 32 29 29 27 23 20 17 19 15 11 9 6 3 7 7
4 4 3 5 4 8 4 4 6 7 3 3 2 3 2 4 8 14 15 22 19 17 24 33 37 43 41 29 28 33 31 30 29 24 21 19 18 18 14 12 10 9 9 8
4 1 2 3 4 4 5 5 4 3 4 2 3 4 4 4 5 6 9 11 11 15 23 29 33 37 45 37 27 33 35 33 27 26 21 19 17 18 16 12 11 9 12 12
4 3 4 2 4 4 2 1 6 6 4 5 4 6 3 5 8 8 9 9 9 12 14 21 27 30 36 38 31 33 32 35 30 23 23 18 18 19 19 16 12 11 9 12
1 4 2 2 4 1 2 3 4 5 4 1 3 4 3 4 9 13 11 11 11 11 10 13 17 19 25 31 32 34 29 27 23 23 20 20 20 19 21 19 14 13 12 11
5 2 3 6 6 6 7 5 4 4 3 5 5 4 4 9 8 8 11 10 10 10 11 14 14 17 17 25 30 35 32 30 20 27 25 21 21 20 18 19 20 18 17 17
2 3 4 6 4 2 4 6 4 4 3 5 5 5 8 6 6 9 10 10 8 8 8 11 13 14 14 16 25 27 26 22 19 19 19 18 10 11 13 13 15 16 16 17
4 4 3 4 6 4 4 7 8 4 1 3 5 8 6 10 9 13 12 11 9 9 9 9 11 12 12 15 14 12 18 16 11 13 17 22 20 7 4 11 14 14 14 16
4 2 3 3 5 6 4 9 7 6 2 2 2 3 2 17 16 15 13 12 11 9 10 10 11 15 14 16 18 16 14 17 16 14 11 15 16 20 16 9 5 6 11 13
4 3 2 1 5 5 3 5 3 2 2 2 1 2 7 6 12 16 16 15 15 14 12 13 12 13 14 12 13 15 14 15 15 12 10 9 11 17 18 19 15 10 9 10
4 4 3 1 4 3 6 2 5 7 1 1 2 6 9 12 14 15 14 18 18 19 18 16 16 15 14 14 15 15 14 13 11 10 10 11 12 15 15 15 17 14 15 16
6 4 4 3 1 4 4 4 3 2 2 3 8 10 16 17 14 10 14 17 20 19 18 17 15 14 16 14 12 12 13 13 12 11 10 9 9 9 8 8 9 14 14 13
4 7 4 2 3 5 5 3 7 3 5 12 9 19 21 23 4 4 20 20 20 19 17 17 16 15 14 15 12 8 9 7 6 6 4 3 4 6 9 9 9 8 8 9
3 4 4 2 2 5 5 7 9 5 5 9 19 24 27 9 4 23 26 26 22 20 19 17 15 13 11 10 7 3 2 2 2 2 2 4 5 5 5 6 7 8 9 8
3 4 2 2 3 4 4 3 1 4 2 8 20 19 18 6 6 31 30 26 25 23 20 17 14 11 8 6 5 5 6 6 6 7 8 8 9 10 9 9 8 8 8 8
1 5 4 6 5 5 4 2 1 2 3 4 19 23 22 12 21 31 29 27 24 20 18 16 11 8 6 5 3 4 6 6 7 8 8 8 8 8 9 9 10 10 9 9
2 4 3 3 3 5 3 1 0 2 7 9 7 19 22 18 17 25 26 25 23 20 17 13 9 7 5 5 6 7 7 8 8 8 8 8 9 8 8 8 8 8 8 9
4 7 4 3 6 5 8 8 4 3 1 3 4 13 20 19 19 25 28 26 23 20 17 12 8 6 6 7 7 6 5 5 6 6 7 7 6 7 8 8 7 8 9 9
8 6 5 5 11 10 7 12 9 8 6 6 5 10 16 20 22 24 29 24 25 22 17 13 11 8 7 6 7 7 7 5 5 5 6 6 6 6 6 6 6 7 8 10

GFSCGP_850_spd_093.txt.gz
Wind_Speed
6 7 12 9 3 5 10 7 5 3 10 12 7 8 12 18 21 21 24 24 23 27 22 22 23 21 22 19 20 20 18 16 15 17 16 14 11 8 8 6 5 4 6 6
7 14 8 8 4 5 7 8 6 3 14 5 9 1 3 11 21 24 25 26 26 22 20 22 25 24 24 22 20 20 19 17 16 16 13 13 11 9 7 5 5 4 4 6
13 6 10 9 7 7 4 6 7 5 13 12 11 3 7 10 11 19 25 27 26 27 25 24 25 27 25 24 22 20 19 18 17 15 14 14 11 9 9 7 5 5 5 8
8 5 14 9 11 8 8 8 5 12 10 4 7 1 6 11 14 17 25 27 29 27 26 25 26 28 27 27 23 21 19 18 17 15 15 14 11 9 8 8 5 5 6 7
7 12 12 12 9 7 2 5 6 9 5 9 6 7 4 10 15 19 25 24 27 27 28 28 29 29 30 28 26 23 21 19 18 17 15 14 10 9 7 8 8 6 6 5
5 4 8 7 7 11 6 8 8 5 4 4 11 6 6 8 21 17 22 23 21 24 27 28 28 30 31 30 28 24 22 21 19 18 16 15 11 9 9 7 9 7 6 7
5 6 3 4 7 5 7 8 3 6 5 3 3 8 3 10 4 12 19 27 24 22 26 24 29 31 33 32 30 23 23 23 22 19 17 16 14 10 8 7 5 8 7 5
11 9 10 8 9 6 12 13 5 8 6 9 5 9 2 2 6 12 19 24 25 26 25 27 28 32 30 24 26 28 24 27 25 22 19 16 15 14 8 7 5 4 8 5
8 8 2 7 6 11 6 10 5 3 1 7 4 3 4 4 1 4 8 20 24 25 27 25 25 28 35 28 23 33 29 25 26 25 22 19 15 14 13 9 8 5 6 7
4 5 4 6 6 3 6 11 9 3 8 10 5 4 3 9 6 6 10 11 12 14 19 27 27 24 34 33 26 20 25 29 27 27 25 19 16 14 14 12 10 8 8 11
6 3 4 4 4 11 6 6 1 5 3 9 7 5 1 5 11 9 7 9 10 14 18 23 28 30 31 35 33 20 17 25 26 24 24 23 18 16 15 15 12 9 8 9
3 2 1 3 3 1 2 4 4 9 7 0 3 3 2 2 9 13 12 10 8 11 13 18 22 28 30 31 36 29 25 24 21 22 26 24 22 19 17 18 16 13 11 9
6 1 5 6 5 3 4 2 2 3 2 7 8 3 2 6 9 8 10 9 11 10 11 11 12 19 24 28 33 33 26 28 21 18 22 25 19 20 19 17 18 17 14 14
2 3 2 5 5 3 5 5 3 2 5 7 4 4 8 10 10 9 9 8 8 8 9 11 11 12 13 17 28 31 31 28 25 22 18 23 27 21 19 16 14 16 16 15
2 4 11 11 11 11 12 8 5 5 3 5 1 4 1 12 11 12 11 8 7 7 8 10 11 12 12 16 19 25 24 24 21 15 14 14 20 17 13 12 12 12 12 13
6 4 4 2 2 3 10 10 10 8 4 2 2 3 1 13 12 11 11 10 9 8 8 9 12 12 13 16 17 15 20 20 16 13 13 14 18 19 12 9 8 10 12 13
3 5 5 3 4 2 3 5 7 5 3 1 2 3 10 12 12 14 14 13 11 11 12 11 13 14 13 16 19 20 21 21 19 18 16 16 16 17 19 18 9 7 5 6
4 4 1 3 3 7 4 3 2 5 3 1 1 4 12 14 11 10 10 12 12 11 12 12 13 14 14 14 13 14 16 17 17 16 13 11 9 10 12 13 15 18 14 10
5 3 4 3 3 2 6 4 2 2 2 2 3 10 15 15 12 7 10 11 13 13 13 13 13 14 15 15 15 15 16 16 16 13 11 9 8 7 9 10 11 11 11 9
4 7 1 2 3 4 4 1 6 4 4 4 7 12 17 18 8 6 16 15 14 15 16 16 16 16 14 15 13 11 12 11 11 11 9 7 5 5 6 7 6 5 5 6
2 3 1 3 2 1 1 5 3 4 3 1 7 10 14 7 4 7 18 17 17 18 19 18 17 16 15 14 11 8 9 7 7 6 5 4 3 3 4 5 5 6 7 6
3 3 2 2 2 5 4 1 2 3 4 3 7 10 12 4 2 16 19 21 21 21 20 19 18 16 13 11 7 5 4 3 3 3 3 4 5 5 5 5 6 6 6 7
3 2 1 4 1 1 2 3 3 4 5 6 4 9 12 9 8 16 18 22 22 20 20 17 13 11 9 7 5 4 3 3 4 4 5 6 6 6 7 7 7 8 9 9
3 3 2 3 4 5 3 2 3 3 6 7 5 6 12 13 12 18 20 22 22 20 18 15 12 9 7 6 4 5 6 6 6 6 7 8 8 8 7 7 7 7 7 8
1 9 5 3 5 4 8 7 4 2 2 5 6 2 8 13 16 19 23 23 22 20 18 14 10 8 6 6 6 6 6 6 6 6 7 7 7 7 7 7 7 7 7 7
9 5 5 4 8 8 3 8 9 6 3 1 2 1 4 10 13 19 23 23 23 21 19 16 12 10 8 8 8 7 7 6 6 6 6 7 7 7 7 6 5 5 6 7

GFSCGP_850_spd_099.txt.gz
Wind_Speed
20 14 15 19 20 16 3 3 6 16 14 10 10 7 3 13 9 12 21 22 24 24 24 20 19 17 17 16 15 14 15 15 13 13 10 8 10 8 6 7 6 7 5 5
12 17 18 19 14 9 19 18 9 19 23 8 13 5 4 11 14 14 15 26 26 28 26 22 20 18 17 17 16 15 12 12 10 9 11 10 10 6 8 7 6 6 6 5
15 15 18 14 10 14 15 11 2 6 13 13 14 5 5 5 18 26 28 24 24 24 29 25 23 20 18 17 17 16 14 11 11 10 9 9 7 8 7 7 6 6 6 5
16 16 18 7 14 15 14 18 9 17 18 8 5 5 12 8 7 12 25 25 28 26 24 26 23 21 20 17 15 15 15 13 11 11 11 9 8 6 7 7 9 6 7 7
16 17 13 15 17 15 5 16 27 22 12 18 14 6 10 14 5 7 22 17 26 27 24 21 26 22 20 18 16 15 14 14 12 12 9 6 7 6 6 6 8 9 7 8
19 10 12 16 15 13 5 10 8 12 10 2 14 12 12 12 10 5 21 23 27 32 28 33 25 23 20 20 19 17 16 15 14 12 11 7 5 4 9 6 4 7 7 7
16 9 13 16 17 8 13 15 6 7 2 5 14 9 7 19 20 18 24 34 28 29 29 26 23 21 22 20 20 20 16 15 14 11 9 8 6 4 3 2 6 10 9 10
14 13 18 10 18 12 16 18 7 7 6 7 16 5 13 23 31 31 32 31 32 33 32 23 28 29 23 25 21 19 17 15 14 12 11 10 9 5 4 4 5 5 11 9
15 17 18 14 13 16 15 17 15 7 5 6 7 9 5 16 18 17 19 31 28 27 38 37 29 25 15 20 17 20 22 18 14 12 12 10 10 10 8 10 7 8 10 8
11 12 17 15 13 18 16 15 16 11 14 8 6 5 7 17 17 16 17 20 30 31 26 28 25 22 28 26 21 23 22 18 15 13 12 11 10 9 8 8 9 12 12 3
9 10 14 13 15 18 14 12 14 17 14 12 6 4 4 13 18 13 11 17 23 28 27 22 21 21 22 22 32 29 25 20 16 13 14 14 10 11 9 8 10 9 10 11
16 9 13 18 15 18 17 17 16 12 18 14 9 2 12 11 13 18 12 8 7 11 16 18 18 23 24 25 36 34 33 28 21 17 17 14 14 13 13 11 10 10 11 7
7 12 13 10 16 13 13 15 20 16 15 17 14 7 12 10 11 15 16 11 9 9 11 13 13 14 16 14 24 28 35 30 24 23 18 15 11 17 18 15 10 11 12 14
10 14 16 9 5 17 19 20 21 19 14 16 13 20 16 15 13 15 16 14 11 9 9 12 13 12 16 16 18 20 24 25 24 17 17 16 13 17 19 19 17 14 13 14
7 15 17 6 15 22 19 21 10 15 16 12 3 6 16 15 14 15 16 13 13 12 11 13 17 16 16 15 14 16 21 25 23 22 21 25 20 15 18 21 22 18 19 16
10 7 13 12 9 10 13 16 21 18 17 18 2 9 4 18 18 15 15 14 13 12 12 11 13 13 14 18 17 17 17 19 21 20 16 15 18 17 13 15 19 15 14 14
10 6 7 15 9 10 9 10 10 11 8 7 7 15 10 11 13 14 12 10 11 10 9 10 11 12 13 14 17 16 19 18 20 22 18 15 15 13 11 11 12 17 12 10
10 4 14 2 12 13 9 11 8 7 8 5 2 8 5 9 11 10 10 11 10 10 9 9 10 12 12 12 14 17 19 20 20 19 17 14 12 13 12 11 10 12 10 9
10 6 5 4 2 7 7 3 5 2 13 5 6 3 9 10 12 8 7 9 10 10 9 8 10 11 10 10 11 16 16 18 23 21 17 14 13 12 12 13 13 13 9 9
2 4 5 9 8 5 4 6 3 3 6 6 5 3 7 8 8 10 10 11 12 13 13 12 10 12 12 13 12 11 12 16 16 17 17 16 13 12 11 10 12 11 11 8
8 7 9 7 5 4 12 4 1 8 4 4 2 6 6 4 7 11 12 13 12 12 13 11 10 12 12 13 12 11 11 10 10 10 9 11 12 11 11 11 10 9 9 8
3 5 5 4 5 5 2 4 3 6 6 4 2 4 6 6 8 12 13 13 13 14 14 13 14 13 12 13 12 11 10 10 10 7 7 5 4 6 7 7 8 10 11 11
5 4 4 4 6 6 7 10 6 5 5 4 3 5 4 6 9 11 13 13 13 14 14 13 14 14 14 13 9 9 7 6 5 4 3 6 6 6 5 6 6 6 7 8
7 1 5 1 8 3 5 5 4 3 4 3 3 1 5 7 9 12 14 14 14 14 14 13 13 12 10 8 8 7 6 5 3 3 5 5 6 5 5 3 1 4 3 4
3 9 7 6 4 4 6 6 6 4 1 1 2 1 3 5 8 10 12 13 14 14 14 14 13 11 10 10 7 3 1 1 1 2 2 3 3 4 5 9 13 10 16 11
10 6 6 3 3 9 2 11 7 6 4 3 2 3 2 4 6 8 10 12 13 14 14 14 13 12 12 11 9 7 5 5 6 4 4 4 6 6 6 6 8 15 13 11

GFSCGP_850_spd_102.txt.gz
Wind_Speed
19 13 15 18 19 14 9 3 4 8 17 12 12 5 4 5 5 8 25 22 21 26 23 20 22 22 20 19 17 15 17 17 16 11 11 10 10 9 8 7 7 6 7 9
15 17 18 19 10 17 16 16 6 7 14 10 12 10 1 10 7 5 5 19 23 22 25 22 21 23 21 21 18 21 17 16 15 16 10 9 12 10 10 7 6 12 6 6
19 15 19 19 17 11 11 16 8 2 12 19 15 6 8 5 19 19 16 9 10 24 27 28 25 24 23 23 21 17 17 14 16 14 14 11 17 8 13 6 6 6 9 8
17 20 17 18 14 10 13 19 16 14 12 9 9 5 6 9 13 17 30 18 19 20 37 32 29 29 27 25 19 18 14 13 15 10 10 11 10 10 6 8 7 11 9 7
16 16 19 12 18 10 15 22 21 23 11 9 13 5 7 18 18 19 29 26 26 34 35 30 31 29 32 27 24 22 19 14 14 13 15 9 8 2 3 8 6 10 12 9
17 16 17 16 9 11 21 11 16 12 5 7 18 14 12 17 20 19 30 25 20 25 29 26 21 26 30 29 26 20 19 18 16 13 11 11 12 8 4 5 8 8 8 7
16 20 9 7 11 14 15 15 4 2 4 5 6 11 9 22 22 27 20 20 24 18 17 27 29 22 34 30 26 26 19 20 18 14 16 11 8 6 1 2 2 8 9 14
12 14 12 14 15 14 13 18 4 1 6 2 12 7 11 22 24 34 27 33 26 29 24 25 26 22 32 35 27 30 19 20 19 15 13 8 9 3 3 3 5 5 9 9
10 14 14 18 12 18 12 14 14 12 3 7 7 11 18 19 14 24 26 41 39 34 33 25 32 29 30 27 28 19 27 21 18 15 15 16 14 13 11 8 7 2 6 9
16 11 16 14 11 15 15 11 13 6 5 6 1 4 5 21 17 16 19 32 42 46 36 34 33 34 34 26 22 32 25 22 18 17 13 14 12 11 12 9 7 7 8 8
14 11 19 14 11 14 11 12 10 15 13 5 4 6 8 19 18 17 19 28 41 41 44 39 32 30 30 31 34 31 29 22 21 20 15 13 7 7 7 7 6 4 6 0
15 11 6 11 12 13 16 15 15 9 15 11 8 8 8 13 12 16 9 22 14 28 40 42 29 43 34 30 30 27 24 25 19 21 21 15 14 13 12 8 7 5 7 8
9 9 8 14 10 13 14 17 16 14 13 14 11 6 10 25 23 11 13 11 13 17 26 38 31 31 29 35 28 28 27 28 22 25 19 21 11 17 13 8 12 6 10 13
5 13 16 11 8 14 15 19 13 14 12 12 12 20 22 17 14 17 16 14 13 14 22 21 21 20 21 21 19 25 28 27 26 25 21 20 22 16 9 15 15 17 16 15
8 14 16 17 7 16 19 16 16 17 18 11 2 17 17 12 15 13 12 13 14 11 11 14 13 21 17 16 15 20 21 25 30 23 17 15 15 17 16 16 21 18 18 16
9 9 12 16 10 17 19 21 17 22 15 13 15 6 10 25 22 19 16 10 11 13 12 11 12 16 19 20 14 13 17 16 16 18 17 15 17 19 16 13 17 18 19 18
3 6 7 11 17 14 15 15 15 12 11 10 15 6 11 9 15 9 18 18 15 15 11 9 9 13 18 18 17 17 17 15 14 15 16 13 9 10 11 10 8 12 12 13
5 3 2 6 10 8 10 13 8 16 6 20 14 21 16 13 22 19 13 21 17 18 14 11 12 13 14 14 17 16 18 17 18 18 18 15 13 13 10 10 8 8 8 11
10 5 2 3 3 9 6 11 13 7 13 18 11 9 28 33 16 15 14 17 19 16 15 13 11 12 13 12 14 17 17 16 18 15 15 14 14 11 9 9 9 9 9 8
8 11 2 4 2 4 6 13 31 5 6 15 19 8 16 10 8 12 17 19 19 17 14 9 11 12 11 11 11 12 13 11 14 18 18 18 13 14 12 11 12 12 10 6
10 12 5 2 4 5 4 9 24 8 3 6 12 15 22 13 16 21 24 24 20 17 12 9 13 13 12 12 12 12 11 12 12 11 11 12 14 13 11 11 10 10 9 10
2 3 4 6 9 6 7 12 2 6 2 10 9 13 14 12 12 17 17 20 17 14 12 10 13 12 12 11 10 11 11 10 8 8 7 8 9 10 10 9 8 8 10 11
4 6 4 7 3 8 9 9 8 8 5 7 7 5 10 7 8 12 13 13 13 12 12 12 12 13 13 12 11 12 13 11 12 10 9 7 5 5 5 5 5 4 6 9
5 2 2 3 12 11 8 5 5 6 6 3 3 3 3 7 6 8 11 11 11 12 12 12 13 12 14 12 10 10 10 9 8 7 6 6 5 5 5 8 8 6 4 4
8 6 3 3 8 6 5 5 6 5 2 1 2 3 3 6 7 9 10 10 11 10 12 12 11 11 10 11 11 10 8 6 5 5 4 5 5 7 9 9 10 14 14 12
6 3 3 1 7 9 2 10 4 5 3 2 2 2 2 1 3 5 9 11 10 12 11 10 10 10 10 9 7 8 8 6 4 3 4 5 4 0 4 7 10 16 14 12

GFSCGP_850_spd_105.txt.gz
Wind_Speed
8 3 7 12 15 16 8 9 9 10 9 7 12 4 0 13 13 7 22 20 25 30 28 28 30 28 22 19 21 22 19 15 17 14 13 9 13 10 8 5 5 4 7 12
5 8 13 16 4 13 10 5 7 12 10 7 9 5 3 5 3 3 5 9 16 34 30 33 30 27 22 28 19 21 17 15 15 16 12 12 12 12 6 5 5 6 3 5
9 13 18 17 10 8 8 4 8 7 8 1 2 5 2 0 4 7 5 3 4 24 30 36 31 26 23 26 22 22 20 19 17 18 13 12 11 12 9 8 7 9 5 4
8 20 15 15 10 5 5 9 11 13 9 3 5 1 3 6 9 8 11 14 7 19 26 35 33 32 27 24 24 22 20 15 18 20 15 13 15 10 12 11 9 10 9 5
10 11 12 12 11 14 6 17 7 8 8 6 2 4 3 4 10 15 22 22 12 10 21 34 31 33 30 25 24 20 18 17 18 19 14 14 11 9 10 9 7 14 11 8
10 18 8 7 1 21 25 18 11 4 2 3 10 5 7 13 25 28 25 23 21 10 23 20 28 32 31 27 25 24 19 17 17 16 14 12 11 13 8 5 6 11 10 13
10 10 9 13 14 22 20 12 4 1 2 4 5 6 12 17 16 19 23 22 21 16 16 23 26 21 36 32 29 26 19 18 18 18 17 16 16 11 4 6 9 6 7 10
6 7 8 3 4 16 17 12 6 6 4 2 3 2 6 14 28 23 29 25 23 26 18 17 36 24 34 31 33 29 24 18 21 17 16 15 11 7 6 6 4 5 7 6
4 4 5 8 9 7 7 4 10 7 1 4 2 2 11 4 5 17 21 25 26 32 21 21 21 33 22 30 35 28 24 16 20 19 18 14 13 12 9 7 7 4 5 6
10 6 6 7 12 9 6 5 3 2 4 3 5 3 5 4 4 11 15 22 35 39 28 25 19 25 20 31 30 25 21 18 20 20 20 18 15 15 12 10 7 5 1 2
5 1 10 9 6 7 3 3 5 5 5 5 5 5 9 11 4 8 17 27 33 36 47 31 28 20 31 28 31 28 20 23 21 21 20 16 15 15 14 12 9 6 6 1
7 2 5 8 3 10 6 7 7 4 4 4 5 3 4 15 28 28 25 31 42 47 41 33 28 26 27 29 27 30 25 29 26 26 24 19 14 17 14 12 10 7 7 7
7 4 5 8 7 2 6 8 6 4 1 5 4 4 11 20 20 28 28 38 39 38 31 36 35 29 30 42 35 33 33 33 28 25 17 16 14 17 16 13 13 12 9 5
2 2 4 1 5 9 7 7 9 3 3 5 4 7 7 7 5 8 19 15 15 41 38 41 41 37 33 45 35 41 35 33 34 27 21 15 11 14 16 14 12 12 15 12
2 4 6 6 10 8 13 13 8 8 8 2 6 7 7 4 8 18 17 19 23 24 23 33 38 38 31 32 33 35 32 36 34 23 19 15 13 17 16 14 11 12 14 14
5 4 3 6 13 13 6 10 13 11 10 12 20 7 3 14 23 17 9 9 12 15 20 24 30 32 28 25 20 22 29 30 25 21 19 18 11 10 12 11 12 12 12 19
3 3 5 1 11 11 6 12 16 7 23 2 6 10 14 5 14 18 19 12 13 19 17 17 18 29 29 26 25 25 21 16 11 13 17 13 11 10 11 12 9 5 6 8
2 4 2 2 7 2 4 9 12 11 17 19 12 11 15 21 25 18 15 21 18 13 14 13 14 16 22 20 21 18 20 17 14 13 15 14 13 13 9 7 5 4 4 7
3 4 2 3 1 5 4 7 9 9 6 16 13 9 14 20 16 12 24 17 14 12 11 10 12 13 13 15 16 15 17 17 21 20 16 16 13 10 8 8 6 5 7 8
11 7 4 3 4 2 6 11 17 16 5 12 11 17 22 6 9 8 26 21 18 13 8 4 8 12 11 12 11 13 14 15 16 17 16 13 14 11 9 7 6 6 8 11
0 3 4 4 2 4 7 11 18 4 3 7 13 13 22 15 4 29 25 21 14 11 5 7 11 11 11 9 10 10 10 10 10 12 15 16 16 13 11 10 9 7 8 10
4 3 3 4 2 2 4 10 3 5 8 9 25 14 19 24 21 22 20 17 13 8 7 11 10 10 10 10 10 9 9 9 10 10 9 9 8 9 10 9 9 8 9 10
1 3 1 6 6 12 7 5 2 12 14 11 15 22 28 23 28 23 20 14 12 11 13 13 13 13 11 9 7 7 9 9 9 9 8 8 8 8 9 10 10 9 10 10
4 4 5 5 3 8 6 8 15 14 11 11 10 17 16 21 26 26 21 20 13 11 11 6 10 12 12 11 11 9 10 11 9 8 8 8 8 8 9 9 9 9 8 9
4 3 2 4 9 12 9 9 7 8 8 8 7 12 16 14 22 26 20 15 11 10 6 3 5 7 9 9 10 11 10 9 9 8 7 7 7 7 7 7 8 8 7 7
3 4 3 3 16 10 15 13 12 10 3 6 7 7 12 15 11 11 13 11 11 9 10 9 4 2 5 8 9 9 8 6 5 5 4 4 5 2 4 6 7 8 10 10

GFSCGP_850_spd_108.txt.gz
Wind_Speed
8 4 4 8 7 0 4 7 10 4 3 6 8 10 5 2 18 16 22 30 33 36 38 34 29 29 24 21 24 19 21 24 21 18 15 17 14 15 10 9 5 5 7 5
4 5 11 8 4 7 11 14 5 3 2 0 2 9 8 8 3 6 16 27 32 27 39 37 34 31 24 23 23 23 21 21 20 19 15 16 18 13 11 9 9 8 7 8
7 12 9 6 4 8 6 8 8 5 6 2 5 4 5 5 8 7 6 20 27 26 40 40 38 32 26 25 25 24 20 20 20 20 16 15 16 15 13 12 9 11 8 5
7 15 10 8 10 6 3 9 15 11 2 1 2 3 7 6 10 4 10 11 23 28 39 39 38 34 28 26 24 23 20 20 19 18 16 15 14 15 12 12 9 11 9 7
10 6 5 8 11 8 6 8 17 8 2 3 4 2 1 3 7 10 11 17 20 23 38 42 39 34 27 23 25 23 20 19 19 19 18 15 13 13 10 12 12 14 13 10
10 18 8 8 2 12 21 16 10 7 1 1 4 2 1 5 13 16 16 21 22 21 30 40 36 33 28 24 23 22 23 21 19 20 19 14 15 16 12 13 11 14 15 15
7 6 5 25 20 8 3 6 4 2 1 4 8 4 6 10 11 16 13 18 27 22 26 30 35 35 31 30 26 23 23 21 19 23 18 16 17 15 10 10 9 13 16 18
2 8 4 8 11 12 13 6 5 7 4 2 8 3 5 4 18 30 25 26 31 23 24 28 23 35 35 32 28 25 22 23 22 23 20 16 15 13 11 10 12 12 14 12
2 6 7 4 8 13 7 5 5 6 3 3 1 4 9 3 2 10 24 27 28 28 20 25 21 24 35 35 31 26 21 22 23 22 20 20 15 15 15 12 10 6 9 10
6 4 5 7 6 12 13 8 3 2 5 3 2 2 6 9 5 6 14 25 29 35 25 24 29 29 30 35 34 29 24 22 22 23 21 21 19 18 16 13 10 7 6 7
5 4 8 2 1 8 2 4 4 5 5 5 5 5 9 13 9 13 17 25 33 38 34 25 28 30 30 34 32 29 27 27 25 25 22 21 19 18 17 13 11 9 9 8
3 3 2 8 7 8 7 8 6 5 3 2 4 6 7 14 12 21 21 23 27 37 38 27 28 26 35 32 37 25 30 30 28 23 22 21 19 19 18 17 13 11 10 10
5 3 4 10 7 8 6 5 1 4 3 5 5 5 2 9 7 4 15 19 22 25 30 33 29 28 29 29 18 31 30 28 25 21 22 22 17 20 19 16 14 12 11 10
0 3 4 3 6 5 5 12 9 3 3 2 5 5 4 7 4 5 11 13 16 21 28 31 31 30 29 28 27 37 36 24 28 24 26 24 21 20 20 18 18 16 14 11
3 2 3 2 4 5 10 15 15 6 4 5 5 6 6 9 10 13 21 15 19 26 23 31 28 31 34 33 29 35 36 32 28 30 27 22 20 16 18 21 19 15 16 18
4 2 3 5 7 8 5 19 14 10 13 4 5 2 3 20 25 21 25 25 21 21 33 34 35 33 29 30 24 28 32 27 30 31 31 24 19 14 16 19 17 15 15 17
3 3 3 1 5 4 7 10 11 1 11 6 4 3 7 6 12 16 17 24 26 25 24 25 29 31 31 31 22 30 34 29 37 34 22 22 17 16 16 17 15 13 13 14
1 3 3 1 5 4 5 4 0 6 10 11 8 7 5 12 13 15 17 19 19 21 20 20 19 25 30 33 20 35 43 29 25 20 23 22 19 17 14 11 11 11 10 9
4 4 4 3 1 1 3 3 2 4 5 8 7 10 13 17 26 21 16 18 13 10 8 9 13 18 23 20 29 28 29 23 19 18 18 18 17 16 13 12 11 9 9 8
5 8 4 2 4 5 6 4 7 1 2 3 6 13 19 16 8 4 17 16 16 12 7 4 8 11 11 13 16 19 24 21 18 17 16 19 14 16 12 10 9 9 9 8
4 4 4 1 1 4 5 4 12 4 3 11 9 18 28 16 15 10 10 15 11 8 4 4 8 8 8 12 13 14 13 15 15 17 17 19 13 14 14 11 11 10 10 11
3 4 3 2 1 1 10 3 6 3 7 18 15 18 23 23 15 4 4 8 7 5 8 8 9 10 9 8 8 9 10 11 13 13 13 15 16 16 14 12 10 11 11 11
1 6 7 8 5 5 5 9 15 16 18 13 17 20 27 28 24 23 15 9 9 9 9 8 7 8 10 11 9 9 9 9 10 11 12 11 11 11 12 13 13 12 12 11
3 7 4 3 3 4 8 25 19 21 24 20 16 24 24 25 24 22 18 9 8 9 10 5 5 7 7 8 8 7 7 7 8 8 8 8 8 8 9 10 10 10 12 13
5 4 6 2 2 1 10 16 14 16 16 20 25 14 16 21 21 21 15 10 6 7 7 8 4 4 5 6 6 7 7 7 7 7 6 5 5 5 6 6 6 7 7 8
3 6 4 5 11 5 15 14 9 9 10 12 13 18 17 15 17 19 21 17 11 8 5 6 5 3 1 3 6 6 5 4 3 3 3 3 3 5 6 7 7 7 8 9

GFSCGP_850_spd_111.txt.gz
Wind_Speed
1 3 5 8 4 4 5 5 10 3 3 3 3 3 9 8 13 19 24 31 34 43 41 37 34 31 27 26 30 30 23 22 19 17 17 16 14 12 9 8 8 7 8 5
4 5 7 2 3 2 9 9 4 4 3 1 5 9 6 12 6 1 21 32 35 33 38 39 36 34 29 28 29 33 27 24 20 18 16 16 14 14 10 11 8 9 8 6
6 6 4 4 2 4 2 6 7 6 6 3 1 3 4 6 5 6 4 28 37 41 44 42 40 36 31 31 28 27 27 28 24 20 17 17 16 15 13 11 11 9 8 7
4 7 6 5 5 6 5 6 8 14 6 2 1 3 6 7 6 5 7 19 32 41 45 46 42 38 33 30 29 25 24 25 25 21 18 16 20 17 14 11 10 12 11 9
7 4 4 6 9 7 4 12 11 5 4 5 5 2 3 9 7 7 12 14 28 42 48 48 43 38 31 28 29 28 25 24 22 22 20 16 17 15 14 13 12 12 12 10
8 9 5 6 1 13 17 9 6 0 2 2 5 3 4 7 19 13 12 17 22 33 38 45 42 38 32 29 28 28 25 24 20 21 20 19 16 16 14 13 15 15 15 14
5 1 3 10 12 5 6 5 2 1 2 3 4 2 9 9 9 19 18 16 22 29 37 43 41 41 34 31 29 27 25 26 23 21 22 21 18 19 16 13 14 16 18 19
1 3 7 5 6 10 7 6 5 6 4 3 3 5 5 6 14 26 9 16 23 23 37 45 44 42 36 32 30 27 27 25 23 21 22 21 18 16 16 13 14 14 13 18
2 5 4 4 5 10 6 4 4 7 3 3 3 6 5 9 5 21 31 37 29 27 28 42 43 42 38 35 31 28 25 26 24 22 22 21 18 16 16 14 12 14 13 14
2 4 4 2 5 2 7 6 2 2 5 3 4 6 4 8 11 12 17 31 36 39 29 31 40 41 39 34 32 29 26 24 22 21 22 21 19 15 16 15 12 9 10 12
1 4 7 3 4 7 1 2 5 5 4 5 3 6 8 14 13 15 17 31 35 39 42 34 31 35 39 36 35 32 30 26 23 19 21 19 19 18 17 15 12 10 10 9
1 3 4 8 2 5 2 0 4 5 4 2 4 6 4 8 7 18 20 27 29 36 42 42 30 34 34 33 36 34 33 31 27 20 18 19 18 18 19 18 15 13 12 11
1 3 4 8 6 7 5 5 1 3 4 5 5 6 2 9 10 17 20 24 31 32 39 32 26 31 32 34 32 31 32 29 25 22 19 20 20 19 19 19 19 16 14 12
2 3 4 5 4 1 4 7 4 5 4 3 6 6 1 5 9 12 20 25 28 34 39 37 31 26 31 34 30 28 28 26 28 23 22 23 22 23 21 19 20 17 16 12
3 2 1 4 1 6 0 5 9 6 3 5 4 6 5 2 7 13 23 27 28 33 41 40 31 25 27 28 26 28 22 20 25 24 23 23 23 26 21 20 22 21 22 18
6 5 3 2 2 8 3 10 6 6 6 5 6 5 5 9 5 13 21 26 30 33 36 39 28 31 36 32 28 29 24 21 28 22 19 26 21 22 19 21 24 22 18 13
2 2 3 4 6 8 4 5 6 1 5 4 5 2 6 7 12 16 14 13 13 17 23 27 32 34 28 28 26 21 19 21 26 27 21 23 25 23 20 20 20 20 18 19
3 4 3 2 4 5 4 2 4 2 2 6 5 5 7 9 18 21 14 10 11 12 12 16 19 20 20 20 15 22 21 23 20 19 19 26 26 24 21 20 18 18 17 15
2 4 3 3 1 5 3 3 1 2 3 3 3 7 11 19 26 23 16 12 11 8 7 8 8 15 21 29 22 20 19 17 14 17 19 22 26 23 21 17 14 14 12 11
3 7 4 2 3 6 5 1 3 5 3 2 7 9 11 9 7 3 10 11 10 8 7 4 3 6 8 7 21 27 25 28 28 23 27 24 21 19 14 14 14 10 8 7
3 3 3 2 2 6 6 7 2 3 5 9 11 17 16 8 11 18 10 7 7 6 7 8 7 6 6 5 7 8 15 19 27 30 24 20 21 18 16 13 11 11 11 10
4 4 3 2 1 3 1 1 4 5 7 17 14 22 35 30 25 21 16 7 6 7 10 10 9 7 7 6 6 8 13 14 15 18 21 23 20 12 11 13 12 11 10 10
2 6 4 6 5 6 4 3 3 12 14 14 20 25 25 26 24 13 15 12 10 8 10 12 9 8 7 8 8 7 6 5 6 6 8 10 11 14 15 15 13 10 10 11
3 3 2 2 2 2 18 17 14 11 12 14 17 22 21 22 19 19 14 14 13 13 10 9 11 7 7 6 6 6 5 6 7 6 5 6 6 6 6 6 8 9 10 12
4 7 3 1 2 8 8 14 21 19 16 18 19 18 16 15 18 17 15 16 14 16 16 14 11 7 6 6 6 7 6 6 6 5 5 4 3 3 3 3 4 5 7 9
6 6 4 5 17 7 19 23 23 20 19 15 15 15 13 16 19 18 17 15 12 13 13 13 15 12 8 6 5 5 5 5 4 4 4 5 4 4 4 4 5 4 5 7

GFSCGP_850_spd_114.txt.gz
Wind_Speed
2 4 4 2 5 4 4 3 5 3 5 4 2 1 5 11 4 14 19 26 33 37 35 30 30 27 25 25 25 23 19 23 20 19 19 16 12 10 8 7 9 6 6 3
5 1 4 4 3 2 5 7 2 1 4 2 4 3 2 8 4 5 10 28 32 33 33 35 34 32 28 26 27 24 21 21 21 16 18 16 13 12 9 8 7 8 7 5
5 3 5 3 2 4 4 5 5 3 5 3 3 4 5 4 9 14 16 24 36 36 36 38 39 35 31 29 31 29 26 23 22 18 18 18 15 14 11 10 9 8 8 7
2 3 3 3 4 5 3 7 9 10 5 2 3 2 4 9 6 9 22 21 34 38 40 41 41 38 35 30 30 32 29 24 22 19 18 17 16 16 12 12 11 9 9 9
6 2 3 4 7 8 5 11 6 2 3 2 4 2 3 11 13 15 24 22 32 40 43 45 42 39 36 32 31 32 31 28 27 23 20 16 16 15 12 11 11 10 11 10
6 3 5 6 2 9 11 7 7 5 3 2 7 5 5 11 22 14 20 24 31 37 45 46 42 40 36 34 32 29 28 24 25 25 21 19 15 17 15 14 13 12 12 12
4 3 1 6 8 6 5 7 3 2 0 5 4 4 8 17 14 21 22 26 30 36 42 40 39 40 39 35 34 31 30 26 25 23 23 20 16 16 15 13 11 16 14 15
1 5 8 4 5 7 4 6 6 6 4 2 1 5 6 9 25 27 34 31 28 34 38 40 45 44 41 36 31 33 33 29 26 24 22 21 19 17 17 15 12 12 14 16
1 5 1 5 5 10 6 5 5 5 2 1 4 6 5 2 8 16 24 28 29 32 36 41 43 44 42 37 33 30 31 30 27 25 20 19 18 16 14 13 13 11 14 13
2 3 3 2 5 1 5 7 2 2 4 4 4 5 5 11 9 15 13 23 25 25 33 39 43 46 43 39 32 29 27 26 26 23 20 19 19 16 14 14 13 10 9 14
3 2 6 1 2 7 2 2 1 4 4 5 2 6 5 11 15 19 30 42 41 39 38 39 46 47 46 41 37 32 29 25 25 24 19 18 18 17 15 12 10 9 9 9
0 4 3 6 7 2 4 6 6 4 4 2 3 6 7 6 8 27 20 26 35 38 38 38 38 45 43 42 40 35 33 29 24 24 20 17 18 16 17 15 12 11 12 12
3 1 3 5 4 4 4 3 2 3 3 5 5 6 6 5 5 17 19 21 28 33 37 42 40 37 35 38 40 39 36 33 29 25 23 19 19 18 17 16 14 14 13 14
3 2 5 4 6 1 5 5 3 4 3 4 5 6 8 5 2 7 17 22 24 25 32 39 40 41 41 34 34 38 37 34 32 29 26 22 22 20 19 17 20 16 15 16
4 5 4 5 3 6 8 4 7 1 3 4 5 4 5 7 5 5 12 19 24 29 32 38 36 34 34 29 29 32 31 28 26 26 28 26 22 18 18 24 12 21 19 17
3 1 2 1 3 4 1 8 3 4 4 1 4 2 3 8 9 11 8 15 20 25 30 33 33 24 22 25 30 32 27 19 16 22 27 26 22 21 17 21 16 18 19 19
2 3 2 5 6 4 4 0 3 1 4 3 2 3 5 6 12 10 10 13 13 14 21 28 31 32 28 25 23 21 19 21 22 21 22 19 17 19 15 22 20 22 24 21
4 3 2 2 0 4 4 1 5 2 2 4 4 2 7 14 20 21 16 13 11 11 14 16 19 20 20 23 24 22 20 19 22 23 22 22 22 22 20 23 20 19 17 16
2 4 3 3 3 3 4 6 5 4 5 3 5 5 12 18 22 23 19 18 17 13 8 7 12 13 16 19 23 19 15 22 21 17 16 22 17 17 18 25 23 22 19 16
5 6 4 3 2 4 4 2 8 7 5 4 8 11 15 2 8 3 13 15 15 11 8 7 6 6 12 16 19 20 15 16 13 15 13 12 16 19 22 22 24 19 12 10
1 3 4 1 2 6 5 1 8 3 6 10 12 12 12 6 10 21 16 14 12 13 14 11 7 5 3 4 5 21 22 17 17 20 18 17 19 19 22 18 13 9 10 10
4 4 2 2 1 3 1 2 5 3 3 10 9 12 8 20 22 18 14 15 15 17 15 14 10 10 9 8 5 8 10 12 13 15 19 18 23 15 16 10 8 9 12 11
1 5 4 6 5 5 7 7 6 6 9 8 10 15 17 22 17 15 17 16 15 15 15 16 13 13 12 12 11 10 11 10 10 10 13 13 20 10 9 10 11 12 11 10
2 5 3 2 3 2 1 3 6 7 7 11 16 18 17 14 14 17 19 18 15 16 15 15 12 12 11 10 10 10 11 11 11 9 9 9 9 8 9 10 9 9 10 12
3 7 5 1 3 3 2 8 8 6 8 10 18 11 12 14 16 18 21 23 20 21 21 16 11 12 12 12 11 9 9 9 8 8 7 7 7 6 4 3 4 5 7 7
7 6 4 5 15 6 13 15 14 12 9 13 16 16 13 14 17 18 19 20 20 22 20 19 17 14 14 14 13 11 11 10 9 9 8 6 5 5 5 4 4 4 4 4

GFSCGP_850_spd_120.txt.gz
Wind_Speed
10 10 13 13 9 3 2 2 3 4 4 5 9 11 13 6 8 20 22 20 21 22 19 18 17 15 16 16 17 18 18 16 14 13 11 10 9 9 7 7 10 10 8 7
8 13 7 4 6 9 8 8 4 4 5 5 7 11 7 17 14 19 23 22 22 23 21 19 19 18 17 18 18 19 18 18 16 13 14 10 9 8 8 8 10 9 8 7
9 4 8 10 9 9 10 11 4 7 6 6 7 13 14 12 20 18 24 24 28 24 23 22 22 21 19 20 21 20 19 18 18 15 14 13 13 10 9 8 7 8 9 7
6 9 9 11 11 10 11 8 8 6 5 5 5 5 10 15 19 20 24 25 31 28 24 24 24 23 22 21 20 21 21 19 18 19 16 15 11 9 10 8 8 8 9 8
7 10 9 8 10 10 8 2 8 9 7 7 9 7 6 16 16 23 26 30 31 33 29 28 26 25 23 21 20 20 20 22 18 21 16 14 11 10 7 8 9 9 9 8
3 3 5 8 2 8 3 5 5 3 4 10 12 8 11 11 23 22 30 31 33 36 33 30 27 24 23 22 21 20 21 23 23 22 19 14 12 12 11 11 8 9 8 8
8 13 9 8 9 7 13 11 8 8 8 10 4 7 15 6 10 20 25 34 34 35 33 32 29 26 25 25 23 22 22 23 24 21 18 17 14 12 10 11 10 12 11 10
6 11 13 12 15 10 14 15 11 6 9 5 3 7 3 4 6 17 23 28 30 32 35 34 31 28 27 27 25 23 22 23 23 22 19 18 17 16 11 11 14 13 11 13
4 6 4 5 6 11 11 9 12 12 9 8 8 9 14 6 8 14 22 24 24 35 36 35 33 30 28 27 26 24 22 22 23 22 20 19 19 17 12 13 12 11 13 11
2 7 3 8 6 8 11 5 8 9 8 13 10 5 3 13 10 9 17 22 20 27 33 35 34 31 28 27 26 23 22 22 22 21 19 18 17 17 16 14 13 12 12 12
5 5 7 7 12 11 9 11 9 9 9 8 8 2 5 11 12 8 12 18 19 22 28 30 32 31 29 26 26 24 22 21 21 21 19 18 17 15 15 14 14 15 14 14
4 6 9 11 7 5 13 14 12 10 16 12 12 10 5 9 12 4 4 9 18 22 24 27 26 27 27 27 26 24 23 21 21 21 21 19 19 18 15 17 14 13 14 12
2 8 8 13 11 9 8 7 9 10 7 9 15 5 7 10 10 4 7 7 9 15 17 27 28 22 23 31 25 24 23 23 20 20 20 21 20 21 18 17 16 15 13 13
4 13 13 13 9 1 6 4 5 10 10 11 15 18 3 10 11 8 5 7 13 19 23 30 30 25 25 25 29 22 21 21 21 20 20 21 21 20 20 17 17 15 18 17
6 12 13 11 10 9 11 5 4 7 6 7 13 10 10 7 6 13 6 10 12 18 22 23 29 26 31 28 28 21 19 19 21 22 20 21 23 22 21 19 19 16 16 15
6 8 7 12 11 12 11 9 13 1 1 6 7 11 7 9 7 8 3 4 11 14 17 22 23 29 29 27 32 30 16 18 21 23 24 21 24 26 26 22 21 19 19 18
5 7 7 13 7 14 16 17 13 9 6 3 8 12 9 7 7 7 4 1 3 4 6 8 13 22 23 23 30 28 23 12 12 15 20 21 21 24 27 27 25 24 22 22
8 7 6 10 2 12 13 2 11 14 12 8 11 7 6 3 1 7 9 5 5 6 7 7 8 10 20 20 23 25 16 10 9 10 13 22 23 24 23 27 28 27 22 20
7 9 7 5 8 12 13 9 9 10 15 9 11 3 4 5 8 11 13 9 3 4 8 13 8 13 16 15 21 23 13 10 11 14 17 19 24 26 29 30 32 30 26 23
6 6 8 11 6 8 4 5 2 5 10 11 16 10 13 8 6 5 9 8 6 8 6 5 8 10 12 19 19 18 16 15 17 12 15 21 20 21 23 25 20 27 23 19
9 8 11 9 6 7 3 5 4 8 4 3 7 10 13 5 11 11 10 8 7 8 6 7 8 7 5 8 18 19 21 21 21 15 16 15 13 7 15 16 8 9 12 17
7 5 4 5 3 8 5 6 6 5 3 1 1 9 20 20 15 14 11 9 9 10 10 10 10 9 7 8 15 20 23 22 20 15 12 12 10 4 10 9 2 6 2 8
3 3 2 3 2 2 1 10 3 6 3 2 7 12 19 21 17 14 13 9 8 10 12 13 15 17 15 11 9 11 13 15 12 12 11 12 11 9 7 7 4 7 3 1
5 4 4 3 4 3 3 5 4 2 4 11 17 21 18 17 15 10 10 8 8 9 10 13 17 18 18 19 19 19 17 14 10 9 9 10 11 10 8 7 7 8 7 11
5 8 3 5 3 1 2 3 6 9 15 20 19 16 17 18 16 16 13 12 11 11 11 11 14 15 17 18 20 19 18 17 17 16 14 13 10 8 7 5 3 4 5 6
9 4 5 5 3 1 8 8 8 11 16 17 19 21 18 19 19 17 15 13 14 14 13 13 15 17 18 18 19 19 19 18 17 15 15 16 15 14 13 11 7 5 5 4

GFSCGP_850_spd_123.txt.gz
Wind_Speed
16 11 14 17 14 12 6 5 5 11 3 5 10 14 13 17 15 20 23 20 21 21 20 18 16 15 17 17 18 18 17 16 14 12 10 9 9 9 9 8 6 9 6 6
9 14 15 13 4 5 10 9 8 4 4 7 6 11 10 20 22 23 26 22 23 21 22 21 19 18 17 18 18 18 17 16 16 13 12 9 8 8 9 7 8 7 8 6
15 10 4 3 9 12 13 12 6 1 6 10 9 15 17 16 21 24 21 23 24 26 27 24 21 21 19 19 20 20 19 18 19 15 12 11 12 6 7 9 7 8 9 6
12 9 3 11 13 12 13 11 8 3 6 5 7 8 14 18 17 20 27 21 27 24 29 27 24 22 21 20 19 20 20 18 17 19 16 13 11 11 9 10 8 8 9 8
11 8 10 13 13 10 12 6 6 9 12 12 10 7 13 17 15 19 28 30 29 32 27 28 26 24 23 21 19 21 21 21 18 19 15 16 13 11 10 9 10 9 10 8
13 7 11 11 4 6 8 4 12 9 10 11 18 14 11 5 12 15 24 29 30 36 29 27 27 26 23 22 20 20 22 22 20 19 19 18 14 9 12 10 6 8 8 7
13 12 11 11 8 12 12 13 9 11 10 13 8 7 8 12 18 11 22 30 33 30 36 31 28 29 26 24 22 20 21 22 20 19 19 16 13 13 10 10 10 8 10 13
8 13 16 11 15 9 14 16 13 8 8 6 7 6 3 9 11 4 13 28 31 29 36 38 32 29 31 26 23 22 22 22 22 20 20 18 15 13 11 11 11 11 10 10
2 7 7 4 10 14 12 14 19 18 17 14 11 15 7 11 15 4 10 15 26 34 33 34 33 32 29 26 25 23 22 22 22 23 20 19 17 16 14 12 14 11 12 11
5 7 11 9 12 9 18 4 8 9 16 13 9 11 2 6 10 12 5 19 25 28 32 32 32 34 30 26 26 24 23 22 23 22 21 19 18 17 16 13 13 13 13 13
12 6 5 5 12 15 11 12 12 12 11 7 13 5 8 11 13 8 5 3 21 21 21 28 32 34 32 28 28 25 24 22 22 23 22 20 19 18 16 16 15 13 15 16
5 8 11 12 2 10 7 12 21 11 10 6 14 2 11 13 11 14 17 4 4 16 20 23 29 30 33 30 29 26 25 23 21 22 22 20 18 18 17 16 15 17 13 13
6 7 10 15 15 15 10 16 14 13 11 13 8 1 3 18 6 9 11 6 4 12 15 18 12 21 30 29 28 28 26 23 21 22 22 20 19 18 18 16 15 14 12 13
5 14 15 14 17 4 11 17 17 16 12 16 11 1 8 5 15 7 6 3 6 11 16 14 19 12 17 23 27 26 25 23 22 21 21 22 21 19 18 17 16 15 15 14
10 14 14 16 18 15 15 7 8 21 37 16 9 12 7 8 17 6 3 2 10 12 20 19 23 21 11 9 19 24 22 24 22 21 20 21 20 19 18 18 18 17 16 15
11 11 10 13 17 16 14 14 27 33 18 2 18 12 7 15 6 7 7 8 12 15 16 20 26 33 36 29 19 31 25 18 23 23 22 20 20 19 19 19 19 20 19 18
9 10 11 14 12 11 16 14 15 18 18 4 10 12 16 14 9 9 14 4 6 14 10 14 22 25 37 27 28 24 28 32 23 20 18 23 16 16 16 18 21 22 21 20
10 9 9 12 14 16 8 9 2 32 16 13 22 5 13 7 10 12 10 12 8 7 10 5 3 13 23 29 21 22 28 23 15 14 15 16 16 15 16 19 23 24 24 24
11 8 11 11 13 13 10 5 16 20 19 16 19 4 9 12 13 10 11 10 7 9 11 8 4 6 9 15 21 19 23 22 18 13 11 9 10 15 18 18 23 24 24 27
10 7 8 12 9 5 11 8 6 41 10 13 15 7 3 5 6 5 7 5 7 11 5 4 5 10 11 12 11 14 18 15 16 16 10 7 6 9 10 16 21 23 28 31
9 9 13 12 9 8 3 19 9 7 4 20 4 7 8 7 7 11 8 8 10 14 8 6 7 11 19 16 15 18 12 14 11 13 13 9 7 9 8 13 20 8 7 6
7 9 9 6 4 8 6 2 7 5 9 15 18 16 19 16 15 14 13 11 12 17 10 9 5 4 8 15 16 17 20 19 15 15 13 11 11 6 1 2 2 2 2 5
7 4 3 5 3 3 4 8 4 7 9 5 9 10 18 17 16 15 16 13 14 17 16 13 15 13 9 7 8 14 12 13 16 13 12 10 8 6 10 9 7 7 7 8
10 6 5 4 7 4 2 2 3 2 4 4 8 14 17 17 15 13 14 14 14 14 15 14 16 19 20 18 15 12 9 7 8 9 7 7 10 13 13 7 6 5 4 2
5 6 5 8 7 4 5 5 8 7 9 10 13 14 14 15 15 14 13 15 14 15 11 12 14 16 18 19 21 21 20 17 17 15 12 11 9 8 8 7 7 3 3 2
14 5 4 2 3 10 9 11 11 10 10 12 13 14 14 14 15 15 14 14 15 13 12 13 15 17 16 17 18 18 17 18 19 18 16 16 14 13 11 9 9 9 7 5

GFSCGP_850_spd_126.txt.gz
Wind_Speed
15 9 14 18 14 19 4 5 7 12 8 6 10 12 15 23 19 15 30 22 16 24 25 21 20 22 21 19 20 17 18 17 17 15 16 15 14 10 15 8 8 9 9 14
10 14 16 14 16 13 5 8 7 9 9 4 8 12 18 22 24 23 29 26 25 23 29 25 21 23 23 21 21 22 18 19 16 16 12 12 12 11 9 12 8 11 6 8
15 14 16 16 10 5 7 13 9 6 6 7 9 11 13 18 21 24 26 22 32 22 34 27 27 25 27 25 23 22 20 20 20 19 16 16 11 13 17 11 6 11 10 9
11 12 1 3 6 11 12 13 11 4 2 8 8 3 9 16 20 20 30 35 44 31 32 31 29 29 28 28 25 22 21 19 24 21 16 12 13 10 11 9 9 9 9 7
10 8 4 10 13 13 12 7 6 4 9 13 12 8 9 18 18 18 27 33 34 38 25 33 31 32 30 30 27 26 24 20 21 19 21 17 16 13 9 14 11 9 10 12
16 4 7 13 13 10 8 9 6 13 10 12 17 16 13 6 9 8 20 29 32 33 27 33 31 33 32 31 28 28 25 23 22 20 22 20 18 12 19 11 13 12 10 8
13 12 10 9 9 6 10 11 9 9 10 8 14 12 2 13 6 10 20 27 30 36 37 26 29 32 36 33 29 30 26 25 24 22 24 21 19 15 14 15 8 13 11 11
12 13 18 12 13 10 14 14 12 13 2 7 5 3 3 10 8 9 4 35 27 34 38 27 31 30 30 34 33 29 27 24 22 24 24 21 20 13 12 14 13 12 13 10
9 5 12 10 11 12 13 11 15 19 18 13 10 13 13 10 6 6 12 26 29 31 30 32 26 39 35 30 34 30 28 24 23 23 24 25 22 18 12 13 15 16 15 11
6 5 9 8 5 10 15 6 6 8 15 14 9 6 7 7 7 11 1 11 21 27 32 33 27 26 40 38 34 32 31 25 23 24 23 21 22 23 20 17 15 15 12 17
12 7 2 5 8 12 10 12 7 10 6 10 12 5 7 10 6 8 16 26 15 14 24 22 40 33 22 41 35 35 30 25 22 27 27 22 19 18 19 21 18 15 16 18
6 6 10 11 6 8 10 9 8 7 10 8 7 8 13 7 6 14 11 16 13 10 7 15 31 28 31 29 41 39 33 29 25 27 28 27 23 21 21 17 16 16 14 16
8 6 9 12 11 9 9 10 11 8 10 8 7 5 6 9 9 9 23 20 9 11 11 18 16 34 45 29 33 38 35 31 28 28 30 27 27 23 21 22 18 18 17 14
5 11 11 12 15 11 7 12 15 2 7 12 9 14 13 12 8 3 6 19 21 19 13 16 13 19 40 45 38 38 37 34 31 28 30 29 28 26 25 22 17 17 18 14
5 11 13 14 16 16 16 14 13 8 11 11 14 19 21 10 13 19 9 10 13 12 12 13 14 13 23 30 33 25 34 36 33 29 30 29 26 23 22 23 22 21 14 14
11 13 11 12 15 15 17 15 18 10 10 10 14 10 12 17 19 16 19 8 13 11 9 8 9 13 10 15 16 10 16 34 36 33 31 28 27 26 24 22 21 19 21 20
5 9 9 12 15 14 11 11 8 2 8 10 12 8 15 8 7 13 10 15 11 12 9 18 14 8 10 15 17 24 42 11 29 27 26 21 23 25 25 24 23 21 20 19
10 9 7 10 11 14 4 14 9 9 11 15 13 5 11 16 10 5 6 7 8 11 14 23 16 5 3 13 18 23 24 25 18 20 17 15 19 19 17 18 18 19 20 19
11 7 8 10 13 15 8 4 6 14 20 13 15 5 19 23 9 6 5 3 9 11 16 8 17 12 7 3 8 17 25 25 18 14 19 24 17 16 14 13 15 16 17 17
7 6 7 9 13 16 10 9 5 6 14 16 24 4 21 30 14 8 6 3 6 12 10 6 9 11 7 2 5 12 15 20 19 16 17 15 15 11 7 4 7 10 13 18
8 8 10 10 12 11 5 4 6 8 7 15 22 19 4 9 10 21 13 10 8 9 8 5 8 8 11 6 3 4 2 6 14 15 12 10 8 6 3 3 9 3 7 6
9 8 8 10 5 9 5 10 14 7 4 10 14 18 34 27 23 17 16 13 13 13 9 7 6 11 15 6 10 12 9 8 7 5 7 7 5 5 5 6 5 8 6 5
10 8 5 3 3 10 6 8 9 9 13 2 14 21 19 25 21 19 17 16 17 17 16 14 13 10 1 6 5 11 17 20 12 12 9 6 15 9 2 2 6 3 8 10
12 3 4 5 6 25 6 8 6 5 8 11 21 18 25 24 21 20 19 15 14 15 18 18 21 20 15 10 8 12 12 11 13 14 10 11 11 13 11 8 9 9 8 7
8 2 3 8 4 8 9 8 2 4 3 8 20 19 18 21 19 18 17 16 15 14 12 15 19 19 21 23 23 19 16 14 15 17 17 15 15 14 9 10 8 5 2 3
11 5 5 3 13 11 20 21 4 7 17 8 11 21 16 18 20 18 18 15 16 13 15 17 17 17 19 18 21 22 22 22 21 20 17 15 14 14 12 10 11 11 10 9

GFSCGP_850_spd_129.txt.gz
Wind_Speed
16 3 7 13 14 14 16 7 12 13 11 13 14 9 13 25 21 17 28 17 12 20 28 26 29 28 27 26 20 19 20 17 20 20 18 17 11 12 12 10 10 6 11 9
3 9 13 15 17 13 11 1 10 10 12 7 9 12 16 20 26 31 35 31 17 17 21 29 33 33 28 27 21 21 20 18 18 19 17 20 13 11 11 7 10 8 8 12
9 12 16 15 12 11 3 3 3 16 7 5 2 4 11 18 22 25 31 32 21 19 21 28 37 34 29 27 27 24 23 20 19 20 18 18 15 12 12 14 8 14 9 8
9 15 12 13 8 4 2 7 10 13 7 3 8 4 7 14 18 19 24 30 31 26 25 28 35 38 34 30 26 31 28 24 22 23 19 19 18 19 14 12 9 14 12 8
8 10 3 1 5 4 9 6 6 5 4 2 4 1 7 16 15 17 23 26 30 27 31 33 32 40 37 32 28 31 34 28 26 25 20 19 17 11 14 14 12 11 12 12
9 18 5 5 7 8 7 6 4 4 1 2 11 8 6 10 20 18 22 36 38 35 39 27 36 41 41 36 30 30 32 30 24 31 25 22 23 19 14 18 14 14 12 8
7 10 3 7 6 4 6 5 3 3 1 6 9 1 3 4 3 21 26 28 35 28 32 30 27 38 43 40 35 32 30 27 26 32 30 26 24 22 18 20 17 16 11 12
8 6 10 6 4 4 8 9 5 4 2 5 11 5 3 5 11 19 33 35 30 36 34 30 42 29 42 42 38 33 30 29 25 28 30 30 25 27 20 20 16 16 16 12
4 7 13 12 6 5 6 4 10 5 5 2 3 3 7 3 6 11 19 27 29 31 39 31 31 34 39 44 41 36 31 31 27 24 28 30 28 26 21 14 15 16 13 13
5 3 9 9 8 7 8 3 3 4 0 3 4 3 3 4 5 9 14 5 16 30 34 37 29 38 38 45 44 40 34 30 29 21 28 30 31 29 22 21 18 20 19 18
5 1 8 8 5 9 3 4 3 3 3 2 1 3 6 7 1 7 6 8 17 23 20 13 25 31 40 39 45 45 38 33 33 25 24 31 32 30 26 26 22 21 21 19
4 2 3 5 8 6 8 9 7 5 6 3 4 4 1 4 3 13 11 6 9 13 11 23 26 29 25 34 41 42 39 36 34 27 22 30 26 28 28 30 23 22 18 17
5 4 4 8 6 7 4 3 2 1 1 5 5 4 1 10 3 13 19 15 12 10 13 11 21 16 33 32 32 33 36 40 34 29 24 28 26 25 25 24 20 22 19 14
3 1 2 5 5 7 7 9 5 5 2 2 2 3 7 4 9 10 7 8 12 14 11 8 10 19 23 36 38 41 34 37 38 32 28 30 29 27 25 21 20 18 16 15
3 2 3 8 11 10 9 9 10 6 4 5 3 1 4 2 1 8 15 17 11 5 1 8 9 13 21 28 36 40 39 34 33 34 30 34 35 30 27 24 21 23 21 15
6 3 5 7 9 10 11 11 9 7 4 8 7 2 3 2 5 9 11 11 14 5 12 10 7 10 17 20 31 39 49 38 21 9 36 31 34 32 30 27 25 25 21 17
6 4 0 6 6 8 6 6 8 5 5 0 3 5 7 6 3 5 5 4 5 4 6 5 4 3 5 15 14 22 30 34 40 36 35 32 34 29 28 26 26 25 21 20
4 2 0 3 6 6 7 4 6 6 4 8 9 7 5 8 11 7 3 5 4 4 3 4 5 5 23 20 11 10 15 26 41 30 38 34 32 28 27 26 25 22 21 20
6 5 3 4 4 8 4 4 3 5 5 8 3 7 13 15 8 3 3 3 4 9 5 3 6 7 6 16 16 9 10 12 24 23 20 31 20 23 23 23 23 22 20 16
5 5 5 1 2 5 3 6 10 5 3 2 9 3 13 14 4 1 8 7 7 7 4 5 5 3 2 2 8 11 6 11 11 15 17 23 24 21 18 15 16 15 12 13
1 1 4 4 5 6 3 9 6 2 4 7 11 9 7 7 4 13 10 4 4 7 7 5 8 7 3 4 2 8 8 9 14 20 22 24 24 20 16 13 7 7 9 9
4 5 3 2 2 2 5 3 2 6 5 8 11 16 16 16 10 12 11 6 2 2 5 6 9 9 6 6 10 2 4 7 11 14 14 13 16 17 15 16 14 17 8 8
2 6 4 5 4 6 12 9 17 7 9 6 11 3 19 20 14 9 12 10 8 6 5 2 1 4 5 7 10 8 6 7 6 7 10 10 17 21 19 18 10 11 13 12
6 11 2 3 5 7 14 5 12 21 24 17 7 6 7 19 19 13 14 14 14 14 14 12 11 11 13 9 7 16 8 6 8 6 21 14 16 16 13 13 16 17 14 13
3 3 2 5 1 3 7 22 26 23 18 23 13 13 15 26 25 20 17 14 12 15 15 17 20 22 22 17 17 15 14 13 15 19 20 19 15 12 15 14 13 10 9 8
7 5 4 5 10 5 0 11 11 13 7 13 27 23 23 23 22 18 17 16 13 13 14 16 18 23 26 26 27 22 21 19 22 20 18 17 16 16 14 11 13 14 12 11